Wetterdaten: aktuell Donnerstag, 30.06.2022 13:06
Datum Zeit Temp. 2m Temp +5cm LF A. 2m Luftdruck Regen Wind Richtung Richtung Sonnenschein UV Solar Taupunkt Windben
30.06.2022 13:06 29,4 C 35,0 C 55 % 1012,5 hPa 0,0 l/m 7,9 km/h (2 Bft) SO 131 1 min 3,0 UV-I 834 W/m 19,4 C 12,0 km/h (2 Bft)
30.06.2022 13:05 29,3 C 35,5 C 55 % 1012,3 hPa 0,0 l/m 4,5 km/h (1 Bft) S 190 1 min 3,0 UV-I 849 W/m 19,3 C 9,0 km/h (2 Bft)
30.06.2022 13:04 29,2 C 35,8 C 56 % 1012,4 hPa 0,0 l/m 5,9 km/h (2 Bft) SW 235 1 min 3,0 UV-I 845 W/m 19,5 C 9,0 km/h (2 Bft)
30.06.2022 13:03 29,2 C 35,3 C 56 % 1012,3 hPa 0,0 l/m 4,3 km/h (1 Bft) W-NW 289 1 min 3,0 UV-I 846 W/m 19,5 C 8,0 km/h (2 Bft)
30.06.2022 13:02 29,1 C 36,1 C 56 % 1012,4 hPa 0,0 l/m 3,5 km/h (1 Bft) S 173 1 min 3,0 UV-I 839 W/m 19,4 C 7,0 km/h (2 Bft)
30.06.2022 13:01 29,0 C 35,2 C 57 % 1012,3 hPa 0,0 l/m 3,5 km/h (1 Bft) N 11 1 min 3,0 UV-I 841 W/m 19,6 C 8,0 km/h (2 Bft)
30.06.2022 13:00 28,9 C 36,4 C 57 % 1012,5 hPa 0,0 l/m 0,0 km/h (0 Bft) N 0 1 min 3,0 UV-I 846 W/m 19,5 C 8,0 km/h (2 Bft)
30.06.2022 12:59 28,9 C 35,4 C 56 % 1012,5 hPa 0,0 l/m 3,2 km/h (1 Bft) SW 220 1 min 3,0 UV-I 842 W/m 19,2 C 9,0 km/h (2 Bft)
30.06.2022 12:58 28,9 C 34,6 C 56 % 1012,6 hPa 0,0 l/m 5,1 km/h (1 Bft) W-SW 243 1 min 3,0 UV-I 831 W/m 19,2 C 9,0 km/h (2 Bft)
30.06.2022 12:57 28,8 C 34,8 C 56 % 1012,6 hPa 0,0 l/m 3,5 km/h (1 Bft) SW 226 1 min 3,0 UV-I 820 W/m 19,1 C 8,0 km/h (2 Bft)
30.06.2022 12:56 28,8 C 34,8 C 56 % 1012,7 hPa 0,0 l/m 2,4 km/h (1 Bft) W-SW 258 1 min 3,0 UV-I 802 W/m 19,1 C 5,0 km/h (1 Bft)
30.06.2022 12:55 28,7 C 35,5 C 57 % 1012,6 hPa 0,0 l/m 1,6 km/h (1 Bft) SW 220 1 min 3,0 UV-I 787 W/m 19,3 C 5,0 km/h (1 Bft)
30.06.2022 12:54 28,7 C 36,2 C 57 % 1012,6 hPa 0,0 l/m 2,5 km/h (1 Bft) SO 131 1 min 3,0 UV-I 798 W/m 19,3 C 5,0 km/h (1 Bft)
30.06.2022 12:53 28,6 C 35,3 C 57 % 1012,5 hPa 0,0 l/m 2,8 km/h (1 Bft) N-NO 13 1 min 3,0 UV-I 785 W/m 19,2 C 5,0 km/h (1 Bft)
30.06.2022 12:52 28,6 C 34,9 C 57 % 1012,6 hPa 0,0 l/m 3,1 km/h (1 Bft) NO 48 1 min 3,0 UV-I 776 W/m 19,2 C 5,0 km/h (1 Bft)
30.06.2022 12:51 28,6 C 35,0 C 57 % 1012,6 hPa 0,0 l/m 4,5 km/h (1 Bft) NO 35 1 min 3,0 UV-I 771 W/m 19,2 C 5,0 km/h (1 Bft)
30.06.2022 12:50 28,6 C 35,4 C 57 % 1012,5 hPa 0,0 l/m 2,3 km/h (1 Bft) NO 51 1 min 3,0 UV-I 781 W/m 19,2 C 5,0 km/h (1 Bft)
30.06.2022 12:49 28,5 C 34,1 C 57 % 1012,4 hPa 0,0 l/m 5,4 km/h (1 Bft) O 90 1 min 3,0 UV-I 802 W/m 19,1 C 14,0 km/h (3 Bft)
30.06.2022 12:48 28,5 C 33,6 C 56 % 1012,7 hPa 0,0 l/m 2,7 km/h (1 Bft) O 81 1 min 3,0 UV-I 819 W/m 18,8 C 14,0 km/h (3 Bft)
30.06.2022 12:47 28,5 C 33,6 C 56 % 1012,5 hPa 0,0 l/m 8,2 km/h (2 Bft) S-SW 204 1 min 3,0 UV-I 842 W/m 18,8 C 14,0 km/h (3 Bft)
30.06.2022 12:46 28,5 C 33,6 C 56 % 1012,7 hPa 0,0 l/m 4,9 km/h (1 Bft) SW 220 1 min 3,0 UV-I 845 W/m 18,8 C 12,0 km/h (2 Bft)
30.06.2022 12:45 28,5 C 34,1 C 56 % 1012,8 hPa 0,0 l/m 5,6 km/h (1 Bft) S-SW 212 1 min 3,0 UV-I 835 W/m 18,8 C 13,0 km/h (3 Bft)
30.06.2022 12:44 28,5 C 33,5 C 57 % 1012,7 hPa 0,0 l/m 8,2 km/h (2 Bft) SW 219 1 min 3,0 UV-I 829 W/m 19,1 C 13,0 km/h (3 Bft)
30.06.2022 12:43 28,5 C 33,3 C 57 % 1013,0 hPa 0,0 l/m 3,8 km/h (1 Bft) S 189 1 min 3,0 UV-I 730 W/m 19,1 C 9,0 km/h (2 Bft)
30.06.2022 12:42 28,5 C 31,7 C 57 % 1012,7 hPa 0,0 l/m 1,6 km/h (1 Bft) W-SW 246 1 min 3,0 UV-I 798 W/m 19,1 C 6,0 km/h (2 Bft)
30.06.2022 12:41 28,5 C 30,6 C 57 % 1012,9 hPa 0,0 l/m 0,9 km/h (0 Bft) O-NO 68 1 min 2,0 UV-I 477 W/m 19,1 C 6,0 km/h (2 Bft)
30.06.2022 12:40 28,5 C 32,1 C 57 % 1012,8 hPa 0,0 l/m 4,0 km/h (1 Bft) O-SO 117 0 min 1,0 UV-I 340 W/m 19,1 C 9,0 km/h (2 Bft)
30.06.2022 12:39 28,4 C 33,5 C 57 % 1012,5 hPa 0,0 l/m 5,1 km/h (1 Bft) SO 125 1 min 2,0 UV-I 470 W/m 19,0 C 12,0 km/h (2 Bft)
30.06.2022 12:38 28,4 C 33,6 C 57 % 1012,9 hPa 0,0 l/m 7,2 km/h (2 Bft) S-SO 161 1 min 3,0 UV-I 845 W/m 19,0 C 12,0 km/h (2 Bft)
30.06.2022 12:37 28,4 C 34,0 C 58 % 1012,7 hPa 0,0 l/m 3,1 km/h (1 Bft) S-SW 195 1 min 3,0 UV-I 850 W/m 19,3 C 12,0 km/h (2 Bft)
30.06.2022 12:36 28,4 C 34,9 C 57 % 1012,8 hPa 0,0 l/m 6,8 km/h (2 Bft) S-SO 155 1 min 4,0 UV-I 880 W/m 19,0 C 11,0 km/h (2 Bft)
30.06.2022 12:35 28,4 C 34,2 C 57 % 1012,7 hPa 0,0 l/m 2,3 km/h (1 Bft) O-SO 122 1 min 4,0 UV-I 880 W/m 19,0 C 8,0 km/h (2 Bft)
30.06.2022 12:34 28,4 C 33,2 C 57 % 1012,7 hPa 0,0 l/m 1,9 km/h (1 Bft) W-NW 295 1 min 4,0 UV-I 873 W/m 19,0 C 3,0 km/h (1 Bft)
30.06.2022 12:33 28,4 C 33,0 C 57 % 1012,9 hPa 0,0 l/m 2,6 km/h (1 Bft) N 0 1 min 3,0 UV-I 849 W/m 19,0 C 8,0 km/h (2 Bft)
30.06.2022 12:32 28,4 C 33,2 C 57 % 1012,9 hPa 0,0 l/m 3,6 km/h (1 Bft) S 182 1 min 3,0 UV-I 837 W/m 19,0 C 8,0 km/h (2 Bft)
30.06.2022 12:31 28,4 C 32,4 C 58 % 1012,7 hPa 0,0 l/m 4,5 km/h (1 Bft) S-SO 168 1 min 3,0 UV-I 836 W/m 19,3 C 8,0 km/h (2 Bft)
30.06.2022 12:30 28,4 C 33,1 C 58 % 1012,9 hPa 0,0 l/m 5,6 km/h (1 Bft) O 94 1 min 3,0 UV-I 846 W/m 19,3 C 12,0 km/h (2 Bft)
30.06.2022 12:29 28,3 C 34,2 C 58 % 1012,8 hPa 0,0 l/m 7,8 km/h (2 Bft) SO 128 1 min 3,0 UV-I 845 W/m 19,2 C 12,0 km/h (2 Bft)
30.06.2022 12:28 28,3 C 32,8 C 58 % 1012,6 hPa 0,0 l/m 1,0 km/h (0 Bft) S-SO 148 1 min 3,0 UV-I 822 W/m 19,2 C 8,0 km/h (2 Bft)
30.06.2022 12:27 28,2 C 33,1 C 58 % 1013,0 hPa 0,0 l/m 5,0 km/h (1 Bft) N 358 1 min 3,0 UV-I 837 W/m 19,1 C 12,0 km/h (2 Bft)
30.06.2022 12:26 28,2 C 34,1 C 60 % 1012,9 hPa 0,0 l/m 6,3 km/h (2 Bft) O 87 1 min 3,0 UV-I 846 W/m 19,7 C 12,0 km/h (2 Bft)
30.06.2022 12:25 28,1 C 34,1 C 60 % 1012,7 hPa 0,0 l/m 7,0 km/h (2 Bft) SO 138 1 min 3,0 UV-I 789 W/m 19,6 C 12,0 km/h (2 Bft)
30.06.2022 12:24 28,0 C 34,6 C 59 % 1012,9 hPa 0,0 l/m 4,5 km/h (1 Bft) S-SW 205 1 min 3,0 UV-I 834 W/m 19,2 C 9,0 km/h (2 Bft)
30.06.2022 12:23 28,0 C 33,4 C 59 % 1012,8 hPa 0,0 l/m 2,3 km/h (1 Bft) N-NO 15 1 min 3,0 UV-I 851 W/m 19,2 C 9,0 km/h (2 Bft)
30.06.2022 12:22 27,9 C 33,4 C 59 % 1012,9 hPa 0,0 l/m 4,1 km/h (1 Bft) NO 55 1 min 3,0 UV-I 845 W/m 19,1 C 9,0 km/h (2 Bft)
30.06.2022 12:21 27,8 C 34,6 C 60 % 1012,8 hPa 0,0 l/m 2,4 km/h (1 Bft) N-NO 19 1 min 4,0 UV-I 866 W/m 19,3 C 6,0 km/h (2 Bft)
30.06.2022 12:20 27,8 C 34,2 C 60 % 1012,7 hPa 0,0 l/m 1,9 km/h (1 Bft) O-SO 119 1 min 3,0 UV-I 842 W/m 19,3 C 5,0 km/h (1 Bft)
30.06.2022 12:19 27,8 C 33,8 C 60 % 1013,1 hPa 0,0 l/m 1,4 km/h (1 Bft) O-SO 119 1 min 3,0 UV-I 822 W/m 19,3 C 5,0 km/h (1 Bft)
30.06.2022 12:18 27,7 C 34,1 C 60 % 1012,9 hPa 0,0 l/m 1,0 km/h (0 Bft) O-SO 113 1 min 4,0 UV-I 866 W/m 19,2 C 5,0 km/h (1 Bft)
30.06.2022 12:17 27,6 C 33,6 C 60 % 1012,7 hPa 0,0 l/m 2,9 km/h (1 Bft) NO 50 1 min 4,0 UV-I 878 W/m 19,1 C 9,0 km/h (2 Bft)
30.06.2022 12:16 27,5 C 31,9 C 59 % 1012,9 hPa 0,0 l/m 6,0 km/h (2 Bft) N-NW 335 1 min 4,0 UV-I 872 W/m 18,8 C 9,0 km/h (2 Bft)
30.06.2022 12:15 27,5 C 32,0 C 59 % 1012,9 hPa 0,0 l/m 6,0 km/h (2 Bft) N 5 1 min 4,0 UV-I 866 W/m 18,8 C 8,0 km/h (2 Bft)
30.06.2022 12:14 27,4 C 31,8 C 59 % 1013,0 hPa 0,0 l/m 2,3 km/h (1 Bft) N-NW 337 1 min 4,0 UV-I 871 W/m 18,7 C 6,0 km/h (2 Bft)
30.06.2022 12:13 27,4 C 32,4 C 60 % 1013,1 hPa 0,0 l/m 4,1 km/h (1 Bft) SO 128 1 min 4,0 UV-I 883 W/m 18,9 C 12,0 km/h (2 Bft)
30.06.2022 12:12 27,3 C 32,2 C 60 % 1012,9 hPa 0,0 l/m 2,7 km/h (1 Bft) SO 132 1 min 4,0 UV-I 895 W/m 18,8 C 12,0 km/h (2 Bft)
30.06.2022 12:11 27,2 C 31,7 C 61 % 1013,1 hPa 0,0 l/m 5,1 km/h (1 Bft) O 96 1 min 4,0 UV-I 890 W/m 19,0 C 12,0 km/h (2 Bft)
30.06.2022 12:10 27,2 C 32,3 C 61 % 1012,8 hPa 0,0 l/m 1,4 km/h (1 Bft) N-NO 17 1 min 4,0 UV-I 880 W/m 19,0 C 9,0 km/h (2 Bft)
30.06.2022 12:09 27,1 C 31,5 C 61 % 1012,9 hPa 0,0 l/m 5,4 km/h (1 Bft) O-SO 120 1 min 4,0 UV-I 880 W/m 18,9 C 12,0 km/h (2 Bft)
30.06.2022 12:08 27,0 C 31,8 C 61 % 1012,9 hPa 0,0 l/m 7,7 km/h (2 Bft) SO 142 1 min 4,0 UV-I 877 W/m 18,8 C 12,0 km/h (2 Bft)
30.06.2022 12:07 27,0 C 31,4 C 61 % 1013,0 hPa 0,0 l/m 6,2 km/h (2 Bft) S-SO 150 1 min 4,0 UV-I 877 W/m 18,8 C 12,0 km/h (2 Bft)
30.06.2022 12:06 26,9 C 30,2 C 61 % 1012,8 hPa 0,0 l/m 4,7 km/h (1 Bft) SO 126 1 min 4,0 UV-I 894 W/m 18,7 C 10,0 km/h (2 Bft)
30.06.2022 12:05 26,9 C 28,8 C 61 % 1012,9 hPa 0,0 l/m 4,0 km/h (1 Bft) S-SO 150 1 min 4,0 UV-I 916 W/m 18,7 C 5,0 km/h (1 Bft)
30.06.2022 12:04 26,8 C 28,8 C 61 % 1013,0 hPa 0,0 l/m 2,8 km/h (1 Bft) NO 53 1 min 4,0 UV-I 919 W/m 18,6 C 9,0 km/h (2 Bft)
30.06.2022 12:03 26,8 C 28,3 C 61 % 1013,1 hPa 0,0 l/m 3,5 km/h (1 Bft) W 261 1 min 2,0 UV-I 441 W/m 18,6 C 9,0 km/h (2 Bft)
30.06.2022 12:02 26,8 C 29,3 C 62 % 1013,0 hPa 0,0 l/m 5,6 km/h (1 Bft) SO 137 1 min 2,0 UV-I 631 W/m 18,9 C 11,0 km/h (2 Bft)
30.06.2022 12:01 26,7 C 29,6 C 62 % 1013,2 hPa 0,0 l/m 7,8 km/h (2 Bft) O-SO 122 1 min 4,0 UV-I 890 W/m 18,8 C 11,0 km/h (2 Bft)
30.06.2022 12:00 26,7 C 29,4 C 63 % 1013,0 hPa 0,0 l/m 6,8 km/h (2 Bft) SO 129 1 min 4,0 UV-I 895 W/m 19,1 C 11,0 km/h (2 Bft)
30.06.2022 11:59 26,6 C 28,7 C 63 % 1013,0 hPa 0,0 l/m 4,9 km/h (1 Bft) S-SO 157 1 min 4,0 UV-I 890 W/m 19,0 C 7,0 km/h (2 Bft)
30.06.2022 11:58 26,6 C 27,5 C 62 % 1013,0 hPa 0,0 l/m 3,6 km/h (1 Bft) S 186 1 min 4,0 UV-I 886 W/m 18,7 C 6,0 km/h (2 Bft)
30.06.2022 11:57 26,7 C 26,5 C 62 % 1013,0 hPa 0,0 l/m 3,3 km/h (1 Bft) S-SO 159 1 min 4,0 UV-I 878 W/m 18,8 C 6,0 km/h (2 Bft)
30.06.2022 11:56 26,8 C 25,1 C 62 % 1013,1 hPa 0,0 l/m 1,6 km/h (1 Bft) N 0 1 min 3,0 UV-I 819 W/m 18,9 C 6,0 km/h (2 Bft)
30.06.2022 11:55 26,8 C 25,4 C 62 % 1013,1 hPa 0,0 l/m 1,0 km/h (0 Bft) S 180 0 min 0,0 UV-I 163 W/m 18,9 C 6,0 km/h (2 Bft)
30.06.2022 11:54 26,9 C 25,6 C 62 % 1013,1 hPa 0,0 l/m 3,8 km/h (1 Bft) SO 146 0 min 0,0 UV-I 143 W/m 19,0 C 9,0 km/h (2 Bft)
30.06.2022 11:53 26,9 C 26,0 C 62 % 1013,0 hPa 0,0 l/m 2,5 km/h (1 Bft) O-SO 115 0 min 0,0 UV-I 133 W/m 19,0 C 9,0 km/h (2 Bft)
30.06.2022 11:52 26,9 C 26,5 C 63 % 1013,0 hPa 0,0 l/m 4,2 km/h (1 Bft) W-SW 255 0 min 0,0 UV-I 137 W/m 19,2 C 9,0 km/h (2 Bft)
30.06.2022 11:51 26,9 C 27,0 C 63 % 1013,1 hPa 0,0 l/m 3,1 km/h (1 Bft) S-SW 193 0 min 0,0 UV-I 154 W/m 19,2 C 9,0 km/h (2 Bft)
30.06.2022 11:50 26,9 C 27,8 C 63 % 1013,1 hPa 0,0 l/m 6,4 km/h (2 Bft) S-SO 149 0 min 1,0 UV-I 305 W/m 19,2 C 14,0 km/h (3 Bft)
30.06.2022 11:49 26,8 C 28,4 C 64 % 1012,9 hPa 0,0 l/m 8,2 km/h (2 Bft) SO 144 1 min 2,0 UV-I 607 W/m 19,4 C 14,0 km/h (3 Bft)
30.06.2022 11:48 26,8 C 28,5 C 64 % 1013,1 hPa 0,0 l/m 6,1 km/h (2 Bft) SW 234 1 min 2,0 UV-I 555 W/m 19,4 C 11,0 km/h (2 Bft)
30.06.2022 11:47 26,8 C 28,1 C 64 % 1013,1 hPa 0,0 l/m 5,7 km/h (1 Bft) SW 235 1 min 3,0 UV-I 677 W/m 19,4 C 11,0 km/h (2 Bft)
30.06.2022 11:46 26,8 C 27,7 C 63 % 1013,0 hPa 0,0 l/m 7,6 km/h (2 Bft) W-SW 242 1 min 3,0 UV-I 842 W/m 19,1 C 11,0 km/h (2 Bft)
30.06.2022 11:45 26,8 C 26,8 C 63 % 1013,0 hPa 0,0 l/m 6,2 km/h (2 Bft) SO 127 1 min 4,0 UV-I 882 W/m 19,1 C 9,0 km/h (2 Bft)
30.06.2022 11:44 26,7 C 26,8 C 62 % 1013,0 hPa 0,0 l/m 3,6 km/h (1 Bft) S 187 1 min 3,0 UV-I 757 W/m 18,8 C 9,0 km/h (2 Bft)
30.06.2022 11:43 26,7 C 26,6 C 63 % 1013,2 hPa 0,0 l/m 1,6 km/h (1 Bft) S-SW 203 0 min 1,0 UV-I 329 W/m 19,1 C 9,0 km/h (2 Bft)
30.06.2022 11:42 26,7 C 26,6 C 63 % 1013,2 hPa 0,0 l/m 1,9 km/h (1 Bft) N 0 0 min 1,0 UV-I 354 W/m 19,1 C 8,0 km/h (2 Bft)
30.06.2022 11:41 26,6 C 27,0 C 63 % 1013,0 hPa 0,0 l/m 3,0 km/h (1 Bft) O-NO 77 1 min 4,0 UV-I 893 W/m 19,0 C 9,0 km/h (2 Bft)
30.06.2022 11:40 26,6 C 27,6 C 64 % 1013,0 hPa 0,0 l/m 2,7 km/h (1 Bft) O-SO 114 1 min 4,0 UV-I 893 W/m 19,2 C 9,0 km/h (2 Bft)
30.06.2022 11:39 26,5 C 27,7 C 65 % 1013,1 hPa 0,0 l/m 4,7 km/h (1 Bft) S-SO 164 1 min 4,0 UV-I 886 W/m 19,4 C 9,0 km/h (2 Bft)
30.06.2022 11:38 26,5 C 27,7 C 65 % 1013,0 hPa 0,0 l/m 4,4 km/h (1 Bft) O 100 1 min 4,0 UV-I 878 W/m 19,4 C 9,0 km/h (2 Bft)
30.06.2022 11:37 26,4 C 26,9 C 65 % 1013,1 hPa 0,0 l/m 5,3 km/h (1 Bft) N 350 1 min 4,0 UV-I 872 W/m 19,3 C 9,0 km/h (2 Bft)
30.06.2022 11:36 26,4 C 27,0 C 65 % 1012,9 hPa 0,0 l/m 3,0 km/h (1 Bft) N-NO 15 1 min 4,0 UV-I 873 W/m 19,3 C 6,0 km/h (2 Bft)
30.06.2022 11:35 26,4 C 26,9 C 64 % 1013,1 hPa 0,0 l/m 2,3 km/h (1 Bft) N-NO 24 1 min 4,0 UV-I 875 W/m 19,0 C 5,0 km/h (1 Bft)
30.06.2022 11:34 26,4 C 27,7 C 65 % 1013,0 hPa 0,0 l/m 0,7 km/h (0 Bft) SO 128 1 min 4,0 UV-I 878 W/m 19,3 C 8,0 km/h (2 Bft)
30.06.2022 11:33 26,3 C 28,5 C 65 % 1013,1 hPa 0,0 l/m 5,7 km/h (1 Bft) SO 137 1 min 4,0 UV-I 872 W/m 19,2 C 8,0 km/h (2 Bft)
30.06.2022 11:32 26,3 C 28,9 C 65 % 1013,0 hPa 0,0 l/m 3,6 km/h (1 Bft) S-SO 158 1 min 4,0 UV-I 872 W/m 19,2 C 8,0 km/h (2 Bft)
30.06.2022 11:31 26,3 C 29,1 C 65 % 1013,0 hPa 0,0 l/m 6,1 km/h (2 Bft) SO 128 1 min 4,0 UV-I 872 W/m 19,2 C 11,0 km/h (2 Bft)
30.06.2022 11:30 26,2 C 29,7 C 66 % 1013,1 hPa 0,0 l/m 4,4 km/h (1 Bft) SO 133 1 min 4,0 UV-I 866 W/m 19,3 C 11,0 km/h (2 Bft)
30.06.2022 11:29 26,2 C 29,7 C 66 % 1013,0 hPa 0,0 l/m 4,3 km/h (1 Bft) SO 137 1 min 4,0 UV-I 864 W/m 19,3 C 11,0 km/h (2 Bft)
30.06.2022 11:28 26,1 C 29,9 C 65 % 1013,1 hPa 0,0 l/m 2,0 km/h (1 Bft) O-NO 63 1 min 4,0 UV-I 867 W/m 19,0 C 6,0 km/h (2 Bft)
30.06.2022 11:27 26,1 C 30,1 C 65 % 1013,0 hPa 0,0 l/m 4,1 km/h (1 Bft) N 0 1 min 3,0 UV-I 861 W/m 19,0 C 12,0 km/h (2 Bft)
30.06.2022 11:26 26,1 C 29,7 C 66 % 1013,0 hPa 0,0 l/m 6,0 km/h (2 Bft) S-SO 151 1 min 4,0 UV-I 868 W/m 19,2 C 12,0 km/h (2 Bft)
30.06.2022 11:25 26,1 C 28,9 C 66 % 1013,1 hPa 0,0 l/m 4,8 km/h (1 Bft) W-SW 244 1 min 4,0 UV-I 883 W/m 19,2 C 12,0 km/h (2 Bft)
30.06.2022 11:24 26,0 C 27,9 C 66 % 1013,0 hPa 0,0 l/m 5,1 km/h (1 Bft) S-SW 209 1 min 4,0 UV-I 871 W/m 19,1 C 11,0 km/h (2 Bft)
30.06.2022 11:23 26,0 C 27,9 C 66 % 1013,3 hPa 0,0 l/m 4,8 km/h (1 Bft) SW 230 1 min 3,0 UV-I 852 W/m 19,1 C 11,0 km/h (2 Bft)
30.06.2022 11:22 26,0 C 27,7 C 66 % 1013,2 hPa 0,0 l/m 5,2 km/h (1 Bft) W-SW 245 1 min 3,0 UV-I 855 W/m 19,1 C 7,0 km/h (2 Bft)
30.06.2022 11:21 26,0 C 27,3 C 66 % 1013,2 hPa 0,0 l/m 5,1 km/h (1 Bft) S-SW 206 1 min 3,0 UV-I 856 W/m 19,1 C 12,0 km/h (2 Bft)
30.06.2022 11:20 25,9 C 27,1 C 66 % 1013,2 hPa 0,0 l/m 2,5 km/h (1 Bft) S-SW 210 1 min 3,0 UV-I 831 W/m 19,0 C 12,0 km/h (2 Bft)
30.06.2022 11:19 25,9 C 26,6 C 66 % 1013,1 hPa 0,0 l/m 4,5 km/h (1 Bft) S 179 1 min 3,0 UV-I 817 W/m 19,0 C 12,0 km/h (2 Bft)
30.06.2022 11:18 25,9 C 26,5 C 67 % 1013,0 hPa 0,0 l/m 2,2 km/h (1 Bft) W-SW 241 1 min 3,0 UV-I 835 W/m 19,3 C 8,0 km/h (2 Bft)
30.06.2022 11:17 25,8 C 26,8 C 67 % 1013,2 hPa 0,0 l/m 6,3 km/h (2 Bft) S-SO 162 1 min 3,0 UV-I 851 W/m 19,2 C 13,0 km/h (3 Bft)
30.06.2022 11:16 25,8 C 26,8 C 68 % 1013,2 hPa 0,0 l/m 9,3 km/h (2 Bft) S-SO 166 1 min 4,0 UV-I 866 W/m 19,4 C 13,0 km/h (3 Bft)
30.06.2022 11:15 25,8 C 26,8 C 68 % 1013,2 hPa 0,0 l/m 5,7 km/h (1 Bft) S-SO 157 1 min 4,0 UV-I 868 W/m 19,4 C 9,0 km/h (2 Bft)
30.06.2022 11:14 25,7 C 27,1 C 68 % 1013,1 hPa 0,0 l/m 5,6 km/h (1 Bft) S-SO 159 1 min 3,0 UV-I 857 W/m 19,3 C 10,0 km/h (2 Bft)
30.06.2022 11:13 25,7 C 26,9 C 68 % 1013,3 hPa 0,0 l/m 5,1 km/h (1 Bft) SW 225 1 min 3,0 UV-I 845 W/m 19,3 C 10,0 km/h (2 Bft)
30.06.2022 11:12 25,6 C 26,3 C 68 % 1013,2 hPa 0,0 l/m 5,9 km/h (2 Bft) W-SW 241 1 min 3,0 UV-I 847 W/m 19,2 C 10,0 km/h (2 Bft)
30.06.2022 11:11 25,6 C 25,7 C 68 % 1013,2 hPa 0,0 l/m 3,8 km/h (1 Bft) SW 219 1 min 3,0 UV-I 862 W/m 19,2 C 8,0 km/h (2 Bft)
30.06.2022 11:10 25,6 C 26,4 C 68 % 1013,2 hPa 0,0 l/m 4,5 km/h (1 Bft) NW 313 1 min 3,0 UV-I 859 W/m 19,2 C 8,0 km/h (2 Bft)
30.06.2022 11:09 25,6 C 26,6 C 68 % 1013,5 hPa 0,0 l/m 4,1 km/h (1 Bft) S-SW 194 1 min 3,0 UV-I 834 W/m 19,2 C 8,0 km/h (2 Bft)
30.06.2022 11:08 25,5 C 25,9 C 68 % 1013,3 hPa 0,0 l/m 4,2 km/h (1 Bft) S 179 1 min 3,0 UV-I 809 W/m 19,1 C 8,0 km/h (2 Bft)
30.06.2022 11:07 25,5 C 26,5 C 69 % 1013,2 hPa 0,0 l/m 3,2 km/h (1 Bft) SO 132 1 min 3,0 UV-I 811 W/m 19,4 C 6,0 km/h (2 Bft)
30.06.2022 11:06 25,4 C 26,5 C 69 % 1013,4 hPa 0,0 l/m 6,4 km/h (2 Bft) SO 124 1 min 3,0 UV-I 812 W/m 19,3 C 10,0 km/h (2 Bft)
30.06.2022 11:05 25,4 C 26,0 C 69 % 1013,1 hPa 0,0 l/m 5,5 km/h (1 Bft) S 180 1 min 3,0 UV-I 818 W/m 19,3 C 10,0 km/h (2 Bft)
30.06.2022 11:04 25,3 C 26,2 C 69 % 1013,2 hPa 0,0 l/m 8,3 km/h (2 Bft) S-SW 213 1 min 3,0 UV-I 824 W/m 19,2 C 10,0 km/h (2 Bft)
30.06.2022 11:03 25,3 C 26,4 C 70 % 1013,2 hPa 0,0 l/m 5,7 km/h (1 Bft) SO 130 1 min 3,0 UV-I 826 W/m 19,4 C 9,0 km/h (2 Bft)
30.06.2022 11:02 25,2 C 26,4 C 71 % 1013,2 hPa 0,0 l/m 4,8 km/h (1 Bft) O-SO 119 1 min 3,0 UV-I 820 W/m 19,6 C 8,0 km/h (2 Bft)
30.06.2022 11:01 25,1 C 26,4 C 70 % 1013,2 hPa 0,0 l/m 2,0 km/h (1 Bft) S-SW 206 1 min 3,0 UV-I 802 W/m 19,2 C 8,0 km/h (2 Bft)
30.06.2022 11:00 25,1 C 25,7 C 70 % 1013,2 hPa 0,0 l/m 2,1 km/h (1 Bft) N 0 1 min 3,0 UV-I 790 W/m 19,2 C 6,0 km/h (2 Bft)
30.06.2022 10:59 25,1 C 25,4 C 70 % 1013,3 hPa 0,0 l/m 3,1 km/h (1 Bft) NW 304 1 min 3,0 UV-I 784 W/m 19,2 C 8,0 km/h (2 Bft)
30.06.2022 10:58 25,0 C 26,0 C 70 % 1013,3 hPa 0,0 l/m 2,3 km/h (1 Bft) N-NO 23 1 min 3,0 UV-I 776 W/m 19,1 C 8,0 km/h (2 Bft)
30.06.2022 10:57 25,0 C 25,9 C 70 % 1013,5 hPa 0,0 l/m 2,6 km/h (1 Bft) W-NW 295 1 min 3,0 UV-I 771 W/m 19,1 C 8,0 km/h (2 Bft)
30.06.2022 10:56 24,9 C 25,6 C 70 % 1013,2 hPa 0,0 l/m 4,8 km/h (1 Bft) W-SW 251 1 min 3,0 UV-I 768 W/m 19,0 C 8,0 km/h (2 Bft)
30.06.2022 10:55 24,9 C 25,7 C 71 % 1013,2 hPa 0,0 l/m 3,1 km/h (1 Bft) W-SW 249 1 min 3,0 UV-I 775 W/m 19,3 C 6,0 km/h (2 Bft)
30.06.2022 10:54 24,8 C 25,4 C 71 % 1013,3 hPa 0,0 l/m 0,9 km/h (0 Bft) N 0 1 min 3,0 UV-I 779 W/m 19,2 C 3,0 km/h (1 Bft)
30.06.2022 10:53 24,7 C 25,5 C 72 % 1013,3 hPa 0,0 l/m 0,7 km/h (0 Bft) N 0 1 min 3,0 UV-I 786 W/m 19,3 C 3,0 km/h (1 Bft)
30.06.2022 10:52 24,7 C 25,6 C 72 % 1013,2 hPa 0,0 l/m 0,0 km/h (0 Bft) N 0 1 min 3,0 UV-I 781 W/m 19,3 C 3,0 km/h (1 Bft)
30.06.2022 10:51 24,6 C 25,4 C 72 % 1013,3 hPa 0,0 l/m 1,2 km/h (1 Bft) N 0 1 min 3,0 UV-I 778 W/m 19,2 C 5,0 km/h (1 Bft)
30.06.2022 10:50 24,5 C 25,3 C 72 % 1013,3 hPa 0,0 l/m 2,0 km/h (1 Bft) N 0 1 min 3,0 UV-I 762 W/m 19,1 C 6,0 km/h (2 Bft)
30.06.2022 10:49 24,4 C 25,2 C 72 % 1013,1 hPa 0,0 l/m 3,6 km/h (1 Bft) N-NO 26 1 min 3,0 UV-I 743 W/m 19,0 C 6,0 km/h (2 Bft)
30.06.2022 10:48 24,4 C 25,2 C 72 % 1013,3 hPa 0,0 l/m 2,3 km/h (1 Bft) N-NO 18 1 min 3,0 UV-I 743 W/m 19,0 C 4,0 km/h (1 Bft)
30.06.2022 10:47 24,3 C 24,9 C 72 % 1013,3 hPa 0,0 l/m 2,2 km/h (1 Bft) N 4 1 min 3,0 UV-I 765 W/m 18,9 C 6,0 km/h (2 Bft)
30.06.2022 10:46 24,3 C 25,0 C 72 % 1013,1 hPa 0,0 l/m 1,3 km/h (1 Bft) N 4 1 min 3,0 UV-I 765 W/m 18,9 C 6,0 km/h (2 Bft)
30.06.2022 10:45 24,3 C 25,1 C 72 % 1013,3 hPa 0,0 l/m 4,5 km/h (1 Bft) S 170 1 min 3,0 UV-I 760 W/m 18,9 C 10,0 km/h (2 Bft)
30.06.2022 10:44 24,3 C 24,9 C 72 % 1013,2 hPa 0,0 l/m 6,7 km/h (2 Bft) S-SO 159 1 min 3,0 UV-I 754 W/m 18,9 C 10,0 km/h (2 Bft)
30.06.2022 10:43 24,2 C 24,8 C 72 % 1013,4 hPa 0,0 l/m 3,9 km/h (1 Bft) S 175 1 min 3,0 UV-I 758 W/m 18,8 C 7,0 km/h (2 Bft)
30.06.2022 10:42 24,1 C 24,8 C 72 % 1013,2 hPa 0,0 l/m 4,2 km/h (1 Bft) S-SO 153 1 min 3,0 UV-I 758 W/m 18,7 C 8,0 km/h (2 Bft)
30.06.2022 10:41 24,1 C 24,8 C 72 % 1013,2 hPa 0,0 l/m 4,2 km/h (1 Bft) SO 142 1 min 3,0 UV-I 758 W/m 18,7 C 8,0 km/h (2 Bft)
30.06.2022 10:40 24,1 C 24,8 C 72 % 1013,2 hPa 0,0 l/m 2,0 km/h (1 Bft) N 0 1 min 3,0 UV-I 749 W/m 18,7 C 6,0 km/h (2 Bft)
30.06.2022 10:39 24,1 C 24,6 C 72 % 1013,4 hPa 0,0 l/m 2,3 km/h (1 Bft) SW 233 1 min 3,0 UV-I 732 W/m 18,7 C 6,0 km/h (2 Bft)
30.06.2022 10:38 24,0 C 24,5 C 72 % 1013,4 hPa 0,0 l/m 3,9 km/h (1 Bft) W-SW 238 1 min 3,0 UV-I 724 W/m 18,6 C 6,0 km/h (2 Bft)
30.06.2022 10:37 24,0 C 24,6 C 72 % 1013,5 hPa 0,0 l/m 2,8 km/h (1 Bft) S-SO 168 1 min 3,0 UV-I 718 W/m 18,6 C 8,0 km/h (2 Bft)
30.06.2022 10:36 23,9 C 24,6 C 73 % 1013,6 hPa 0,0 l/m 4,7 km/h (1 Bft) S 170 1 min 3,0 UV-I 716 W/m 18,8 C 8,0 km/h (2 Bft)
30.06.2022 10:35 23,9 C 24,7 C 73 % 1013,5 hPa 0,0 l/m 4,5 km/h (1 Bft) SO 143 1 min 3,0 UV-I 721 W/m 18,8 C 9,0 km/h (2 Bft)
30.06.2022 10:34 23,8 C 24,5 C 73 % 1013,5 hPa 0,0 l/m 4,2 km/h (1 Bft) SO 141 1 min 3,0 UV-I 729 W/m 18,7 C 9,0 km/h (2 Bft)
30.06.2022 10:33 23,8 C 24,5 C 73 % 1013,4 hPa 0,0 l/m 4,1 km/h (1 Bft) SO 146 1 min 3,0 UV-I 724 W/m 18,7 C 9,0 km/h (2 Bft)
30.06.2022 10:32 23,7 C 24,7 C 73 % 1013,4 hPa 0,0 l/m 4,5 km/h (1 Bft) S-SO 156 1 min 3,0 UV-I 718 W/m 18,6 C 9,0 km/h (2 Bft)
30.06.2022 10:31 23,7 C 24,5 C 74 % 1013,4 hPa 0,0 l/m 3,9 km/h (1 Bft) SW 233 1 min 3,0 UV-I 713 W/m 18,8 C 9,0 km/h (2 Bft)
30.06.2022 10:30 23,6 C 24,4 C 74 % 1013,4 hPa 0,0 l/m 1,0 km/h (0 Bft) S-SW 193 1 min 3,0 UV-I 712 W/m 18,7 C 5,0 km/h (1 Bft)
30.06.2022 10:29 23,6 C 24,0 C 74 % 1013,2 hPa 0,0 l/m 1,6 km/h (1 Bft) S-SO 154 1 min 3,0 UV-I 707 W/m 18,7 C 5,0 km/h (1 Bft)
30.06.2022 10:28 23,6 C 23,8 C 74 % 1013,4 hPa 0,0 l/m 2,5 km/h (1 Bft) N 10 1 min 3,0 UV-I 707 W/m 18,7 C 4,0 km/h (1 Bft)
30.06.2022 10:27 23,6 C 23,8 C 74 % 1013,5 hPa 0,0 l/m 2,5 km/h (1 Bft) N-NO 16 1 min 3,0 UV-I 702 W/m 18,7 C 5,0 km/h (1 Bft)
30.06.2022 10:26 23,5 C 23,8 C 74 % 1013,4 hPa 0,0 l/m 2,4 km/h (1 Bft) S-SW 208 1 min 3,0 UV-I 680 W/m 18,6 C 5,0 km/h (1 Bft)
30.06.2022 10:25 23,5 C 23,6 C 74 % 1013,4 hPa 0,0 l/m 3,0 km/h (1 Bft) SW 215 1 min 3,0 UV-I 674 W/m 18,6 C 5,0 km/h (1 Bft)
30.06.2022 10:24 23,5 C 23,8 C 74 % 1013,3 hPa 0,0 l/m 4,1 km/h (1 Bft) O-NO 71 1 min 3,0 UV-I 685 W/m 18,6 C 11,0 km/h (2 Bft)
30.06.2022 10:23 23,4 C 24,1 C 75 % 1013,3 hPa 0,0 l/m 2,9 km/h (1 Bft) O 80 1 min 3,0 UV-I 685 W/m 18,7 C 11,0 km/h (2 Bft)
30.06.2022 10:22 23,4 C 24,4 C 75 % 1013,6 hPa 0,0 l/m 7,1 km/h (2 Bft) SO 135 1 min 3,0 UV-I 689 W/m 18,7 C 11,0 km/h (2 Bft)
30.06.2022 10:21 23,3 C 24,4 C 75 % 1013,4 hPa 0,0 l/m 3,1 km/h (1 Bft) SO 133 1 min 3,0 UV-I 692 W/m 18,6 C 11,0 km/h (2 Bft)
30.06.2022 10:20 23,3 C 24,3 C 75 % 1013,5 hPa 0,0 l/m 2,7 km/h (1 Bft) SO 133 1 min 3,0 UV-I 682 W/m 18,6 C 10,0 km/h (2 Bft)
30.06.2022 10:19 23,2 C 24,0 C 75 % 1013,4 hPa 0,0 l/m 4,6 km/h (1 Bft) S-SO 155 1 min 3,0 UV-I 674 W/m 18,5 C 10,0 km/h (2 Bft)
30.06.2022 10:18 23,2 C 23,7 C 74 % 1013,4 hPa 0,0 l/m 2,8 km/h (1 Bft) O 79 1 min 3,0 UV-I 670 W/m 18,3 C 8,0 km/h (2 Bft)
30.06.2022 10:17 23,2 C 24,1 C 75 % 1013,2 hPa 0,0 l/m 1,9 km/h (1 Bft) O 94 1 min 3,0 UV-I 663 W/m 18,5 C 5,0 km/h (1 Bft)
30.06.2022 10:16 23,1 C 23,3 C 75 % 1013,5 hPa 0,0 l/m 2,3 km/h (1 Bft) NO 48 1 min 3,0 UV-I 661 W/m 18,4 C 5,0 km/h (1 Bft)
30.06.2022 10:15 23,1 C 23,7 C 75 % 1013,5 hPa 0,0 l/m 3,9 km/h (1 Bft) N 0 1 min 3,0 UV-I 665 W/m 18,4 C 12,0 km/h (2 Bft)
30.06.2022 10:14 23,0 C 23,8 C 76 % 1013,4 hPa 0,0 l/m 5,8 km/h (2 Bft) SO 143 1 min 3,0 UV-I 663 W/m 18,5 C 12,0 km/h (2 Bft)
30.06.2022 10:13 22,9 C 24,2 C 76 % 1013,5 hPa 0,0 l/m 3,0 km/h (1 Bft) O-SO 104 1 min 3,0 UV-I 663 W/m 18,4 C 5,0 km/h (1 Bft)
30.06.2022 10:12 22,9 C 23,9 C 76 % 1013,4 hPa 0,0 l/m 1,6 km/h (1 Bft) W-SW 245 1 min 3,0 UV-I 659 W/m 18,4 C 5,0 km/h (1 Bft)
30.06.2022 10:11 22,8 C 23,9 C 76 % 1013,2 hPa 0,0 l/m 2,3 km/h (1 Bft) W-SW 240 1 min 3,0 UV-I 656 W/m 18,3 C 7,0 km/h (2 Bft)
30.06.2022 10:10 22,8 C 23,8 C 76 % 1013,3 hPa 0,0 l/m 2,5 km/h (1 Bft) SO 139 1 min 3,0 UV-I 648 W/m 18,3 C 8,0 km/h (2 Bft)
30.06.2022 10:09 22,7 C 23,4 C 76 % 1013,4 hPa 0,0 l/m 4,6 km/h (1 Bft) O-SO 118 1 min 2,0 UV-I 643 W/m 18,2 C 8,0 km/h (2 Bft)
30.06.2022 10:08 22,7 C 23,2 C 76 % 1013,4 hPa 0,0 l/m 1,4 km/h (1 Bft) SO 136 1 min 2,0 UV-I 641 W/m 18,2 C 7,0 km/h (2 Bft)
30.06.2022 10:07 22,6 C 23,1 C 76 % 1013,3 hPa 0,0 l/m 3,6 km/h (1 Bft) S-SW 210 1 min 2,0 UV-I 634 W/m 18,1 C 8,0 km/h (2 Bft)
30.06.2022 10:06 22,6 C 23,0 C 76 % 1013,5 hPa 0,0 l/m 4,9 km/h (1 Bft) SO 126 1 min 2,0 UV-I 631 W/m 18,1 C 8,0 km/h (2 Bft)
30.06.2022 10:05 22,6 C 22,7 C 76 % 1013,3 hPa 0,0 l/m 1,8 km/h (1 Bft) N 0 1 min 2,0 UV-I 636 W/m 18,1 C 5,0 km/h (1 Bft)
30.06.2022 10:04 22,6 C 23,0 C 76 % 1013,5 hPa 0,0 l/m 3,1 km/h (1 Bft) N-NW 347 1 min 2,0 UV-I 627 W/m 18,1 C 7,0 km/h (2 Bft)
30.06.2022 10:03 22,5 C 22,9 C 76 % 1013,5 hPa 0,0 l/m 3,6 km/h (1 Bft) N-NW 340 1 min 2,0 UV-I 616 W/m 18,0 C 7,0 km/h (2 Bft)
30.06.2022 10:02 22,5 C 22,8 C 76 % 1013,5 hPa 0,0 l/m 3,3 km/h (1 Bft) N-NW 343 1 min 2,0 UV-I 612 W/m 18,0 C 7,0 km/h (2 Bft)
30.06.2022 10:01 22,5 C 23,1 C 76 % 1013,3 hPa 0,0 l/m 0,0 km/h (0 Bft) N 0 1 min 2,0 UV-I 611 W/m 18,0 C 3,0 km/h (1 Bft)
30.06.2022 10:00 22,5 C 23,1 C 77 % 1013,1 hPa 0,0 l/m 0,0 km/h (0 Bft) N 0 1 min 2,0 UV-I 605 W/m 18,3 C 5,0 km/h (1 Bft)
30.06.2022 09:59 22,4 C 22,9 C 77 % 1013,4 hPa 0,0 l/m 1,9 km/h (1 Bft) S-SO 155 1 min 2,0 UV-I 599 W/m 18,2 C 5,0 km/h (1 Bft)
30.06.2022 09:58 22,4 C 23,0 C 77 % 1013,3 hPa 0,0 l/m 1,6 km/h (1 Bft) N 0 1 min 2,0 UV-I 594 W/m 18,2 C 5,0 km/h (1 Bft)
30.06.2022 09:57 22,3 C 23,0 C 77 % 1013,2 hPa 0,0 l/m 1,7 km/h (1 Bft) NO 34 1 min 2,0 UV-I 592 W/m 18,1 C 5,0 km/h (1 Bft)
30.06.2022 09:56 22,3 C 23,2 C 77 % 1013,3 hPa 0,0 l/m 0,0 km/h (0 Bft) N 0 1 min 2,0 UV-I 598 W/m 18,1 C 5,0 km/h (1 Bft)
30.06.2022 09:55 22,3 C 23,2 C 78 % 1013,3 hPa 0,0 l/m 0,8 km/h (0 Bft) N 0 1 min 2,0 UV-I 605 W/m 18,3 C 3,0 km/h (1 Bft)
30.06.2022 09:54 22,2 C 23,2 C 78 % 1013,3 hPa 0,0 l/m 1,1 km/h (1 Bft) N 0 1 min 2,0 UV-I 598 W/m 18,2 C 3,0 km/h (1 Bft)
30.06.2022 09:53 22,2 C 23,3 C 78 % 1013,3 hPa 0,0 l/m 2,4 km/h (1 Bft) W 266 1 min 2,0 UV-I 582 W/m 18,2 C 8,0 km/h (2 Bft)
30.06.2022 09:52 22,1 C 23,2 C 78 % 1013,4 hPa 0,0 l/m 0,0 km/h (0 Bft) N 0 1 min 2,0 UV-I 573 W/m 18,1 C 8,0 km/h (2 Bft)
30.06.2022 09:51 22,0 C 23,0 C 78 % 1013,3 hPa 0,0 l/m 3,1 km/h (1 Bft) NO 37 1 min 2,0 UV-I 565 W/m 18,0 C 8,0 km/h (2 Bft)
30.06.2022 09:50 22,0 C 22,8 C 78 % 1013,3 hPa 0,0 l/m 1,9 km/h (1 Bft) NO 44 1 min 2,0 UV-I 559 W/m 18,0 C 3,0 km/h (1 Bft)
30.06.2022 09:49 21,9 C 22,6 C 78 % 1013,2 hPa 0,0 l/m 1,2 km/h (1 Bft) N 0 1 min 2,0 UV-I 554 W/m 17,9 C 5,0 km/h (1 Bft)
30.06.2022 09:48 21,9 C 22,6 C 78 % 1013,3 hPa 0,0 l/m 0,0 km/h (0 Bft) N 0 1 min 2,0 UV-I 541 W/m 17,9 C 5,0 km/h (1 Bft)
30.06.2022 09:47 21,8 C 22,6 C 78 % 1013,4 hPa 0,0 l/m 1,0 km/h (0 Bft) S-SO 160 1 min 2,0 UV-I 526 W/m 17,8 C 6,0 km/h (2 Bft)
30.06.2022 09:46 21,8 C 22,5 C 78 % 1013,4 hPa 0,0 l/m 4,2 km/h (1 Bft) S-SW 193 1 min 2,0 UV-I 519 W/m 17,8 C 6,0 km/h (2 Bft)
30.06.2022 09:45 21,7 C 22,5 C 79 % 1013,5 hPa 0,0 l/m 0,0 km/h (0 Bft) N 0 1 min 2,0 UV-I 526 W/m 17,9 C 4,0 km/h (1 Bft)
30.06.2022 09:44 21,7 C 22,4 C 79 % 1013,4 hPa 0,0 l/m 1,3 km/h (1 Bft) N 0 1 min 2,0 UV-I 519 W/m 17,9 C 4,0 km/h (1 Bft)
30.06.2022 09:43 21,6 C 22,4 C 79 % 1013,4 hPa 0,0 l/m 1,5 km/h (1 Bft) O-SO 106 1 min 2,0 UV-I 517 W/m 17,8 C 4,0 km/h (1 Bft)
30.06.2022 09:42 21,6 C 22,3 C 78 % 1013,5 hPa 0,0 l/m 2,5 km/h (1 Bft) O-NO 64 1 min 2,0 UV-I 517 W/m 17,6 C 4,0 km/h (1 Bft)
30.06.2022 09:41 21,6 C 22,2 C 78 % 1013,3 hPa 0,0 l/m 3,3 km/h (1 Bft) N-NW 335 1 min 2,0 UV-I 510 W/m 17,6 C 11,0 km/h (2 Bft)
30.06.2022 09:40 21,6 C 22,2 C 78 % 1013,5 hPa 0,0 l/m 0,0 km/h (0 Bft) N 0 1 min 2,0 UV-I 496 W/m 17,6 C 11,0 km/h (2 Bft)
30.06.2022 09:39 21,5 C 22,2 C 78 % 1013,3 hPa 0,0 l/m 6,4 km/h (2 Bft) S-SO 163 1 min 2,0 UV-I 482 W/m 17,5 C 11,0 km/h (2 Bft)
30.06.2022 09:38 21,5 C 22,3 C 79 % 1013,3 hPa 0,0 l/m 1,6 km/h (1 Bft) S-SW 197 1 min 2,0 UV-I 472 W/m 17,7 C 9,0 km/h (2 Bft)
30.06.2022 09:37 21,5 C 22,1 C 78 % 1013,6 hPa 0,0 l/m 2,1 km/h (1 Bft) N-NW 347 1 min 2,0 UV-I 462 W/m 17,5 C 6,0 km/h (2 Bft)
30.06.2022 09:36 21,5 C 22,0 C 78 % 1013,5 hPa 0,0 l/m 3,4 km/h (1 Bft) N-NO 20 1 min 2,0 UV-I 448 W/m 17,5 C 5,0 km/h (1 Bft)
30.06.2022 09:35 21,4 C 21,9 C 78 % 1013,3 hPa 0,0 l/m 2,5 km/h (1 Bft) SO 132 1 min 1,0 UV-I 420 W/m 17,4 C 7,0 km/h (2 Bft)
30.06.2022 09:34 21,4 C 21,7 C 78 % 1013,5 hPa 0,0 l/m 2,5 km/h (1 Bft) SO 142 1 min 2,0 UV-I 439 W/m 17,4 C 7,0 km/h (2 Bft)
30.06.2022 09:33 21,4 C 21,8 C 78 % 1013,4 hPa 0,0 l/m 2,7 km/h (1 Bft) S-SO 166 1 min 2,0 UV-I 457 W/m 17,4 C 8,0 km/h (2 Bft)
30.06.2022 09:32 21,4 C 21,7 C 78 % 1013,5 hPa 0,0 l/m 3,1 km/h (1 Bft) S 172 1 min 2,0 UV-I 472 W/m 17,4 C 8,0 km/h (2 Bft)
30.06.2022 09:31 21,4 C 21,6 C 78 % 1013,5 hPa 0,0 l/m 2,3 km/h (1 Bft) O-SO 123 1 min 1,0 UV-I 385 W/m 17,4 C 7,0 km/h (2 Bft)
30.06.2022 09:30 21,4 C 21,6 C 78 % 1013,7 hPa 0,0 l/m 1,0 km/h (0 Bft) S-SO 159 1 min 1,0 UV-I 332 W/m 17,4 C 7,0 km/h (2 Bft)
30.06.2022 09:29 21,4 C 21,5 C 78 % 1013,6 hPa 0,0 l/m 4,0 km/h (1 Bft) SO 130 1 min 1,0 UV-I 308 W/m 17,4 C 7,0 km/h (2 Bft)
30.06.2022 09:28 21,4 C 21,6 C 79 % 1013,6 hPa 0,0 l/m 1,6 km/h (1 Bft) N 0 0 min 1,0 UV-I 274 W/m 17,6 C 6,0 km/h (2 Bft)
30.06.2022 09:27 21,3 C 21,8 C 79 % 1013,6 hPa 0,0 l/m 2,1 km/h (1 Bft) SO 141 0 min 1,0 UV-I 267 W/m 17,5 C 6,0 km/h (2 Bft)
30.06.2022 09:26 21,3 C 22,0 C 79 % 1013,6 hPa 0,0 l/m 3,0 km/h (1 Bft) SO 139 1 min 1,0 UV-I 336 W/m 17,5 C 6,0 km/h (2 Bft)
30.06.2022 09:25 21,3 C 21,9 C 79 % 1013,8 hPa 0,0 l/m 2,3 km/h (1 Bft) O 100 1 min 1,0 UV-I 398 W/m 17,5 C 5,0 km/h (1 Bft)
30.06.2022 09:24 21,3 C 21,9 C 79 % 1013,7 hPa 0,0 l/m 2,7 km/h (1 Bft) O-NO 66 1 min 1,0 UV-I 385 W/m 17,5 C 6,0 km/h (2 Bft)
30.06.2022 09:23 21,2 C 21,9 C 79 % 1013,7 hPa 0,0 l/m 2,5 km/h (1 Bft) O-SO 108 1 min 1,0 UV-I 395 W/m 17,4 C 6,0 km/h (2 Bft)
30.06.2022 09:22 21,2 C 21,9 C 79 % 1013,6 hPa 0,0 l/m 2,3 km/h (1 Bft) SO 124 1 min 1,0 UV-I 401 W/m 17,4 C 6,0 km/h (2 Bft)
30.06.2022 09:21 21,2 C 21,8 C 79 % 1013,5 hPa 0,0 l/m 0,0 km/h (0 Bft) N 0 1 min 1,0 UV-I 401 W/m 17,4 C 3,0 km/h (1 Bft)
30.06.2022 09:20 21,1 C 21,7 C 79 % 1013,5 hPa 0,0 l/m 0,0 km/h (0 Bft) N 0 1 min 1,0 UV-I 402 W/m 17,3 C 6,0 km/h (2 Bft)
30.06.2022 09:19 21,1 C 21,7 C 80 % 1013,6 hPa 0,0 l/m 2,9 km/h (1 Bft) N 0 1 min 1,0 UV-I 387 W/m 17,5 C 9,0 km/h (2 Bft)
30.06.2022 09:18 21,0 C 21,7 C 80 % 1013,4 hPa 0,0 l/m 4,6 km/h (1 Bft) SO 139 1 min 1,0 UV-I 382 W/m 17,4 C 9,0 km/h (2 Bft)
30.06.2022 09:17 21,0 C 21,9 C 80 % 1013,6 hPa 0,0 l/m 2,1 km/h (1 Bft) N 0 1 min 1,0 UV-I 380 W/m 17,4 C 6,0 km/h (2 Bft)
30.06.2022 09:16 21,0 C 21,6 C 80 % 1013,5 hPa 0,0 l/m 2,1 km/h (1 Bft) W-NW 295 1 min 1,0 UV-I 374 W/m 17,4 C 5,0 km/h (1 Bft)
30.06.2022 09:15 20,9 C 21,5 C 80 % 1013,6 hPa 0,0 l/m 1,4 km/h (1 Bft) N 0 1 min 1,0 UV-I 367 W/m 17,3 C 4,0 km/h (1 Bft)
30.06.2022 09:14 20,9 C 21,5 C 80 % 1013,7 hPa 0,0 l/m 1,8 km/h (1 Bft) SO 126 1 min 1,0 UV-I 360 W/m 17,3 C 4,0 km/h (1 Bft)
30.06.2022 09:13 20,9 C 21,5 C 80 % 1013,5 hPa 0,0 l/m 1,9 km/h (1 Bft) SO 138 1 min 1,0 UV-I 363 W/m 17,3 C 4,0 km/h (1 Bft)
30.06.2022 09:12 20,9 C 21,4 C 80 % 1013,6 hPa 0,0 l/m 0,0 km/h (0 Bft) N 0 1 min 1,0 UV-I 362 W/m 17,3 C 3,0 km/h (1 Bft)
30.06.2022 09:11 20,8 C 21,3 C 80 % 1013,3 hPa 0,0 l/m 0,0 km/h (0 Bft) N 0 1 min 1,0 UV-I 354 W/m 17,2 C 5,0 km/h (1 Bft)
30.06.2022 09:10 20,8 C 21,2 C 80 % 1013,6 hPa 0,0 l/m 0,0 km/h (0 Bft) N 0 1 min 1,0 UV-I 347 W/m 17,2 C 5,0 km/h (1 Bft)
30.06.2022 09:09 20,8 C 21,1 C 80 % 1013,7 hPa 0,0 l/m 4,0 km/h (1 Bft) S-SO 151 1 min 1,0 UV-I 342 W/m 17,2 C 10,0 km/h (2 Bft)
30.06.2022 09:08 20,8 C 21,2 C 80 % 1013,4 hPa 0,0 l/m 6,5 km/h (2 Bft) S-SO 150 1 min 1,0 UV-I 336 W/m 17,2 C 10,0 km/h (2 Bft)
30.06.2022 09:07 20,8 C 21,2 C 80 % 1013,6 hPa 0,0 l/m 0,7 km/h (0 Bft) S 171 1 min 1,0 UV-I 337 W/m 17,2 C 7,0 km/h (2 Bft)
30.06.2022 09:06 20,7 C 21,4 C 80 % 1013,4 hPa 0,0 l/m 3,5 km/h (1 Bft) S 172 1 min 1,0 UV-I 340 W/m 17,1 C 6,0 km/h (2 Bft)
30.06.2022 09:05 20,7 C 21,4 C 80 % 1013,5 hPa 0,0 l/m 2,9 km/h (1 Bft) SO 141 0 min 0,0 UV-I 34 W/m 17,1 C 5,0 km/h (1 Bft)
30.06.2022 09:04 20,6 C 21,4 C 80 % 1013,4 hPa 0,0 l/m 2,7 km/h (1 Bft) O-SO 107 1 min 1,0 UV-I 329 W/m 17,0 C 5,0 km/h (1 Bft)
30.06.2022 09:03 20,6 C 21,3 C 80 % 1013,7 hPa 0,0 l/m 3,1 km/h (1 Bft) SW 229 1 min 1,0 UV-I 324 W/m 17,0 C 5,0 km/h (1 Bft)
30.06.2022 09:02 20,6 C 21,1 C 81 % 1013,6 hPa 0,0 l/m 3,6 km/h (1 Bft) SW 219 1 min 1,0 UV-I 324 W/m 17,2 C 5,0 km/h (1 Bft)
30.06.2022 09:01 20,5 C 21,1 C 81 % 1013,5 hPa 0,0 l/m 2,6 km/h (1 Bft) S-SW 211 1 min 1,0 UV-I 321 W/m 17,1 C 4,0 km/h (1 Bft)
30.06.2022 09:00 20,5 C 21,0 C 81 % 1013,7 hPa 0,0 l/m 2,3 km/h (1 Bft) SW 230 1 min 1,0 UV-I 319 W/m 17,1 C 3,0 km/h (1 Bft)
30.06.2022 08:59 20,5 C 20,9 C 81 % 1013,6 hPa 0,0 l/m 0,7 km/h (0 Bft) O-SO 117 1 min 1,0 UV-I 314 W/m 17,1 C 7,0 km/h (2 Bft)
30.06.2022 08:58 20,4 C 20,9 C 81 % 1013,5 hPa 0,0 l/m 4,6 km/h (1 Bft) O-SO 115 1 min 1,0 UV-I 313 W/m 17,0 C 7,0 km/h (2 Bft)
30.06.2022 08:57 20,4 C 21,0 C 81 % 1013,6 hPa 0,0 l/m 3,3 km/h (1 Bft) SW 227 1 min 1,0 UV-I 313 W/m 17,0 C 11,0 km/h (2 Bft)
30.06.2022 08:56 20,4 C 21,0 C 81 % 1013,5 hPa 0,0 l/m 1,0 km/h (0 Bft) SW 227 1 min 1,0 UV-I 309 W/m 17,0 C 11,0 km/h (2 Bft)
30.06.2022 08:55 20,3 C 20,9 C 81 % 1013,3 hPa 0,0 l/m 5,9 km/h (2 Bft) S-SW 205 1 min 1,0 UV-I 307 W/m 16,9 C 11,0 km/h (2 Bft)
30.06.2022 08:54 20,3 C 20,7 C 81 % 1013,5 hPa 0,0 l/m 0,0 km/h (0 Bft) N 0 1 min 1,0 UV-I 307 W/m 16,9 C 7,0 km/h (2 Bft)
30.06.2022 08:53 20,3 C 20,7 C 81 % 1013,5 hPa 0,0 l/m 4,5 km/h (1 Bft) S-SO 166 1 min 1,0 UV-I 299 W/m 16,9 C 7,0 km/h (2 Bft)
30.06.2022 08:52 20,3 C 20,8 C 81 % 1013,6 hPa 0,0 l/m 4,9 km/h (1 Bft) S-SO 150 1 min 1,0 UV-I 293 W/m 16,9 C 7,0 km/h (2 Bft)
30.06.2022 08:51 20,3 C 20,6 C 81 % 1013,5 hPa 0,0 l/m 2,4 km/h (1 Bft) O-SO 116 1 min 1,0 UV-I 287 W/m 16,9 C 8,0 km/h (2 Bft)
30.06.2022 08:50 20,2 C 20,6 C 81 % 1013,3 hPa 0,0 l/m 5,7 km/h (1 Bft) SO 130 1 min 1,0 UV-I 280 W/m 16,8 C 8,0 km/h (2 Bft)
30.06.2022 08:49 20,2 C 20,6 C 81 % 1013,7 hPa 0,0 l/m 2,6 km/h (1 Bft) SW 225 1 min 1,0 UV-I 281 W/m 16,8 C 5,0 km/h (1 Bft)
30.06.2022 08:48 20,2 C 20,5 C 81 % 1013,4 hPa 0,0 l/m 3,5 km/h (1 Bft) N-NO 24 1 min 1,0 UV-I 282 W/m 16,8 C 8,0 km/h (2 Bft)
30.06.2022 08:47 20,2 C 20,5 C 81 % 1013,6 hPa 0,0 l/m 4,9 km/h (1 Bft) SW 216 1 min 1,0 UV-I 265 W/m 16,8 C 9,0 km/h (2 Bft)
30.06.2022 08:46 20,2 C 20,5 C 81 % 1013,5 hPa 0,0 l/m 5,9 km/h (2 Bft) S 177 0 min 1,0 UV-I 223 W/m 16,8 C 9,0 km/h (2 Bft)
30.06.2022 08:45 20,1 C 20,6 C 81 % 1013,4 hPa 0,0 l/m 5,8 km/h (2 Bft) SO 140 0 min 0,0 UV-I 152 W/m 16,7 C 9,0 km/h (2 Bft)
30.06.2022 08:44 20,1 C 20,5 C 81 % 1013,8 hPa 0,0 l/m 3,9 km/h (1 Bft) S-SO 157 0 min 0,0 UV-I 161 W/m 16,7 C 6,0 km/h (2 Bft)
30.06.2022 08:43 20,1 C 20,4 C 82 % 1013,8 hPa 0,0 l/m 3,6 km/h (1 Bft) S 180 0 min 0,0 UV-I 183 W/m 16,9 C 6,0 km/h (2 Bft)
30.06.2022 08:42 20,1 C 20,4 C 82 % 1013,5 hPa 0,0 l/m 2,9 km/h (1 Bft) S 180 0 min 1,0 UV-I 232 W/m 16,9 C 5,0 km/h (1 Bft)
30.06.2022 08:41 20,0 C 20,4 C 82 % 1013,3 hPa 0,0 l/m 2,8 km/h (1 Bft) S-SO 149 1 min 1,0 UV-I 269 W/m 16,8 C 5,0 km/h (1 Bft)
30.06.2022 08:40 20,0 C 20,6 C 82 % 1013,5 hPa 0,0 l/m 3,7 km/h (1 Bft) S-SW 202 1 min 1,0 UV-I 269 W/m 16,8 C 8,0 km/h (2 Bft)
30.06.2022 08:39 20,0 C 20,6 C 82 % 1013,8 hPa 0,0 l/m 3,6 km/h (1 Bft) S-SW 194 1 min 1,0 UV-I 267 W/m 16,8 C 8,0 km/h (2 Bft)
30.06.2022 08:38 19,9 C 20,4 C 82 % 1013,5 hPa 0,0 l/m 4,1 km/h (1 Bft) W-SW 240 1 min 1,0 UV-I 249 W/m 16,7 C 8,0 km/h (2 Bft)
30.06.2022 08:37 19,9 C 20,4 C 82 % 1013,5 hPa 0,0 l/m 2,5 km/h (1 Bft) W-SW 243 0 min 0,0 UV-I 204 W/m 16,7 C 7,0 km/h (2 Bft)
30.06.2022 08:36 19,9 C 20,3 C 82 % 1013,6 hPa 0,0 l/m 0,0 km/h (0 Bft) N 0 0 min 0,0 UV-I 165 W/m 16,7 C 2,0 km/h (1 Bft)
30.06.2022 08:35 19,9 C 20,4 C 83 % 1013,3 hPa 0,0 l/m 1,1 km/h (1 Bft) N 0 0 min 0,0 UV-I 156 W/m 16,9 C 3,0 km/h (1 Bft)
30.06.2022 08:34 19,8 C 20,4 C 83 % 1013,3 hPa 0,0 l/m 1,4 km/h (1 Bft) N 0 0 min 0,0 UV-I 161 W/m 16,8 C 5,0 km/h (1 Bft)
30.06.2022 08:33 19,8 C 20,4 C 83 % 1013,3 hPa 0,0 l/m 0,0 km/h (0 Bft) N 0 0 min 0,0 UV-I 194 W/m 16,8 C 5,0 km/h (1 Bft)
30.06.2022 08:32 19,8 C 20,2 C 83 % 1013,4 hPa 0,0 l/m 2,5 km/h (1 Bft) NO 40 1 min 1,0 UV-I 243 W/m 16,8 C 5,0 km/h (1 Bft)
30.06.2022 08:31 19,7 C 20,2 C 83 % 1013,3 hPa 0,0 l/m 1,0 km/h (0 Bft) N 0 0 min 1,0 UV-I 234 W/m 16,7 C 3,0 km/h (1 Bft)
30.06.2022 08:30 19,7 C 20,2 C 83 % 1013,2 hPa 0,0 l/m 0,0 km/h (0 Bft) N 0 0 min 0,0 UV-I 198 W/m 16,7 C 3,0 km/h (1 Bft)
30.06.2022 08:29 19,7 C 20,2 C 83 % 1013,3 hPa 0,0 l/m 1,1 km/h (1 Bft) N 0 0 min 0,0 UV-I 147 W/m 16,7 C 3,0 km/h (1 Bft)
30.06.2022 08:28 19,7 C 20,2 C 83 % 1013,3 hPa 0,0 l/m 1,5 km/h (1 Bft) N 355 0 min 0,0 UV-I 121 W/m 16,7 C 4,0 km/h (1 Bft)
30.06.2022 08:27 19,6 C 20,1 C 83 % 1013,6 hPa 0,0 l/m 2,1 km/h (1 Bft) N 360 0 min 0,0 UV-I 161 W/m 16,6 C 4,0 km/h (1 Bft)
30.06.2022 08:26 19,6 C 20,0 C 83 % 1013,4 hPa 0,0 l/m 1,6 km/h (1 Bft) N-NO 23 0 min 0,0 UV-I 194 W/m 16,6 C 5,0 km/h (1 Bft)
30.06.2022 08:25 19,6 C 20,0 C 83 % 1013,5 hPa 0,0 l/m 2,5 km/h (1 Bft) S-SO 157 0 min 0,0 UV-I 151 W/m 16,6 C 5,0 km/h (1 Bft)
30.06.2022 08:24 19,6 C 20,1 C 83 % 1013,6 hPa 0,0 l/m 1,9 km/h (1 Bft) SO 140 0 min 0,0 UV-I 132 W/m 16,6 C 5,0 km/h (1 Bft)
30.06.2022 08:23 19,5 C 20,1 C 83 % 1013,5 hPa 0,0 l/m 2,2 km/h (1 Bft) SO 140 0 min 0,0 UV-I 134 W/m 16,5 C 5,0 km/h (1 Bft)
30.06.2022 08:22 19,5 C 20,0 C 83 % 1013,6 hPa 0,0 l/m 2,4 km/h (1 Bft) SW 219 0 min 0,0 UV-I 122 W/m 16,5 C 5,0 km/h (1 Bft)
30.06.2022 08:21 19,5 C 20,0 C 83 % 1013,5 hPa 0,0 l/m 1,4 km/h (1 Bft) SW 226 0 min 0,0 UV-I 117 W/m 16,5 C 5,0 km/h (1 Bft)
30.06.2022 08:20 19,5 C 19,9 C 83 % 1013,7 hPa 0,0 l/m 1,7 km/h (1 Bft) O-SO 109 0 min 0,0 UV-I 119 W/m 16,5 C 9,0 km/h (2 Bft)
30.06.2022 08:19 19,5 C 20,0 C 83 % 1013,6 hPa 0,0 l/m 5,5 km/h (1 Bft) O-SO 115 0 min 0,0 UV-I 119 W/m 16,5 C 9,0 km/h (2 Bft)
30.06.2022 08:18 19,4 C 19,9 C 83 % 1013,7 hPa 0,0 l/m 2,0 km/h (1 Bft) SO 130 0 min 0,0 UV-I 123 W/m 16,4 C 5,0 km/h (1 Bft)
30.06.2022 08:17 19,4 C 19,9 C 83 % 1013,7 hPa 0,0 l/m 0,0 km/h (0 Bft) N 0 0 min 0,0 UV-I 122 W/m 16,4 C 4,0 km/h (1 Bft)
30.06.2022 08:16 19,4 C 19,9 C 83 % 1013,8 hPa 0,0 l/m 1,2 km/h (1 Bft) N-NO 22 0 min 0,0 UV-I 122 W/m 16,4 C 4,0 km/h (1 Bft)
30.06.2022 08:15 19,3 C 19,7 C 83 % 1013,7 hPa 0,0 l/m 2,5 km/h (1 Bft) N 0 0 min 0,0 UV-I 119 W/m 16,3 C 8,0 km/h (2 Bft)
30.06.2022 08:14 19,3 C 19,7 C 83 % 1013,7 hPa 0,0 l/m 0,0 km/h (0 Bft) N 0 0 min 0,0 UV-I 121 W/m 16,3 C 8,0 km/h (2 Bft)
30.06.2022 08:13 19,3 C 19,7 C 83 % 1013,9 hPa 0,0 l/m 3,2 km/h (1 Bft) SW 232 0 min 0,0 UV-I 121 W/m 16,3 C 8,0 km/h (2 Bft)
30.06.2022 08:12 19,3 C 19,7 C 83 % 1013,8 hPa 0,0 l/m 2,8 km/h (1 Bft) SW 232 0 min 0,0 UV-I 118 W/m 16,3 C 8,0 km/h (2 Bft)
30.06.2022 08:11 19,3 C 19,7 C 83 % 1013,4 hPa 0,0 l/m 1,8 km/h (1 Bft) S 187 0 min 0,0 UV-I 116 W/m 16,3 C 4,0 km/h (1 Bft)
30.06.2022 08:10 19,2 C 19,7 C 83 % 1013,7 hPa 0,0 l/m 2,8 km/h (1 Bft) S-SW 197 0 min 0,0 UV-I 116 W/m 16,2 C 5,0 km/h (1 Bft)
30.06.2022 08:09 19,2 C 19,6 C 83 % 1013,5 hPa 0,0 l/m 3,6 km/h (1 Bft) S 171 0 min 0,0 UV-I 112 W/m 16,2 C 5,0 km/h (1 Bft)
30.06.2022 08:08 19,2 C 19,6 C 83 % 1013,6 hPa 0,0 l/m 3,4 km/h (1 Bft) SO 129 0 min 0,0 UV-I 111 W/m 16,2 C 5,0 km/h (1 Bft)
30.06.2022 08:07 19,2 C 19,6 C 83 % 1013,5 hPa 0,0 l/m 1,9 km/h (1 Bft) S-SO 149 0 min 0,0 UV-I 111 W/m 16,2 C 5,0 km/h (1 Bft)
30.06.2022 08:06 19,2 C 19,5 C 83 % 1013,6 hPa 0,0 l/m 2,7 km/h (1 Bft) S-SO 159 0 min 0,0 UV-I 111 W/m 16,2 C 5,0 km/h (1 Bft)
30.06.2022 08:05 19,2 C 19,6 C 83 % 1013,6 hPa 0,0 l/m 0,0 km/h (0 Bft) N 0 0 min 0,0 UV-I 111 W/m 16,2 C 5,0 km/h (1 Bft)
30.06.2022 08:04 19,2 C 19,5 C 83 % 1013,8 hPa 0,0 l/m 2,5 km/h (1 Bft) O-SO 118 0 min 0,0 UV-I 110 W/m 16,2 C 5,0 km/h (1 Bft)
30.06.2022 08:03 19,2 C 19,6 C 83 % 1013,6 hPa 0,0 l/m 0,7 km/h (0 Bft) O 96 0 min 0,0 UV-I 111 W/m 16,2 C 3,0 km/h (1 Bft)
30.06.2022 08:02 19,1 C 19,4 C 83 % 1013,6 hPa 0,0 l/m 1,1 km/h (1 Bft) N 0 0 min 0,0 UV-I 116 W/m 16,1 C 3,0 km/h (1 Bft)
30.06.2022 08:01 19,1 C 19,4 C 83 % 1013,6 hPa 0,0 l/m 0,0 km/h (0 Bft) N 0 0 min 0,0 UV-I 116 W/m 16,1 C 3,0 km/h (1 Bft)
30.06.2022 08:00 19,1 C 19,4 C 84 % 1013,8 hPa 0,0 l/m 0,0 km/h (0 Bft) N 0 0 min 0,0 UV-I 122 W/m 16,3 C 6,0 km/h (2 Bft)
30.06.2022 07:59 19,1 C 19,6 C 84 % 1013,7 hPa 0,0 l/m 4,4 km/h (1 Bft) SO 146 0 min 0,0 UV-I 130 W/m 16,3 C 6,0 km/h (2 Bft)
30.06.2022 07:58 19,1 C 19,5 C 84 % 1013,7 hPa 0,0 l/m 3,6 km/h (1 Bft) S-SO 156 0 min 0,0 UV-I 128 W/m 16,3 C 5,0 km/h (1 Bft)
30.06.2022 07:57 19,1 C 19,5 C 84 % 1013,7 hPa 0,0 l/m 2,3 km/h (1 Bft) S 189 0 min 0,0 UV-I 121 W/m 16,3 C 5,0 km/h (1 Bft)
30.06.2022 07:56 19,0 C 19,4 C 84 % 1013,8 hPa 0,0 l/m 1,1 km/h (1 Bft) N 0 0 min 0,0 UV-I 112 W/m 16,2 C 3,0 km/h (1 Bft)
30.06.2022 07:55 19,0 C 19,4 C 84 % 1013,8 hPa 0,0 l/m 2,3 km/h (1 Bft) S-SO 161 0 min 0,0 UV-I 111 W/m 16,2 C 4,0 km/h (1 Bft)
30.06.2022 07:54 19,0 C 19,2 C 84 % 1013,8 hPa 0,0 l/m 1,0 km/h (0 Bft) O 98 0 min 0,0 UV-I 110 W/m 16,2 C 4,0 km/h (1 Bft)
30.06.2022 07:53 18,9 C 19,2 C 84 % 1013,7 hPa 0,0 l/m 1,4 km/h (1 Bft) O-SO 119 0 min 0,0 UV-I 108 W/m 16,1 C 4,0 km/h (1 Bft)
30.06.2022 07:52 18,9 C 19,3 C 84 % 1013,9 hPa 0,0 l/m 0,0 km/h (0 Bft) N 0 0 min 0,0 UV-I 108 W/m 16,1 C 3,0 km/h (1 Bft)
30.06.2022 07:51 18,9 C 19,4 C 84 % 1013,8 hPa 0,0 l/m 0,7 km/h (0 Bft) N 0 0 min 0,0 UV-I 108 W/m 16,1 C 3,0 km/h (1 Bft)
30.06.2022 07:50 18,8 C 19,4 C 85 % 1013,7 hPa 0,0 l/m 0,8 km/h (0 Bft) N 0 0 min 0,0 UV-I 110 W/m 16,2 C 3,0 km/h (1 Bft)
30.06.2022 07:49 18,8 C 19,4 C 85 % 1013,5 hPa 0,0 l/m 0,9 km/h (0 Bft) S-SO 150 0 min 0,0 UV-I 110 W/m 16,2 C 3,0 km/h (1 Bft)
30.06.2022 07:48 18,8 C 19,4 C 85 % 1013,9 hPa 0,0 l/m 2,2 km/h (1 Bft) S-SO 150 0 min 0,0 UV-I 108 W/m 16,2 C 4,0 km/h (1 Bft)
30.06.2022 07:47 18,7 C 19,4 C 85 % 1014,0 hPa 0,0 l/m 1,6 km/h (1 Bft) N 0 0 min 0,0 UV-I 110 W/m 16,1 C 5,0 km/h (1 Bft)
30.06.2022 07:46 18,7 C 19,3 C 85 % 1013,9 hPa 0,0 l/m 3,0 km/h (1 Bft) SW 220 0 min 0,0 UV-I 113 W/m 16,1 C 5,0 km/h (1 Bft)
30.06.2022 07:45 18,7 C 19,2 C 85 % 1013,8 hPa 0,0 l/m 3,4 km/h (1 Bft) W-SW 238 0 min 0,0 UV-I 110 W/m 16,1 C 5,0 km/h (1 Bft)
30.06.2022 07:44 18,6 C 19,2 C 85 % 1013,7 hPa 0,0 l/m 0,8 km/h (0 Bft) N 0 0 min 0,0 UV-I 102 W/m 16,0 C 3,0 km/h (1 Bft)
30.06.2022 07:43 18,6 C 19,2 C 85 % 1014,0 hPa 0,0 l/m 1,0 km/h (0 Bft) O-NO 67 0 min 0,0 UV-I 101 W/m 16,0 C 3,0 km/h (1 Bft)
30.06.2022 07:42 18,6 C 19,2 C 85 % 1013,7 hPa 0,0 l/m 1,4 km/h (1 Bft) S-SO 153 0 min 0,0 UV-I 101 W/m 16,0 C 3,0 km/h (1 Bft)
30.06.2022 07:41 18,6 C 19,2 C 85 % 1014,0 hPa 0,0 l/m 1,1 km/h (1 Bft) N 0 0 min 0,0 UV-I 101 W/m 16,0 C 3,0 km/h (1 Bft)
30.06.2022 07:40 18,5 C 19,1 C 85 % 1013,7 hPa 0,0 l/m 2,0 km/h (1 Bft) O-SO 118 0 min 0,0 UV-I 100 W/m 15,9 C 3,0 km/h (1 Bft)
30.06.2022 07:39 18,5 C 19,2 C 85 % 1013,7 hPa 0,0 l/m 1,3 km/h (1 Bft) O 99 0 min 0,0 UV-I 100 W/m 15,9 C 3,0 km/h (1 Bft)
30.06.2022 07:38 18,5 C 19,2 C 85 % 1013,7 hPa 0,0 l/m 0,0 km/h (0 Bft) N 0 0 min 0,0 UV-I 99 W/m 15,9 C 3,0 km/h (1 Bft)
30.06.2022 07:37 18,5 C 19,1 C 85 % 1013,8 hPa 0,0 l/m 0,7 km/h (0 Bft) N 0 0 min 0,0 UV-I 96 W/m 15,9 C 2,0 km/h (1 Bft)
30.06.2022 07:36 18,4 C 19,2 C 85 % 1013,5 hPa 0,0 l/m 0,5 km/h (0 Bft) N 0 0 min 0,0 UV-I 95 W/m 15,8 C 2,0 km/h (1 Bft)
30.06.2022 07:35 18,4 C 19,3 C 85 % 1013,8 hPa 0,0 l/m 0,7 km/h (0 Bft) N 0 0 min 0,0 UV-I 92 W/m 15,8 C 2,0 km/h (1 Bft)
30.06.2022 07:34 18,3 C 19,2 C 85 % 1013,9 hPa 0,0 l/m 0,5 km/h (0 Bft) N 0 0 min 0,0 UV-I 94 W/m 15,7 C 2,0 km/h (1 Bft)
30.06.2022 07:33 18,3 C 19,1 C 85 % 1013,7 hPa 0,0 l/m 0,0 km/h (0 Bft) N 0 0 min 0,0 UV-I 95 W/m 15,7 C 2,0 km/h (1 Bft)
30.06.2022 07:32 18,3 C 19,0 C 85 % 1013,8 hPa 0,0 l/m 0,0 km/h (0 Bft) N 0 0 min 0,0 UV-I 96 W/m 15,7 C 3,0 km/h (1 Bft)
30.06.2022 07:31 18,3 C 18,9 C 86 % 1013,8 hPa 0,0 l/m 1,0 km/h (0 Bft) N 0 0 min 0,0 UV-I 99 W/m 15,9 C 3,0 km/h (1 Bft)
30.06.2022 07:30 18,2 C 18,8 C 85 % 1013,8 hPa 0,0 l/m 1,3 km/h (1 Bft) N 0 0 min 0,0 UV-I 100 W/m 15,6 C 4,0 km/h (1 Bft)
30.06.2022 07:29 18,2 C 18,8 C 85 % 1013,9 hPa 0,0 l/m 1,0 km/h (0 Bft) N 0 0 min 0,0 UV-I 100 W/m 15,6 C 4,0 km/h (1 Bft)
30.06.2022 07:28 18,2 C 18,8 C 85 % 1013,9 hPa 0,0 l/m 0,0 km/h (0 Bft) N 0 0 min 0,0 UV-I 100 W/m 15,6 C 4,0 km/h (1 Bft)
30.06.2022 07:27 18,2 C 18,7 C 85 % 1013,7 hPa 0,0 l/m 0,6 km/h (0 Bft) N 0 0 min 0,0 UV-I 100 W/m 15,6 C 3,0 km/h (1 Bft)
30.06.2022 07:26 18,2 C 18,7 C 85 % 1013,7 hPa 0,0 l/m 0,9 km/h (0 Bft) N 0 0 min 0,0 UV-I 99 W/m 15,6 C 3,0 km/h (1 Bft)
30.06.2022 07:25 18,2 C 18,5 C 85 % 1013,8 hPa 0,0 l/m 0,6 km/h (0 Bft) N 0 0 min 0,0 UV-I 96 W/m 15,6 C 3,0 km/h (1 Bft)
30.06.2022 07:24 18,2 C 18,4 C 85 % 1013,9 hPa 0,0 l/m 0,0 km/h (0 Bft) N 0 0 min 0,0 UV-I 94 W/m 15,6 C 3,0 km/h (1 Bft)
30.06.2022 07:23 18,1 C 18,4 C 85 % 1013,9 hPa 0,0 l/m 0,6 km/h (0 Bft) N 0 0 min 0,0 UV-I 90 W/m 15,5 C 3,0 km/h (1 Bft)
30.06.2022 07:22 18,1 C 18,3 C 86 % 1013,8 hPa 0,0 l/m 0,9 km/h (0 Bft) N 0 0 min 0,0 UV-I 86 W/m 15,7 C 3,0 km/h (1 Bft)
30.06.2022 07:21 18,1 C 18,2 C 86 % 1013,9 hPa 0,0 l/m 0,6 km/h (0 Bft) N 0 0 min 0,0 UV-I 81 W/m 15,7 C 3,0 km/h (1 Bft)
30.06.2022 07:20 18,1 C 18,3 C 86 % 1013,9 hPa 0,0 l/m 0,0 km/h (0 Bft) N 0 0 min 0,0 UV-I 78 W/m 15,7 C 3,0 km/h (1 Bft)
30.06.2022 07:19 18,1 C 18,2 C 86 % 1013,6 hPa 0,0 l/m 0,5 km/h (0 Bft) N 0 0 min 0,0 UV-I 75 W/m 15,7 C 3,0 km/h (1 Bft)
30.06.2022 07:18 18,0 C 18,2 C 86 % 1014,0 hPa 0,0 l/m 0,0 km/h (0 Bft) N 0 0 min 0,0 UV-I 74 W/m 15,6 C 2,0 km/h (1 Bft)
30.06.2022 07:17 18,0 C 18,3 C 86 % 1013,8 hPa 0,0 l/m 0,0 km/h (0 Bft) N 0 0 min 0,0 UV-I 72 W/m 15,6 C 0,0 km/h (0 Bft)
30.06.2022 07:16 18,0 C 18,2 C 86 % 1013,9 hPa 0,0 l/m 1,0 km/h (0 Bft) N 0 0 min 0,0 UV-I 70 W/m 15,6 C 4,0 km/h (1 Bft)
30.06.2022 07:15 18,0 C 18,2 C 86 % 1013,9 hPa 0,0 l/m 0,0 km/h (0 Bft) N 0 0 min 0,0 UV-I 69 W/m 15,6 C 4,0 km/h (1 Bft)
30.06.2022 07:14 17,9 C 18,2 C 86 % 1013,8 hPa 0,0 l/m 1,2 km/h (1 Bft) O-SO 114 0 min 0,0 UV-I 69 W/m 15,5 C 4,0 km/h (1 Bft)
30.06.2022 07:13 17,9 C 18,2 C 86 % 1013,9 hPa 0,0 l/m 2,1 km/h (1 Bft) O-SO 102 0 min 0,0 UV-I 68 W/m 15,5 C 3,0 km/h (1 Bft)
30.06.2022 07:12 17,9 C 18,4 C 86 % 1013,9 hPa 0,0 l/m 0,5 km/h (0 Bft) N 0 0 min 0,0 UV-I 67 W/m 15,5 C 2,0 km/h (1 Bft)
30.06.2022 07:11 17,9 C 18,4 C 86 % 1013,9 hPa 0,0 l/m 0,0 km/h (0 Bft) N 0 0 min 0,0 UV-I 66 W/m 15,5 C 2,0 km/h (1 Bft)
30.06.2022 07:10 17,9 C 18,4 C 87 % 1013,8 hPa 0,0 l/m 0,5 km/h (0 Bft) N 0 0 min 0,0 UV-I 64 W/m 15,7 C 2,0 km/h (1 Bft)
30.06.2022 07:09 17,8 C 18,5 C 87 % 1013,8 hPa 0,0 l/m 1,6 km/h (1 Bft) N 0 0 min 0,0 UV-I 64 W/m 15,6 C 5,0 km/h (1 Bft)
30.06.2022 07:08 17,8 C 18,5 C 87 % 1013,7 hPa 0,0 l/m 1,7 km/h (1 Bft) W-SW 243 0 min 0,0 UV-I 63 W/m 15,6 C 5,0 km/h (1 Bft)
30.06.2022 07:07 17,8 C 18,5 C 87 % 1013,8 hPa 0,0 l/m 2,7 km/h (1 Bft) W-SW 251 0 min 0,0 UV-I 64 W/m 15,6 C 5,0 km/h (1 Bft)
30.06.2022 07:06 17,7 C 18,5 C 87 % 1013,9 hPa 0,0 l/m 1,6 km/h (1 Bft) W 269 0 min 0,0 UV-I 68 W/m 15,5 C 4,0 km/h (1 Bft)
30.06.2022 07:05 17,6 C 18,5 C 87 % 1013,6 hPa 0,0 l/m 1,7 km/h (1 Bft) W 269 0 min 0,0 UV-I 75 W/m 15,4 C 4,0 km/h (1 Bft)
30.06.2022 07:04 17,6 C 18,5 C 87 % 1014,0 hPa 0,0 l/m 0,8 km/h (0 Bft) N 0 0 min 0,0 UV-I 79 W/m 15,4 C 3,0 km/h (1 Bft)
30.06.2022 07:03 17,6 C 18,5 C 87 % 1013,7 hPa 0,0 l/m 0,0 km/h (0 Bft) N 0 0 min 0,0 UV-I 83 W/m 15,4 C 3,0 km/h (1 Bft)
30.06.2022 07:02 17,5 C 18,5 C 88 % 1013,6 hPa 0,0 l/m 1,0 km/h (0 Bft) SO 131 0 min 0,0 UV-I 89 W/m 15,5 C 3,0 km/h (1 Bft)
30.06.2022 07:01 17,5 C 18,4 C 88 % 1013,8 hPa 0,0 l/m 1,0 km/h (0 Bft) S 182 0 min 0,0 UV-I 91 W/m 15,5 C 3,0 km/h (1 Bft)
30.06.2022 07:00 17,4 C 18,4 C 88 % 1013,9 hPa 0,0 l/m 0,0 km/h (0 Bft) N 0 0 min 0,0 UV-I 90 W/m 15,4 C 2,0 km/h (1 Bft)
30.06.2022 06:59 17,4 C 18,3 C 88 % 1013,6 hPa 0,0 l/m 0,7 km/h (0 Bft) N 0 0 min 0,0 UV-I 86 W/m 15,4 C 3,0 km/h (1 Bft)
30.06.2022 06:58 17,4 C 18,3 C 88 % 1013,9 hPa 0,0 l/m 1,0 km/h (0 Bft) N 0 0 min 0,0 UV-I 84 W/m 15,4 C 3,0 km/h (1 Bft)
30.06.2022 06:57 17,3 C 18,2 C 88 % 1013,8 hPa 0,0 l/m 0,0 km/h (0 Bft) N 0 0 min 0,0 UV-I 83 W/m 15,3 C 2,0 km/h (1 Bft)
30.06.2022 06:56 17,3 C 18,2 C 88 % 1014,0 hPa 0,0 l/m 0,7 km/h (0 Bft) N 0 0 min 0,0 UV-I 83 W/m 15,3 C 2,0 km/h (1 Bft)
30.06.2022 06:55 17,3 C 18,1 C 88 % 1013,8 hPa 0,0 l/m 0,6 km/h (0 Bft) N 0 0 min 0,0 UV-I 83 W/m 15,3 C 3,0 km/h (1 Bft)
30.06.2022 06:54 17,3 C 18,1 C 88 % 1013,6 hPa 0,0 l/m 0,0 km/h (0 Bft) N 0 0 min 0,0 UV-I 84 W/m 15,3 C 3,0 km/h (1 Bft)
30.06.2022 06:53 17,2 C 18,0 C 88 % 1013,8 hPa 0,0 l/m 0,6 km/h (0 Bft) N 0 0 min 0,0 UV-I 85 W/m 15,2 C 3,0 km/h (1 Bft)
30.06.2022 06:52 17,2 C 18,0 C 88 % 1013,7 hPa 0,0 l/m 0,7 km/h (0 Bft) N 0 0 min 0,0 UV-I 84 W/m 15,2 C 2,0 km/h (1 Bft)
30.06.2022 06:51 17,1 C 17,9 C 88 % 1013,8 hPa 0,0 l/m 0,7 km/h (0 Bft) N 0 0 min 0,0 UV-I 85 W/m 15,1 C 3,0 km/h (1 Bft)
30.06.2022 06:50 17,1 C 17,8 C 88 % 1013,8 hPa 0,0 l/m 0,0 km/h (0 Bft) N 0 0 min 0,0 UV-I 86 W/m 15,1 C 3,0 km/h (1 Bft)
30.06.2022 06:49 17,1 C 17,8 C 88 % 1013,8 hPa 0,0 l/m 0,0 km/h (0 Bft) N 0 0 min 0,0 UV-I 85 W/m 15,1 C 3,0 km/h (1 Bft)
30.06.2022 06:48 17,0 C 17,7 C 88 % 1013,7 hPa 0,0 l/m 0,6 km/h (0 Bft) N 0 0 min 0,0 UV-I 83 W/m 15,0 C 3,0 km/h (1 Bft)
30.06.2022 06:47 17,0 C 17,7 C 88 % 1013,9 hPa 0,0 l/m 0,0 km/h (0 Bft) N 0 0 min 0,0 UV-I 81 W/m 15,0 C 3,0 km/h (1 Bft)
30.06.2022 06:46 17,0 C 17,6 C 89 % 1013,7 hPa 0,0 l/m 0,6 km/h (0 Bft) N 0 0 min 0,0 UV-I 79 W/m 15,2 C 3,0 km/h (1 Bft)
30.06.2022 06:45 16,9 C 17,6 C 89 % 1013,8 hPa 0,0 l/m 0,9 km/h (0 Bft) N 0 0 min 0,0 UV-I 75 W/m 15,1 C 3,0 km/h (1 Bft)
30.06.2022 06:44 16,9 C 17,7 C 89 % 1013,7 hPa 0,0 l/m 0,8 km/h (0 Bft) N 0 0 min 0,0 UV-I 75 W/m 15,1 C 3,0 km/h (1 Bft)
30.06.2022 06:43 16,9 C 17,7 C 89 % 1013,8 hPa 0,0 l/m 0,0 km/h (0 Bft) N 0 0 min 0,0 UV-I 73 W/m 15,1 C 3,0 km/h (1 Bft)
30.06.2022 06:42 16,8 C 17,7 C 89 % 1013,7 hPa 0,0 l/m 1,6 km/h (1 Bft) N-NW 333 0 min 0,0 UV-I 73 W/m 15,0 C 3,0 km/h (1 Bft)
30.06.2022 06:41 16,8 C 17,7 C 89 % 1013,6 hPa 0,0 l/m 1,0 km/h (0 Bft) N-NW 333 0 min 0,0 UV-I 72 W/m 15,0 C 3,0 km/h (1 Bft)
30.06.2022 06:40 16,8 C 17,7 C 89 % 1013,9 hPa 0,0 l/m 0,5 km/h (0 Bft) N 0 0 min 0,0 UV-I 72 W/m 15,0 C 2,0 km/h (1 Bft)
30.06.2022 06:39 16,8 C 17,8 C 89 % 1013,7 hPa 0,0 l/m 0,9 km/h (0 Bft) N 0 0 min 0,0 UV-I 68 W/m 15,0 C 3,0 km/h (1 Bft)
30.06.2022 06:38 16,7 C 17,8 C 89 % 1014,1 hPa 0,0 l/m 0,6 km/h (0 Bft) N 0 0 min 0,0 UV-I 67 W/m 14,9 C 3,0 km/h (1 Bft)
30.06.2022 06:37 16,7 C 17,8 C 89 % 1013,8 hPa 0,0 l/m 0,0 km/h (0 Bft) N 0 0 min 0,0 UV-I 68 W/m 14,9 C 3,0 km/h (1 Bft)
30.06.2022 06:36 16,7 C 17,7 C 89 % 1013,8 hPa 0,0 l/m 0,0 km/h (0 Bft) N 0 0 min 0,0 UV-I 69 W/m 14,9 C 0,0 km/h (0 Bft)
30.06.2022 06:35 16,7 C 17,7 C 89 % 1014,0 hPa 0,0 l/m 0,7 km/h (0 Bft) N 0 0 min 0,0 UV-I 69 W/m 14,9 C 2,0 km/h (1 Bft)
30.06.2022 06:34 16,6 C 17,7 C 89 % 1013,8 hPa 0,0 l/m 0,5 km/h (0 Bft) N 0 0 min 0,0 UV-I 70 W/m 14,8 C 2,0 km/h (1 Bft)
30.06.2022 06:33 16,6 C 17,6 C 89 % 1014,0 hPa 0,0 l/m 0,0 km/h (0 Bft) N 0 0 min 0,0 UV-I 69 W/m 14,8 C 2,0 km/h (1 Bft)
30.06.2022 06:32 16,5 C 17,5 C 89 % 1013,8 hPa 0,0 l/m 0,7 km/h (0 Bft) N 0 0 min 0,0 UV-I 69 W/m 14,7 C 2,0 km/h (1 Bft)
30.06.2022 06:31 16,5 C 17,5 C 89 % 1014,1 hPa 0,0 l/m 1,0 km/h (0 Bft) N 0 0 min 0,0 UV-I 68 W/m 14,7 C 3,0 km/h (1 Bft)
30.06.2022 06:30 16,5 C 17,2 C 89 % 1014,0 hPa 0,0 l/m 0,7 km/h (0 Bft) N 0 0 min 0,0 UV-I 67 W/m 14,7 C 3,0 km/h (1 Bft)
30.06.2022 06:29 16,5 C 17,0 C 89 % 1014,0 hPa 0,0 l/m 0,9 km/h (0 Bft) N 0 0 min 0,0 UV-I 64 W/m 14,7 C 3,0 km/h (1 Bft)
30.06.2022 06:28 16,4 C 16,8 C 89 % 1013,9 hPa 0,0 l/m 0,6 km/h (0 Bft) N 0 0 min 0,0 UV-I 63 W/m 14,6 C 3,0 km/h (1 Bft)
30.06.2022 06:27 16,4 C 16,5 C 89 % 1013,7 hPa 0,0 l/m 0,0 km/h (0 Bft) N 0 0 min 0,0 UV-I 58 W/m 14,6 C 3,0 km/h (1 Bft)
30.06.2022 06:26 16,4 C 16,5 C 89 % 1013,9 hPa 0,0 l/m 0,0 km/h (0 Bft) N 0 0 min 0,0 UV-I 56 W/m 14,6 C 3,0 km/h (1 Bft)
30.06.2022 06:25 16,4 C 16,4 C 89 % 1014,1 hPa 0,0 l/m 0,6 km/h (0 Bft) N 0 0 min 0,0 UV-I 52 W/m 14,6 C 3,0 km/h (1 Bft)
30.06.2022 06:24 16,4 C 16,4 C 89 % 1013,9 hPa 0,0 l/m 0,9 km/h (0 Bft) N 0 0 min 0,0 UV-I 48 W/m 14,6 C 3,0 km/h (1 Bft)
30.06.2022 06:23 16,4 C 16,3 C 89 % 1014,0 hPa 0,0 l/m 0,6 km/h (0 Bft) N 0 0 min 0,0 UV-I 45 W/m 14,6 C 3,0 km/h (1 Bft)
30.06.2022 06:22 16,4 C 16,1 C 89 % 1013,9 hPa 0,0 l/m 0,0 km/h (0 Bft) N 0 0 min 0,0 UV-I 44 W/m 14,6 C 3,0 km/h (1 Bft)
30.06.2022 06:21 16,3 C 16,1 C 89 % 1013,9 hPa 0,0 l/m 1,7 km/h (1 Bft) N-NO 30 0 min 0,0 UV-I 42 W/m 14,5 C 3,0 km/h (1 Bft)
30.06.2022 06:20 16,3 C 15,9 C 89 % 1013,9 hPa 0,0 l/m 1,1 km/h (1 Bft) N 0 0 min 0,0 UV-I 41 W/m 14,5 C 3,0 km/h (1 Bft)
30.06.2022 06:19 16,3 C 15,9 C 89 % 1013,8 hPa 0,0 l/m 1,6 km/h (1 Bft) N 5 0 min 0,0 UV-I 40 W/m 14,5 C 4,0 km/h (1 Bft)
30.06.2022 06:18 16,3 C 16,0 C 89 % 1013,8 hPa 0,0 l/m 1,0 km/h (0 Bft) N 356 0 min 0,0 UV-I 39 W/m 14,5 C 4,0 km/h (1 Bft)
30.06.2022 06:17 16,3 C 16,1 C 89 % 1013,9 hPa 0,0 l/m 2,2 km/h (1 Bft) N-NO 27 0 min 0,0 UV-I 37 W/m 14,5 C 4,0 km/h (1 Bft)
30.06.2022 06:16 16,3 C 16,3 C 89 % 1013,8 hPa 0,0 l/m 1,8 km/h (1 Bft) N-NO 23 0 min 0,0 UV-I 36 W/m 14,5 C 3,0 km/h (1 Bft)
30.06.2022 06:15 16,3 C 16,2 C 89 % 1013,8 hPa 0,0 l/m 1,9 km/h (1 Bft) N-NO 13 0 min 0,0 UV-I 36 W/m 14,5 C 3,0 km/h (1 Bft)
30.06.2022 06:14 16,3 C 16,1 C 89 % 1013,8 hPa 0,0 l/m 0,9 km/h (0 Bft) N 0 0 min 0,0 UV-I 35 W/m 14,5 C 3,0 km/h (1 Bft)
30.06.2022 06:13 16,3 C 15,9 C 89 % 1013,8 hPa 0,0 l/m 0,9 km/h (0 Bft) N 0 0 min 0,0 UV-I 34 W/m 14,5 C 3,0 km/h (1 Bft)
30.06.2022 06:12 16,2 C 15,9 C 89 % 1013,7 hPa 0,0 l/m 0,7 km/h (0 Bft) N 0 0 min 0,0 UV-I 34 W/m 14,4 C 3,0 km/h (1 Bft)
30.06.2022 06:11 16,3 C 15,9 C 89 % 1013,7 hPa 0,0 l/m 0,0 km/h (0 Bft) N 0 0 min 0,0 UV-I 34 W/m 14,5 C 3,0 km/h (1 Bft)
30.06.2022 06:10 16,2 C 15,9 C 89 % 1014,0 hPa 0,0 l/m 1,0 km/h (0 Bft) N 0 0 min 0,0 UV-I 32 W/m 14,4 C 3,0 km/h (1 Bft)
30.06.2022 06:09 16,2 C 15,9 C 89 % 1013,8 hPa 0,0 l/m 0,0 km/h (0 Bft) N 0 0 min 0,0 UV-I 31 W/m 14,4 C 3,0 km/h (1 Bft)
30.06.2022 06:08 16,2 C 16,1 C 89 % 1013,7 hPa 0,0 l/m 0,6 km/h (0 Bft) N 0 0 min 0,0 UV-I 32 W/m 14,4 C 3,0 km/h (1 Bft)
30.06.2022 06:07 16,2 C 16,2 C 89 % 1013,9 hPa 0,0 l/m 1,6 km/h (1 Bft) N 0 0 min 0,0 UV-I 31 W/m 14,4 C 5,0 km/h (1 Bft)
30.06.2022 06:06 16,2 C 16,3 C 89 % 1013,8 hPa 0,0 l/m 1,2 km/h (1 Bft) N 0 0 min 0,0 UV-I 30 W/m 14,4 C 5,0 km/h (1 Bft)
30.06.2022 06:05 16,2 C 16,2 C 89 % 1013,9 hPa 0,0 l/m 2,3 km/h (1 Bft) N-NW 333 0 min 0,0 UV-I 29 W/m 14,4 C 5,0 km/h (1 Bft)
30.06.2022 06:04 16,2 C 16,3 C 89 % 1013,9 hPa 0,0 l/m 0,8 km/h (0 Bft) N 0 0 min 0,0 UV-I 28 W/m 14,4 C 3,0 km/h (1 Bft)
30.06.2022 06:03 16,2 C 16,3 C 89 % 1013,6 hPa 0,0 l/m 1,4 km/h (1 Bft) N 0 0 min 0,0 UV-I 28 W/m 14,4 C 4,0 km/h (1 Bft)
30.06.2022 06:02 16,2 C 16,3 C 89 % 1013,8 hPa 0,0 l/m 2,0 km/h (1 Bft) N-NW 333 0 min 0,0 UV-I 26 W/m 14,4 C 5,0 km/h (1 Bft)
30.06.2022 06:01 16,1 C 16,2 C 89 % 1013,9 hPa 0,0 l/m 2,9 km/h (1 Bft) N-NW 332 0 min 0,0 UV-I 25 W/m 14,3 C 5,0 km/h (1 Bft)
30.06.2022 06:00 16,1 C 16,2 C 89 % 1014,1 hPa 0,0 l/m 1,9 km/h (1 Bft) N-NW 340 0 min 0,0 UV-I 25 W/m 14,3 C 5,0 km/h (1 Bft)
30.06.2022 05:59 16,1 C 16,1 C 88 % 1013,9 hPa 0,0 l/m 1,8 km/h (1 Bft) NW 319 0 min 0,0 UV-I 25 W/m 14,1 C 5,0 km/h (1 Bft)
30.06.2022 05:58 16,1 C 16,0 C 88 % 1013,9 hPa 0,0 l/m 0,8 km/h (0 Bft) N 0 0 min 0,0 UV-I 25 W/m 14,1 C 3,0 km/h (1 Bft)
30.06.2022 05:57 16,1 C 16,0 C 88 % 1014,0 hPa 0,0 l/m 0,0 km/h (0 Bft) N 0 0 min 0,0 UV-I 24 W/m 14,1 C 3,0 km/h (1 Bft)
30.06.2022 05:56 16,1 C 15,9 C 88 % 1013,9 hPa 0,0 l/m 1,0 km/h (0 Bft) N 359 0 min 0,0 UV-I 23 W/m 14,1 C 3,0 km/h (1 Bft)
30.06.2022 05:55 16,1 C 15,9 C 88 % 1013,7 hPa 0,0 l/m 1,8 km/h (1 Bft) N-NO 22 0 min 0,0 UV-I 23 W/m 14,1 C 5,0 km/h (1 Bft)
30.06.2022 05:54 16,1 C 15,9 C 88 % 1013,9 hPa 0,0 l/m 3,4 km/h (1 Bft) N 10 0 min 0,0 UV-I 22 W/m 14,1 C 5,0 km/h (1 Bft)
30.06.2022 05:53 16,1 C 15,7 C 88 % 1013,9 hPa 0,0 l/m 1,9 km/h (1 Bft) N 350 0 min 0,0 UV-I 20 W/m 14,1 C 4,0 km/h (1 Bft)
30.06.2022 05:52 16,1 C 15,7 C 88 % 1014,0 hPa 0,0 l/m 2,2 km/h (1 Bft) N 6 0 min 0,0 UV-I 19 W/m 14,1 C 4,0 km/h (1 Bft)
30.06.2022 05:51 16,1 C 15,7 C 88 % 1013,8 hPa 0,0 l/m 1,9 km/h (1 Bft) N 353 0 min 0,0 UV-I 17 W/m 14,1 C 3,0 km/h (1 Bft)
30.06.2022 05:50 16,1 C 15,5 C 89 % 1014,0 hPa 0,0 l/m 2,5 km/h (1 Bft) N 353 0 min 0,0 UV-I 17 W/m 14,3 C 3,0 km/h (1 Bft)
30.06.2022 05:49 16,1 C 15,5 C 89 % 1014,1 hPa 0,0 l/m 0,7 km/h (0 Bft) NO 42 0 min 0,0 UV-I 15 W/m 14,3 C 3,0 km/h (1 Bft)
30.06.2022 05:48 16,1 C 15,6 C 89 % 1013,8 hPa 0,0 l/m 1,8 km/h (1 Bft) NO 52 0 min 0,0 UV-I 14 W/m 14,3 C 3,0 km/h (1 Bft)
30.06.2022 05:47 16,1 C 15,7 C 89 % 1014,0 hPa 0,0 l/m 0,8 km/h (0 Bft) N 0 0 min 0,0 UV-I 14 W/m 14,3 C 3,0 km/h (1 Bft)
30.06.2022 05:46 16,1 C 15,8 C 89 % 1013,9 hPa 0,0 l/m 1,8 km/h (1 Bft) N-NW 345 0 min 0,0 UV-I 13 W/m 14,3 C 3,0 km/h (1 Bft)
30.06.2022 05:45 16,1 C 16,0 C 89 % 1013,9 hPa 0,0 l/m 1,0 km/h (0 Bft) N 0 0 min 0,0 UV-I 12 W/m 14,3 C 3,0 km/h (1 Bft)
30.06.2022 05:44 16,1 C 16,0 C 89 % 1013,9 hPa 0,0 l/m 1,5 km/h (1 Bft) N 0 0 min 0,0 UV-I 10 W/m 14,3 C 6,0 km/h (2 Bft)
30.06.2022 05:43 16,1 C 16,0 C 89 % 1014,0 hPa 0,0 l/m 0,0 km/h (0 Bft) N 0 0 min 0,0 UV-I 10 W/m 14,3 C 6,0 km/h (2 Bft)
30.06.2022 05:42 16,0 C 16,0 C 89 % 1014,0 hPa 0,0 l/m 2,7 km/h (1 Bft) NW 324 0 min 0,0 UV-I 9 W/m 14,2 C 6,0 km/h (2 Bft)
30.06.2022 05:41 16,0 C 16,0 C 89 % 1013,9 hPa 0,0 l/m 2,7 km/h (1 Bft) NW 324 0 min 0,0 UV-I 9 W/m 14,2 C 5,0 km/h (1 Bft)
30.06.2022 05:40 16,0 C 16,1 C 89 % 1014,0 hPa 0,0 l/m 3,5 km/h (1 Bft) N-NW 337 0 min 0,0 UV-I 7 W/m 14,2 C 5,0 km/h (1 Bft)
30.06.2022 05:39 16,0 C 15,9 C 89 % 1013,9 hPa 0,0 l/m 2,2 km/h (1 Bft) N 360 0 min 0,0 UV-I 7 W/m 14,2 C 4,0 km/h (1 Bft)
30.06.2022 05:38 16,0 C 15,8 C 89 % 1014,0 hPa 0,0 l/m 1,9 km/h (1 Bft) N-NW 343 0 min 0,0 UV-I 7 W/m 14,2 C 5,0 km/h (1 Bft)
30.06.2022 05:37 16,0 C 15,9 C 88 % 1013,9 hPa 0,0 l/m 2,3 km/h (1 Bft) N-NW 346 0 min 0,0 UV-I 6 W/m 14,0 C 5,0 km/h (1 Bft)
30.06.2022 05:36 16,0 C 15,7 C 88 % 1013,9 hPa 0,0 l/m 2,6 km/h (1 Bft) N-NW 332 0 min 0,0 UV-I 7 W/m 14,0 C 5,0 km/h (1 Bft)
30.06.2022 05:35 16,0 C 15,7 C 88 % 1013,8 hPa 0,0 l/m 0,0 km/h (0 Bft) N 0 0 min 0,0 UV-I 6 W/m 14,0 C 4,0 km/h (1 Bft)
30.06.2022 05:34 16,0 C 15,8 C 88 % 1013,9 hPa 0,0 l/m 2,3 km/h (1 Bft) N-NO 20 0 min 0,0 UV-I 4 W/m 14,0 C 4,0 km/h (1 Bft)
30.06.2022 05:33 16,0 C 15,9 C 88 % 1014,0 hPa 0,0 l/m 2,7 km/h (1 Bft) N 358 0 min 0,0 UV-I 4 W/m 14,0 C 6,0 km/h (2 Bft)
30.06.2022 05:32 16,0 C 16,0 C 88 % 1014,1 hPa 0,0 l/m 2,1 km/h (1 Bft) N-NW 346 0 min 0,0 UV-I 4 W/m 14,0 C 6,0 km/h (2 Bft)
30.06.2022 05:31 15,9 C 15,9 C 88 % 1013,9 hPa 0,0 l/m 4,2 km/h (1 Bft) N-NW 336 0 min 0,0 UV-I 3 W/m 13,9 C 6,0 km/h (2 Bft)
30.06.2022 05:30 15,9 C 15,9 C 88 % 1013,9 hPa 0,0 l/m 3,4 km/h (1 Bft) N-NW 348 0 min 0,0 UV-I 4 W/m 13,9 C 5,0 km/h (1 Bft)
30.06.2022 05:29 15,9 C 15,8 C 88 % 1013,8 hPa 0,0 l/m 2,9 km/h (1 Bft) N-NW 337 0 min 0,0 UV-I 3 W/m 13,9 C 5,0 km/h (1 Bft)
30.06.2022 05:28 15,9 C 15,8 C 88 % 1013,9 hPa 0,0 l/m 2,0 km/h (1 Bft) N-NW 347 0 min 0,0 UV-I 3 W/m 13,9 C 5,0 km/h (1 Bft)
30.06.2022 05:27 15,9 C 15,8 C 88 % 1013,8 hPa 0,0 l/m 1,3 km/h (1 Bft) N 0 0 min 0,0 UV-I 3 W/m 13,9 C 4,0 km/h (1 Bft)
30.06.2022 05:26 15,9 C 15,7 C 88 % 1013,9 hPa 0,0 l/m 1,3 km/h (1 Bft) N 0 0 min 0,0 UV-I 3 W/m 13,9 C 4,0 km/h (1 Bft)
30.06.2022 05:25 15,9 C 15,8 C 88 % 1013,8 hPa 0,0 l/m 0,7 km/h (0 Bft) N 0 0 min 0,0 UV-I 3 W/m 13,9 C 3,0 km/h (1 Bft)
30.06.2022 05:24 15,9 C 15,7 C 88 % 1014,0 hPa 0,0 l/m 1,0 km/h (0 Bft) N 0 0 min 0,0 UV-I 2 W/m 13,9 C 3,0 km/h (1 Bft)
30.06.2022 05:23 15,9 C 15,7 C 88 % 1013,7 hPa 0,0 l/m 1,3 km/h (1 Bft) N-NW 328 0 min 0,0 UV-I 2 W/m 13,9 C 3,0 km/h (1 Bft)
30.06.2022 05:22 15,9 C 15,7 C 88 % 1013,8 hPa 0,0 l/m 1,0 km/h (0 Bft) W-NW 303 0 min 0,0 UV-I 2 W/m 13,9 C 3,0 km/h (1 Bft)
30.06.2022 05:21 15,9 C 15,7 C 88 % 1013,9 hPa 0,0 l/m 0,7 km/h (0 Bft) N 356 0 min 0,0 UV-I 2 W/m 13,9 C 4,0 km/h (1 Bft)
30.06.2022 05:20 15,9 C 15,7 C 88 % 1013,8 hPa 0,0 l/m 2,1 km/h (1 Bft) N 356 0 min 0,0 UV-I 2 W/m 13,9 C 4,0 km/h (1 Bft)
30.06.2022 05:19 15,9 C 15,5 C 88 % 1013,8 hPa 0,0 l/m 1,3 km/h (1 Bft) N 355 0 min 0,0 UV-I 2 W/m 13,9 C 3,0 km/h (1 Bft)
30.06.2022 05:18 15,9 C 15,3 C 88 % 1013,9 hPa 0,0 l/m 1,0 km/h (0 Bft) N-NW 345 0 min 0,0 UV-I 2 W/m 13,9 C 3,0 km/h (1 Bft)
30.06.2022 05:17 15,9 C 15,5 C 88 % 1013,8 hPa 0,0 l/m 1,4 km/h (1 Bft) N 5 0 min 0,0 UV-I 1 W/m 13,9 C 4,0 km/h (1 Bft)
30.06.2022 05:16 15,9 C 15,6 C 88 % 1013,9 hPa 0,0 l/m 3,1 km/h (1 Bft) N 4 0 min 0,0 UV-I 1 W/m 13,9 C 4,0 km/h (1 Bft)
30.06.2022 05:15 15,9 C 15,6 C 88 % 1013,8 hPa 0,0 l/m 3,2 km/h (1 Bft) N 358 0 min 0,0 UV-I 1 W/m 13,9 C 5,0 km/h (1 Bft)
30.06.2022 05:14 15,9 C 15,7 C 87 % 1013,8 hPa 0,0 l/m 3,0 km/h (1 Bft) N 1 0 min 0,0 UV-I 1 W/m 13,7 C 5,0 km/h (1 Bft)
30.06.2022 05:13 15,9 C 15,6 C 87 % 1014,0 hPa 0,0 l/m 2,7 km/h (1 Bft) N 352 0 min 0,0 UV-I 1 W/m 13,7 C 5,0 km/h (1 Bft)
30.06.2022 05:12 15,9 C 15,7 C 87 % 1013,8 hPa 0,0 l/m 3,2 km/h (1 Bft) N 1 0 min 0,0 UV-I 0 W/m 13,7 C 5,0 km/h (1 Bft)
30.06.2022 05:11 15,9 C 15,7 C 87 % 1014,0 hPa 0,0 l/m 4,0 km/h (1 Bft) N-NW 340 0 min 0,0 UV-I 1 W/m 13,7 C 8,0 km/h (2 Bft)
30.06.2022 05:10 15,9 C 15,6 C 87 % 1014,0 hPa 0,0 l/m 4,5 km/h (1 Bft) N-NW 348 0 min 0,0 UV-I 0 W/m 13,7 C 8,0 km/h (2 Bft)
30.06.2022 05:09 16,0 C 15,6 C 87 % 1013,9 hPa 0,0 l/m 4,8 km/h (1 Bft) N 356 0 min 0,0 UV-I 0 W/m 13,8 C 8,0 km/h (2 Bft)
30.06.2022 05:08 15,9 C 15,5 C 87 % 1013,9 hPa 0,0 l/m 3,4 km/h (1 Bft) N-NO 25 0 min 0,0 UV-I 0 W/m 13,7 C 5,0 km/h (1 Bft)
30.06.2022 05:07 16,0 C 15,6 C 87 % 1014,0 hPa 0,0 l/m 4,1 km/h (1 Bft) N-NO 12 0 min 0,0 UV-I 0 W/m 13,8 C 5,0 km/h (1 Bft)
30.06.2022 05:06 16,0 C 15,6 C 87 % 1013,8 hPa 0,0 l/m 3,9 km/h (1 Bft) N-NW 347 0 min 0,0 UV-I 0 W/m 13,8 C 5,0 km/h (1 Bft)
30.06.2022 05:05 16,0 C 15,5 C 87 % 1013,8 hPa 0,0 l/m 3,1 km/h (1 Bft) N 350 0 min 0,0 UV-I 0 W/m 13,8 C 5,0 km/h (1 Bft)
30.06.2022 05:04 16,0 C 15,4 C 87 % 1014,0 hPa 0,0 l/m 4,2 km/h (1 Bft) N 5 0 min 0,0 UV-I 0 W/m 13,8 C 5,0 km/h (1 Bft)
30.06.2022 05:03 16,0 C 15,2 C 87 % 1013,9 hPa 0,0 l/m 3,4 km/h (1 Bft) N 353 0 min 0,0 UV-I 0 W/m 13,8 C 5,0 km/h (1 Bft)
30.06.2022 05:02 16,0 C 15,2 C 87 % 1013,8 hPa 0,0 l/m 2,9 km/h (1 Bft) N 349 0 min 0,0 UV-I 0 W/m 13,8 C 4,0 km/h (1 Bft)
30.06.2022 05:01 16,0 C 15,2 C 87 % 1014,1 hPa 0,0 l/m 1,0 km/h (0 Bft) N 356 0 min 0,0 UV-I 0 W/m 13,8 C 4,0 km/h (1 Bft)
30.06.2022 05:00 16,0 C 15,1 C 87 % 1014,1 hPa 0,0 l/m 1,6 km/h (1 Bft) N 4 0 min 0,0 UV-I 0 W/m 13,8 C 4,0 km/h (1 Bft)
30.06.2022 04:59 16,0 C 15,2 C 87 % 1014,0 hPa 0,0 l/m 2,0 km/h (1 Bft) N 10 0 min 0,0 UV-I 0 W/m 13,8 C 4,0 km/h (1 Bft)
30.06.2022 04:58 16,0 C 15,3 C 87 % 1013,8 hPa 0,0 l/m 2,0 km/h (1 Bft) NO 38 0 min 0,0 UV-I 0 W/m 13,8 C 4,0 km/h (1 Bft)
30.06.2022 04:57 16,0 C 15,4 C 87 % 1013,8 hPa 0,0 l/m 2,3 km/h (1 Bft) N 359 0 min 0,0 UV-I 0 W/m 13,8 C 4,0 km/h (1 Bft)
30.06.2022 04:56 16,0 C 15,5 C 87 % 1014,0 hPa 0,0 l/m 1,0 km/h (0 Bft) N 360 0 min 0,0 UV-I 0 W/m 13,8 C 4,0 km/h (1 Bft)
30.06.2022 04:55 16,0 C 15,3 C 87 % 1014,1 hPa 0,0 l/m 1,6 km/h (1 Bft) NW 326 0 min 0,0 UV-I 0 W/m 13,8 C 4,0 km/h (1 Bft)
30.06.2022 04:54 16,0 C 15,3 C 87 % 1013,9 hPa 0,0 l/m 2,8 km/h (1 Bft) N 352 0 min 0,0 UV-I 0 W/m 13,8 C 4,0 km/h (1 Bft)
30.06.2022 04:53 16,0 C 15,2 C 87 % 1014,0 hPa 0,0 l/m 0,0 km/h (0 Bft) N 0 0 min 0,0 UV-I 0 W/m 13,8 C 3,0 km/h (1 Bft)
30.06.2022 04:52 16,1 C 15,3 C 87 % 1014,0 hPa 0,0 l/m 0,0 km/h (0 Bft) N 0 0 min 0,0 UV-I 0 W/m 13,9 C 3,0 km/h (1 Bft)
30.06.2022 04:51 16,1 C 15,2 C 87 % 1014,0 hPa 0,0 l/m 0,7 km/h (0 Bft) N 0 0 min 0,0 UV-I 0 W/m 13,9 C 3,0 km/h (1 Bft)
30.06.2022 04:50 16,1 C 15,1 C 87 % 1014,0 hPa 0,0 l/m 1,4 km/h (1 Bft) NO 37 0 min 0,0 UV-I 0 W/m 13,9 C 3,0 km/h (1 Bft)
30.06.2022 04:49 16,1 C 15,0 C 87 % 1014,0 hPa 0,0 l/m 0,0 km/h (0 Bft) N 0 0 min 0,0 UV-I 0 W/m 13,9 C 3,0 km/h (1 Bft)
30.06.2022 04:48 16,1 C 15,1 C 87 % 1014,0 hPa 0,0 l/m 2,4 km/h (1 Bft) N-NO 14 0 min 0,0 UV-I 0 W/m 13,9 C 3,0 km/h (1 Bft)
30.06.2022 04:47 16,1 C 15,3 C 87 % 1014,0 hPa 0,0 l/m 0,8 km/h (0 Bft) N 0 0 min 0,0 UV-I 0 W/m 13,9 C 3,0 km/h (1 Bft)
30.06.2022 04:46 16,1 C 15,4 C 87 % 1013,8 hPa 0,0 l/m 0,0 km/h (0 Bft) N 0 0 min 0,0 UV-I 0 W/m 13,9 C 3,0 km/h (1 Bft)
30.06.2022 04:45 16,1 C 15,5 C 87 % 1014,0 hPa 0,0 l/m 0,7 km/h (0 Bft) N-NO 23 0 min 0,0 UV-I 0 W/m 13,9 C 3,0 km/h (1 Bft)
30.06.2022 04:44 16,1 C 15,4 C 86 % 1014,0 hPa 0,0 l/m 2,1 km/h (1 Bft) N-NO 23 0 min 0,0 UV-I 0 W/m 13,8 C 4,0 km/h (1 Bft)
30.06.2022 04:43 16,1 C 15,2 C 86 % 1014,0 hPa 0,0 l/m 2,8 km/h (1 Bft) N-NW 328 0 min 0,0 UV-I 0 W/m 13,8 C 4,0 km/h (1 Bft)
30.06.2022 04:42 16,2 C 15,2 C 86 % 1013,7 hPa 0,0 l/m 1,6 km/h (1 Bft) N-NW 338 0 min 0,0 UV-I 0 W/m 13,9 C 4,0 km/h (1 Bft)
30.06.2022 04:41 16,2 C 15,3 C 86 % 1013,8 hPa 0,0 l/m 1,3 km/h (1 Bft) N 0 0 min 0,0 UV-I 0 W/m 13,9 C 4,0 km/h (1 Bft)
30.06.2022 04:40 16,2 C 15,3 C 86 % 1013,9 hPa 0,0 l/m 1,5 km/h (1 Bft) N 352 0 min 0,0 UV-I 0 W/m 13,9 C 4,0 km/h (1 Bft)
30.06.2022 04:39 16,2 C 15,4 C 86 % 1014,1 hPa 0,0 l/m 1,3 km/h (1 Bft) N-NW 329 0 min 0,0 UV-I 0 W/m 13,9 C 4,0 km/h (1 Bft)
30.06.2022 04:38 16,2 C 15,5 C 86 % 1013,9 hPa 0,0 l/m 3,2 km/h (1 Bft) N 353 0 min 0,0 UV-I 0 W/m 13,9 C 4,0 km/h (1 Bft)
30.06.2022 04:37 16,2 C 15,4 C 86 % 1013,9 hPa 0,0 l/m 3,4 km/h (1 Bft) N-NW 346 0 min 0,0 UV-I 0 W/m 13,9 C 4,0 km/h (1 Bft)
30.06.2022 04:36 16,2 C 15,3 C 86 % 1014,1 hPa 0,0 l/m 3,3 km/h (1 Bft) N 359 0 min 0,0 UV-I 0 W/m 13,9 C 4,0 km/h (1 Bft)
30.06.2022 04:35 16,2 C 15,5 C 86 % 1014,1 hPa 0,0 l/m 2,3 km/h (1 Bft) N 355 0 min 0,0 UV-I 0 W/m 13,9 C 4,0 km/h (1 Bft)
30.06.2022 04:34 16,3 C 15,4 C 86 % 1014,0 hPa 0,0 l/m 2,6 km/h (1 Bft) N-NW 335 0 min 0,0 UV-I 0 W/m 14,0 C 4,0 km/h (1 Bft)
30.06.2022 04:33 16,3 C 15,3 C 86 % 1014,1 hPa 0,0 l/m 2,5 km/h (1 Bft) NW 324 0 min 0,0 UV-I 0 W/m 14,0 C 3,0 km/h (1 Bft)
30.06.2022 04:32 16,3 C 15,1 C 86 % 1013,8 hPa 0,0 l/m 2,3 km/h (1 Bft) N 5 0 min 0,0 UV-I 0 W/m 14,0 C 5,0 km/h (1 Bft)
30.06.2022 04:31 16,3 C 15,0 C 86 % 1013,9 hPa 0,0 l/m 1,0 km/h (0 Bft) N-NO 21 0 min 0,0 UV-I 0 W/m 14,0 C 5,0 km/h (1 Bft)
30.06.2022 04:30 16,3 C 15,1 C 86 % 1014,0 hPa 0,0 l/m 3,4 km/h (1 Bft) N 4 0 min 0,0 UV-I 0 W/m 14,0 C 5,0 km/h (1 Bft)
30.06.2022 04:29 16,4 C 14,9 C 86 % 1014,0 hPa 0,0 l/m 1,4 km/h (1 Bft) N-NO 12 0 min 0,0 UV-I 0 W/m 14,1 C 4,0 km/h (1 Bft)
30.06.2022 04:28 16,4 C 14,7 C 86 % 1014,0 hPa 0,0 l/m 0,0 km/h (0 Bft) N 0 0 min 0,0 UV-I 0 W/m 14,1 C 3,0 km/h (1 Bft)
30.06.2022 04:27 16,4 C 14,7 C 86 % 1014,0 hPa 0,0 l/m 0,0 km/h (0 Bft) N 0 0 min 0,0 UV-I 0 W/m 14,1 C 3,0 km/h (1 Bft)
30.06.2022 04:26 16,4 C 14,7 C 86 % 1014,1 hPa 0,0 l/m 1,3 km/h (1 Bft) O-NO 71 0 min 0,0 UV-I 0 W/m 14,1 C 3,0 km/h (1 Bft)
30.06.2022 04:25 16,4 C 14,8 C 85 % 1013,8 hPa 0,0 l/m 0,8 km/h (0 Bft) N 0 0 min 0,0 UV-I 0 W/m 13,9 C 3,0 km/h (1 Bft)
30.06.2022 04:24 16,5 C 14,8 C 85 % 1014,1 hPa 0,0 l/m 1,0 km/h (0 Bft) N-NO 29 0 min 0,0 UV-I 0 W/m 14,0 C 3,0 km/h (1 Bft)
30.06.2022 04:23 16,5 C 14,9 C 85 % 1014,0 hPa 0,0 l/m 0,0 km/h (0 Bft) N 0 0 min 0,0 UV-I 0 W/m 14,0 C 3,0 km/h (1 Bft)
30.06.2022 04:22 16,5 C 15,0 C 85 % 1014,1 hPa 0,0 l/m 0,8 km/h (0 Bft) N 0 0 min 0,0 UV-I 0 W/m 14,0 C 3,0 km/h (1 Bft)
30.06.2022 04:21 16,5 C 14,9 C 85 % 1014,1 hPa 0,0 l/m 1,7 km/h (1 Bft) NO 49 0 min 0,0 UV-I 0 W/m 14,0 C 3,0 km/h (1 Bft)
30.06.2022 04:20 16,5 C 14,9 C 85 % 1014,1 hPa 0,0 l/m 1,0 km/h (0 Bft) N 0 0 min 0,0 UV-I 0 W/m 14,0 C 4,0 km/h (1 Bft)
30.06.2022 04:19 16,5 C 14,8 C 85 % 1013,9 hPa 0,0 l/m 0,0 km/h (0 Bft) N 0 0 min 0,0 UV-I 0 W/m 14,0 C 4,0 km/h (1 Bft)
30.06.2022 04:18 16,5 C 15,0 C 85 % 1014,1 hPa 0,0 l/m 1,4 km/h (1 Bft) NO 40 0 min 0,0 UV-I 0 W/m 14,0 C 4,0 km/h (1 Bft)
30.06.2022 04:17 16,5 C 15,1 C 85 % 1013,9 hPa 0,0 l/m 0,0 km/h (0 Bft) N 0 0 min 0,0 UV-I 0 W/m 14,0 C 3,0 km/h (1 Bft)
30.06.2022 04:16 16,6 C 15,3 C 85 % 1013,9 hPa 0,0 l/m 1,4 km/h (1 Bft) N 0 0 min 0,0 UV-I 0 W/m 14,1 C 4,0 km/h (1 Bft)
30.06.2022 04:15 16,6 C 15,7 C 85 % 1014,0 hPa 0,0 l/m 1,1 km/h (1 Bft) N 0 0 min 0,0 UV-I 0 W/m 14,1 C 4,0 km/h (1 Bft)
30.06.2022 04:14 16,6 C 15,9 C 85 % 1013,8 hPa 0,0 l/m 1,0 km/h (0 Bft) NW 320 0 min 0,0 UV-I 0 W/m 14,1 C 4,0 km/h (1 Bft)
30.06.2022 04:13 16,6 C 15,9 C 85 % 1014,2 hPa 0,0 l/m 3,1 km/h (1 Bft) NW 325 0 min 0,0 UV-I 0 W/m 14,1 C 6,0 km/h (2 Bft)
30.06.2022 04:12 16,6 C 15,8 C 85 % 1014,1 hPa 0,0 l/m 3,4 km/h (1 Bft) N-NW 333 0 min 0,0 UV-I 0 W/m 14,1 C 6,0 km/h (2 Bft)
30.06.2022 04:11 16,6 C 15,7 C 85 % 1013,9 hPa 0,0 l/m 3,0 km/h (1 Bft) N-NW 330 0 min 0,0 UV-I 0 W/m 14,1 C 5,0 km/h (1 Bft)
30.06.2022 04:10 16,7 C 15,4 C 85 % 1013,9 hPa 0,0 l/m 3,4 km/h (1 Bft) N-NW 341 0 min 0,0 UV-I 0 W/m 14,2 C 5,0 km/h (1 Bft)
30.06.2022 04:09 16,7 C 15,4 C 85 % 1014,0 hPa 0,0 l/m 1,5 km/h (1 Bft) N 350 0 min 0,0 UV-I 0 W/m 14,2 C 4,0 km/h (1 Bft)
30.06.2022 04:08 16,7 C 15,6 C 85 % 1014,0 hPa 0,0 l/m 2,5 km/h (1 Bft) N 10 0 min 0,0 UV-I 0 W/m 14,2 C 4,0 km/h (1 Bft)
30.06.2022 04:07 16,7 C 15,6 C 85 % 1014,0 hPa 0,0 l/m 0,0 km/h (0 Bft) N 0 0 min 0,0 UV-I 0 W/m 14,2 C 3,0 km/h (1 Bft)
30.06.2022 04:06 16,7 C 15,7 C 85 % 1014,2 hPa 0,0 l/m 1,8 km/h (1 Bft) NO 55 0 min 0,0 UV-I 0 W/m 14,2 C 3,0 km/h (1 Bft)
30.06.2022 04:05 16,7 C 15,7 C 85 % 1014,1 hPa 0,0 l/m 1,0 km/h (0 Bft) N 0 0 min 0,0 UV-I 0 W/m 14,2 C 4,0 km/h (1 Bft)
30.06.2022 04:04 16,7 C 15,8 C 85 % 1013,8 hPa 0,0 l/m 1,0 km/h (0 Bft) NO 34 0 min 0,0 UV-I 0 W/m 14,2 C 4,0 km/h (1 Bft)
30.06.2022 04:03 16,7 C 15,7 C 85 % 1014,1 hPa 0,0 l/m 1,1 km/h (1 Bft) N 0 0 min 0,0 UV-I 0 W/m 14,2 C 4,0 km/h (1 Bft)
30.06.2022 04:02 16,8 C 15,9 C 84 % 1014,1 hPa 0,0 l/m 0,0 km/h (0 Bft) N 0 0 min 0,0 UV-I 0 W/m 14,1 C 2,0 km/h (1 Bft)
30.06.2022 04:01 16,8 C 16,0 C 84 % 1014,2 hPa 0,0 l/m 0,7 km/h (0 Bft) N 0 0 min 0,0 UV-I 0 W/m 14,1 C 3,0 km/h (1 Bft)
30.06.2022 04:00 16,8 C 15,9 C 84 % 1014,0 hPa 0,0 l/m 1,0 km/h (0 Bft) N 0 0 min 0,0 UV-I 0 W/m 14,1 C 3,0 km/h (1 Bft)
30.06.2022 03:59 16,8 C 15,9 C 84 % 1014,0 hPa 0,0 l/m 1,4 km/h (1 Bft) N-NW 331 0 min 0,0 UV-I 0 W/m 14,1 C 3,0 km/h (1 Bft)
30.06.2022 03:58 16,8 C 16,2 C 84 % 1013,9 hPa 0,0 l/m 0,0 km/h (0 Bft) N 0 0 min 0,0 UV-I 0 W/m 14,1 C 3,0 km/h (1 Bft)
30.06.2022 03:57 16,8 C 16,4 C 84 % 1014,0 hPa 0,0 l/m 1,0 km/h (0 Bft) N-NW 342 0 min 0,0 UV-I 0 W/m 14,1 C 5,0 km/h (1 Bft)
30.06.2022 03:56 16,8 C 16,3 C 84 % 1014,0 hPa 0,0 l/m 2,8 km/h (1 Bft) N 349 0 min 0,0 UV-I 0 W/m 14,1 C 5,0 km/h (1 Bft)
30.06.2022 03:55 16,8 C 16,2 C 84 % 1014,0 hPa 0,0 l/m 1,4 km/h (1 Bft) N-NW 345 0 min 0,0 UV-I 0 W/m 14,1 C 4,0 km/h (1 Bft)
30.06.2022 03:54 16,8 C 16,1 C 84 % 1014,0 hPa 0,0 l/m 1,4 km/h (1 Bft) NW 315 0 min 0,0 UV-I 0 W/m 14,1 C 4,0 km/h (1 Bft)
30.06.2022 03:53 16,8 C 16,1 C 84 % 1014,0 hPa 0,0 l/m 0,0 km/h (0 Bft) N 0 0 min 0,0 UV-I 0 W/m 14,1 C 3,0 km/h (1 Bft)
30.06.2022 03:52 16,9 C 16,1 C 84 % 1013,9 hPa 0,0 l/m 0,0 km/h (0 Bft) N 0 0 min 0,0 UV-I 0 W/m 14,2 C 4,0 km/h (1 Bft)
30.06.2022 03:51 16,9 C 16,1 C 84 % 1014,0 hPa 0,0 l/m 2,4 km/h (1 Bft) NW 311 0 min 0,0 UV-I 0 W/m 14,2 C 4,0 km/h (1 Bft)
30.06.2022 03:50 16,9 C 15,9 C 84 % 1014,0 hPa 0,0 l/m 1,4 km/h (1 Bft) NW 325 0 min 0,0 UV-I 0 W/m 14,2 C 3,0 km/h (1 Bft)
30.06.2022 03:49 16,9 C 16,0 C 84 % 1014,2 hPa 0,0 l/m 0,0 km/h (0 Bft) N 0 0 min 0,0 UV-I 0 W/m 14,2 C 3,0 km/h (1 Bft)
30.06.2022 03:48 16,9 C 15,9 C 84 % 1014,0 hPa 0,0 l/m 0,0 km/h (0 Bft) N 0 0 min 0,0 UV-I 0 W/m 14,2 C 3,0 km/h (1 Bft)
30.06.2022 03:47 16,9 C 16,2 C 84 % 1014,0 hPa 0,0 l/m 1,7 km/h (1 Bft) N 0 0 min 0,0 UV-I 0 W/m 14,2 C 5,0 km/h (1 Bft)
30.06.2022 03:46 16,9 C 16,1 C 84 % 1014,0 hPa 0,0 l/m 1,2 km/h (1 Bft) N 0 0 min 0,0 UV-I 0 W/m 14,2 C 5,0 km/h (1 Bft)
30.06.2022 03:45 16,9 C 15,9 C 84 % 1014,2 hPa 0,0 l/m 1,3 km/h (1 Bft) N 0 0 min 0,0 UV-I 0 W/m 14,2 C 5,0 km/h (1 Bft)
30.06.2022 03:44 16,9 C 16,1 C 84 % 1013,9 hPa 0,0 l/m 1,8 km/h (1 Bft) O 86 0 min 0,0 UV-I 0 W/m 14,2 C 5,0 km/h (1 Bft)
30.06.2022 03:43 16,9 C 16,4 C 84 % 1014,0 hPa 0,0 l/m 0,0 km/h (0 Bft) N 0 0 min 0,0 UV-I 0 W/m 14,2 C 5,0 km/h (1 Bft)
30.06.2022 03:42 17,0 C 16,2 C 84 % 1014,1 hPa 0,0 l/m 0,0 km/h (0 Bft) N 0 0 min 0,0 UV-I 0 W/m 14,3 C 5,0 km/h (1 Bft)
30.06.2022 03:41 17,0 C 16,0 C 84 % 1014,0 hPa 0,0 l/m 1,8 km/h (1 Bft) NW 314 0 min 0,0 UV-I 0 W/m 14,3 C 5,0 km/h (1 Bft)
30.06.2022 03:40 17,0 C 15,8 C 84 % 1014,1 hPa 0,0 l/m 0,0 km/h (0 Bft) N 0 0 min 0,0 UV-I 0 W/m 14,3 C 3,0 km/h (1 Bft)
30.06.2022 03:39 17,0 C 15,9 C 84 % 1014,1 hPa 0,0 l/m 0,5 km/h (0 Bft) N 0 0 min 0,0 UV-I 0 W/m 14,3 C 3,0 km/h (1 Bft)
30.06.2022 03:38 17,0 C 15,9 C 84 % 1013,8 hPa 0,0 l/m 0,7 km/h (0 Bft) N 0 0 min 0,0 UV-I 0 W/m 14,3 C 3,0 km/h (1 Bft)
30.06.2022 03:37 17,0 C 15,7 C 84 % 1014,0 hPa 0,0 l/m 0,8 km/h (0 Bft) N 0 0 min 0,0 UV-I 0 W/m 14,3 C 3,0 km/h (1 Bft)
30.06.2022 03:36 17,0 C 15,9 C 84 % 1014,0 hPa 0,0 l/m 1,0 km/h (0 Bft) N 352 0 min 0,0 UV-I 0 W/m 14,3 C 3,0 km/h (1 Bft)
30.06.2022 03:35 17,0 C 15,7 C 83 % 1014,0 hPa 0,0 l/m 1,4 km/h (1 Bft) NW 321 0 min 0,0 UV-I 0 W/m 14,1 C 3,0 km/h (1 Bft)
30.06.2022 03:34 17,0 C 15,8 C 83 % 1014,1 hPa 0,0 l/m 1,1 km/h (1 Bft) N 0 0 min 0,0 UV-I 0 W/m 14,1 C 3,0 km/h (1 Bft)
30.06.2022 03:33 17,0 C 16,1 C 83 % 1013,9 hPa 0,0 l/m 1,9 km/h (1 Bft) N-NO 20 0 min 0,0 UV-I 0 W/m 14,1 C 3,0 km/h (1 Bft)
30.06.2022 03:32 17,1 C 16,1 C 83 % 1014,0 hPa 0,0 l/m 2,1 km/h (1 Bft) N 1 0 min 0,0 UV-I 0 W/m 14,2 C 3,0 km/h (1 Bft)
30.06.2022 03:31 17,1 C 15,9 C 83 % 1014,1 hPa 0,0 l/m 1,7 km/h (1 Bft) NO 48 0 min 0,0 UV-I 0 W/m 14,2 C 3,0 km/h (1 Bft)
30.06.2022 03:30 17,1 C 15,8 C 83 % 1014,1 hPa 0,0 l/m 1,1 km/h (1 Bft) N 0 0 min 0,0 UV-I 0 W/m 14,2 C 3,0 km/h (1 Bft)
30.06.2022 03:29 17,1 C 15,9 C 83 % 1013,9 hPa 0,0 l/m 0,8 km/h (0 Bft) N 0 0 min 0,0 UV-I 0 W/m 14,2 C 3,0 km/h (1 Bft)
30.06.2022 03:28 17,1 C 16,1 C 83 % 1013,8 hPa 0,0 l/m 1,0 km/h (0 Bft) O 99 0 min 0,0 UV-I 0 W/m 14,2 C 3,0 km/h (1 Bft)
30.06.2022 03:27 17,1 C 16,2 C 83 % 1013,9 hPa 0,0 l/m 0,0 km/h (0 Bft) N 0 0 min 0,0 UV-I 0 W/m 14,2 C 3,0 km/h (1 Bft)
30.06.2022 03:26 17,1 C 16,3 C 83 % 1014,0 hPa 0,0 l/m 1,4 km/h (1 Bft) N 0 0 min 0,0 UV-I 0 W/m 14,2 C 4,0 km/h (1 Bft)
30.06.2022 03:25 17,1 C 16,2 C 83 % 1014,1 hPa 0,0 l/m 2,4 km/h (1 Bft) N 8 0 min 0,0 UV-I 0 W/m 14,2 C 5,0 km/h (1 Bft)
30.06.2022 03:24 17,1 C 15,9 C 83 % 1014,2 hPa 0,0 l/m 2,6 km/h (1 Bft) N-NW 345 0 min 0,0 UV-I 0 W/m 14,2 C 5,0 km/h (1 Bft)
30.06.2022 03:23 17,1 C 15,9 C 83 % 1014,1 hPa 0,0 l/m 3,1 km/h (1 Bft) N 354 0 min 0,0 UV-I 0 W/m 14,2 C 5,0 km/h (1 Bft)
30.06.2022 03:22 17,2 C 16,1 C 83 % 1014,1 hPa 0,0 l/m 1,6 km/h (1 Bft) N-NW 334 0 min 0,0 UV-I 0 W/m 14,3 C 4,0 km/h (1 Bft)
30.06.2022 03:21 17,2 C 16,3 C 83 % 1014,2 hPa 0,0 l/m 0,0 km/h (0 Bft) N 0 0 min 0,0 UV-I 0 W/m 14,3 C 4,0 km/h (1 Bft)
30.06.2022 03:20 17,2 C 16,5 C 83 % 1014,0 hPa 0,0 l/m 2,3 km/h (1 Bft) N-NO 18 0 min 0,0 UV-I 0 W/m 14,3 C 4,0 km/h (1 Bft)
30.06.2022 03:19 17,2 C 16,6 C 83 % 1014,4 hPa 0,0 l/m 2,5 km/h (1 Bft) N-NO 30 0 min 0,0 UV-I 0 W/m 14,3 C 5,0 km/h (1 Bft)
30.06.2022 03:18 17,2 C 16,7 C 83 % 1014,1 hPa 0,0 l/m 2,6 km/h (1 Bft) N-NW 348 0 min 0,0 UV-I 0 W/m 14,3 C 7,0 km/h (2 Bft)
30.06.2022 03:17 17,2 C 16,7 C 83 % 1014,2 hPa 0,0 l/m 1,4 km/h (1 Bft) NW 322 0 min 0,0 UV-I 0 W/m 14,3 C 7,0 km/h (2 Bft)
30.06.2022 03:16 17,2 C 16,6 C 83 % 1014,3 hPa 0,0 l/m 5,1 km/h (1 Bft) NW 324 0 min 0,0 UV-I 0 W/m 14,3 C 7,0 km/h (2 Bft)
30.06.2022 03:15 17,2 C 16,5 C 82 % 1014,4 hPa 0,0 l/m 4,5 km/h (1 Bft) N-NW 328 0 min 0,0 UV-I 0 W/m 14,1 C 6,0 km/h (2 Bft)
30.06.2022 03:14 17,2 C 16,4 C 82 % 1014,1 hPa 0,0 l/m 1,7 km/h (1 Bft) N-NO 16 0 min 0,0 UV-I 0 W/m 14,1 C 5,0 km/h (1 Bft)
30.06.2022 03:13 17,2 C 16,5 C 82 % 1014,1 hPa 0,0 l/m 0,0 km/h (0 Bft) N 0 0 min 0,0 UV-I 0 W/m 14,1 C 5,0 km/h (1 Bft)
30.06.2022 03:12 17,3 C 16,6 C 82 % 1014,2 hPa 0,0 l/m 2,2 km/h (1 Bft) W-NW 297 0 min 0,0 UV-I 0 W/m 14,2 C 5,0 km/h (1 Bft)
30.06.2022 03:11 17,3 C 16,3 C 82 % 1014,2 hPa 0,0 l/m 1,0 km/h (0 Bft) N 0 0 min 0,0 UV-I 0 W/m 14,2 C 4,0 km/h (1 Bft)
30.06.2022 03:10 17,3 C 16,4 C 82 % 1014,2 hPa 0,0 l/m 0,7 km/h (0 Bft) N 0 0 min 0,0 UV-I 0 W/m 14,2 C 3,0 km/h (1 Bft)
30.06.2022 03:09 17,3 C 16,4 C 82 % 1014,4 hPa 0,0 l/m 1,0 km/h (0 Bft) N 6 0 min 0,0 UV-I 0 W/m 14,2 C 3,0 km/h (1 Bft)
30.06.2022 03:08 17,3 C 16,2 C 82 % 1014,3 hPa 0,0 l/m 0,7 km/h (0 Bft) N-NW 345 0 min 0,0 UV-I 0 W/m 14,2 C 4,0 km/h (1 Bft)
30.06.2022 03:07 17,4 C 16,3 C 82 % 1014,1 hPa 0,0 l/m 2,4 km/h (1 Bft) N-NO 24 0 min 0,0 UV-I 0 W/m 14,3 C 4,0 km/h (1 Bft)
30.06.2022 03:06 17,4 C 16,4 C 81 % 1014,3 hPa 0,0 l/m 2,6 km/h (1 Bft) N-NW 332 0 min 0,0 UV-I 0 W/m 14,1 C 5,0 km/h (1 Bft)
30.06.2022 03:05 17,5 C 16,3 C 81 % 1014,4 hPa 0,0 l/m 2,1 km/h (1 Bft) N-NW 342 0 min 0,0 UV-I 0 W/m 14,2 C 5,0 km/h (1 Bft)
30.06.2022 03:04 17,5 C 16,4 C 81 % 1014,1 hPa 0,0 l/m 2,9 km/h (1 Bft) N-NW 345 0 min 0,0 UV-I 0 W/m 14,2 C 6,0 km/h (2 Bft)
30.06.2022 03:03 17,5 C 16,5 C 81 % 1014,3 hPa 0,0 l/m 4,5 km/h (1 Bft) N 358 0 min 0,0 UV-I 0 W/m 14,2 C 6,0 km/h (2 Bft)
30.06.2022 03:02 17,6 C 16,5 C 81 % 1014,2 hPa 0,0 l/m 4,1 km/h (1 Bft) N-NW 345 0 min 0,0 UV-I 0 W/m 14,3 C 6,0 km/h (2 Bft)
30.06.2022 03:01 17,6 C 16,5 C 81 % 1014,2 hPa 0,0 l/m 2,7 km/h (1 Bft) N-NW 331 0 min 0,0 UV-I 0 W/m 14,3 C 5,0 km/h (1 Bft)
30.06.2022 03:00 17,7 C 16,4 C 81 % 1014,3 hPa 0,0 l/m 2,3 km/h (1 Bft) N 350 0 min 0,0 UV-I 0 W/m 14,4 C 5,0 km/h (1 Bft)
30.06.2022 02:59 17,7 C 16,4 C 81 % 1014,4 hPa 0,0 l/m 1,6 km/h (1 Bft) N 358 0 min 0,0 UV-I 0 W/m 14,4 C 5,0 km/h (1 Bft)
30.06.2022 02:58 17,7 C 16,4 C 81 % 1014,3 hPa 0,0 l/m 3,6 km/h (1 Bft) N 349 0 min 0,0 UV-I 0 W/m 14,4 C 5,0 km/h (1 Bft)
30.06.2022 02:57 17,8 C 16,4 C 80 % 1014,1 hPa 0,0 l/m 3,4 km/h (1 Bft) N 360 0 min 0,0 UV-I 0 W/m 14,3 C 5,0 km/h (1 Bft)
30.06.2022 02:56 17,8 C 16,2 C 80 % 1014,2 hPa 0,0 l/m 2,1 km/h (1 Bft) N-NO 24 0 min 0,0 UV-I 0 W/m 14,3 C 5,0 km/h (1 Bft)
30.06.2022 02:55 17,9 C 16,1 C 80 % 1014,4 hPa 0,0 l/m 2,1 km/h (1 Bft) NO 38 0 min 0,0 UV-I 0 W/m 14,4 C 4,0 km/h (1 Bft)
30.06.2022 02:54 17,9 C 16,4 C 80 % 1014,3 hPa 0,0 l/m 2,0 km/h (1 Bft) NO 37 0 min 0,0 UV-I 0 W/m 14,4 C 4,0 km/h (1 Bft)
30.06.2022 02:53 17,9 C 16,5 C 80 % 1014,4 hPa 0,0 l/m 1,9 km/h (1 Bft) NO 44 0 min 0,0 UV-I 0 W/m 14,4 C 5,0 km/h (1 Bft)
30.06.2022 02:52 18,0 C 16,7 C 80 % 1014,4 hPa 0,0 l/m 2,5 km/h (1 Bft) N-NO 22 0 min 0,0 UV-I 0 W/m 14,5 C 5,0 km/h (1 Bft)
30.06.2022 02:51 18,0 C 16,7 C 80 % 1014,4 hPa 0,0 l/m 3,7 km/h (1 Bft) N 353 0 min 0,0 UV-I 0 W/m 14,5 C 7,0 km/h (2 Bft)
30.06.2022 02:50 18,1 C 16,7 C 80 % 1014,4 hPa 0,0 l/m 3,9 km/h (1 Bft) N 358 0 min 0,0 UV-I 0 W/m 14,6 C 7,0 km/h (2 Bft)
30.06.2022 02:49 18,1 C 16,7 C 80 % 1014,4 hPa 0,0 l/m 4,1 km/h (1 Bft) N-NW 347 0 min 0,0 UV-I 0 W/m 14,6 C 6,0 km/h (2 Bft)
30.06.2022 02:48 18,1 C 16,6 C 80 % 1014,4 hPa 0,0 l/m 2,9 km/h (1 Bft) N 353 0 min 0,0 UV-I 0 W/m 14,6 C 4,0 km/h (1 Bft)
30.06.2022 02:47 18,2 C 16,5 C 80 % 1014,5 hPa 0,0 l/m 3,0 km/h (1 Bft) N 8 0 min 0,0 UV-I 0 W/m 14,7 C 4,0 km/h (1 Bft)
30.06.2022 02:46 18,2 C 16,1 C 80 % 1014,3 hPa 0,0 l/m 1,7 km/h (1 Bft) N 354 0 min 0,0 UV-I 0 W/m 14,7 C 3,0 km/h (1 Bft)
30.06.2022 02:45 18,3 C 16,2 C 80 % 1014,4 hPa 0,0 l/m 0,5 km/h (0 Bft) N 0 0 min 0,0 UV-I 0 W/m 14,8 C 2,0 km/h (1 Bft)
30.06.2022 02:44 18,3 C 16,2 C 80 % 1014,4 hPa 0,0 l/m 0,0 km/h (0 Bft) N 0 0 min 0,0 UV-I 0 W/m 14,8 C 0,0 km/h (0 Bft)
30.06.2022 02:43 18,3 C 16,4 C 80 % 1014,4 hPa 0,0 l/m 0,8 km/h (0 Bft) N 0 0 min 0,0 UV-I 0 W/m 14,8 C 3,0 km/h (1 Bft)
30.06.2022 02:42 18,3 C 16,4 C 80 % 1014,4 hPa 0,0 l/m 0,0 km/h (0 Bft) N 0 0 min 0,0 UV-I 0 W/m 14,8 C 3,0 km/h (1 Bft)
30.06.2022 02:41 18,3 C 17,0 C 79 % 1014,5 hPa 0,0 l/m 1,4 km/h (1 Bft) O 95 0 min 0,0 UV-I 0 W/m 14,6 C 3,0 km/h (1 Bft)
30.06.2022 02:40 18,4 C 17,3 C 79 % 1014,5 hPa 0,0 l/m 0,0 km/h (0 Bft) N 0 0 min 0,0 UV-I 0 W/m 14,7 C 3,0 km/h (1 Bft)
30.06.2022 02:39 18,4 C 17,3 C 79 % 1014,5 hPa 0,0 l/m 0,0 km/h (0 Bft) N 0 0 min 0,0 UV-I 0 W/m 14,7 C 5,0 km/h (1 Bft)
30.06.2022 02:38 18,4 C 17,2 C 79 % 1014,4 hPa 0,0 l/m 2,5 km/h (1 Bft) N-NW 331 0 min 0,0 UV-I 0 W/m 14,7 C 5,0 km/h (1 Bft)
30.06.2022 02:37 18,5 C 17,0 C 79 % 1014,5 hPa 0,0 l/m 3,4 km/h (1 Bft) NW 324 0 min 0,0 UV-I 0 W/m 14,8 C 5,0 km/h (1 Bft)
30.06.2022 02:36 18,4 C 17,0 C 79 % 1014,7 hPa 0,0 l/m 2,5 km/h (1 Bft) N 359 0 min 0,0 UV-I 0 W/m 14,7 C 5,0 km/h (1 Bft)
30.06.2022 02:35 18,5 C 17,0 C 79 % 1014,7 hPa 0,0 l/m 2,7 km/h (1 Bft) N-NO 14 0 min 0,0 UV-I 0 W/m 14,8 C 4,0 km/h (1 Bft)
30.06.2022 02:34 18,5 C 16,9 C 79 % 1014,5 hPa 0,0 l/m 1,8 km/h (1 Bft) N-NO 14 0 min 0,0 UV-I 0 W/m 14,8 C 4,0 km/h (1 Bft)
30.06.2022 02:33 18,5 C 16,5 C 79 % 1014,5 hPa 0,0 l/m 0,5 km/h (0 Bft) N 0 0 min 0,0 UV-I 0 W/m 14,8 C 3,0 km/h (1 Bft)
30.06.2022 02:32 18,5 C 16,7 C 79 % 1014,7 hPa 0,0 l/m 0,0 km/h (0 Bft) N 0 0 min 0,0 UV-I 0 W/m 14,8 C 2,0 km/h (1 Bft)
30.06.2022 02:31 18,5 C 16,9 C 79 % 1014,6 hPa 0,0 l/m 0,0 km/h (0 Bft) N 0 0 min 0,0 UV-I 0 W/m 14,8 C 3,0 km/h (1 Bft)
30.06.2022 02:30 18,5 C 17,0 C 79 % 1014,6 hPa 0,0 l/m 0,6 km/h (0 Bft) N 0 0 min 0,0 UV-I 0 W/m 14,8 C 3,0 km/h (1 Bft)
30.06.2022 02:29 18,5 C 16,8 C 79 % 1014,5 hPa 0,0 l/m 0,9 km/h (0 Bft) N 0 0 min 0,0 UV-I 0 W/m 14,8 C 3,0 km/h (1 Bft)
30.06.2022 02:28 18,6 C 16,8 C 79 % 1014,5 hPa 0,0 l/m 1,2 km/h (1 Bft) N 0 0 min 0,0 UV-I 0 W/m 14,9 C 5,0 km/h (1 Bft)
30.06.2022 02:27 18,6 C 16,6 C 79 % 1014,7 hPa 0,0 l/m 1,3 km/h (1 Bft) W 269 0 min 0,0 UV-I 0 W/m 14,9 C 5,0 km/h (1 Bft)
30.06.2022 02:26 18,6 C 16,5 C 79 % 1014,6 hPa 0,0 l/m 1,2 km/h (1 Bft) W 260 0 min 0,0 UV-I 0 W/m 14,9 C 5,0 km/h (1 Bft)
30.06.2022 02:25 18,6 C 16,3 C 79 % 1014,4 hPa 0,0 l/m 1,0 km/h (0 Bft) W 260 0 min 0,0 UV-I 0 W/m 14,9 C 3,0 km/h (1 Bft)
30.06.2022 02:24 18,6 C 16,5 C 79 % 1014,7 hPa 0,0 l/m 0,0 km/h (0 Bft) N 0 0 min 0,0 UV-I 0 W/m 14,9 C 0,0 km/h (0 Bft)
30.06.2022 02:23 18,6 C 16,4 C 79 % 1014,7 hPa 0,0 l/m 0,7 km/h (0 Bft) N 0 0 min 0,0 UV-I 0 W/m 14,9 C 2,0 km/h (1 Bft)
30.06.2022 02:22 18,6 C 16,5 C 79 % 1014,5 hPa 0,0 l/m 0,5 km/h (0 Bft) N 0 0 min 0,0 UV-I 0 W/m 14,9 C 2,0 km/h (1 Bft)
30.06.2022 02:21 18,7 C 16,7 C 79 % 1014,7 hPa 0,0 l/m 0,0 km/h (0 Bft) N 0 0 min 0,0 UV-I 0 W/m 15,0 C 2,0 km/h (1 Bft)
30.06.2022 02:20 18,7 C 17,0 C 79 % 1014,8 hPa 0,0 l/m 0,0 km/h (0 Bft) N 0 0 min 0,0 UV-I 0 W/m 15,0 C 2,0 km/h (1 Bft)
30.06.2022 02:19 18,7 C 17,3 C 79 % 1014,6 hPa 0,0 l/m 1,0 km/h (0 Bft) N 0 0 min 0,0 UV-I 0 W/m 15,0 C 3,0 km/h (1 Bft)
30.06.2022 02:18 18,7 C 17,4 C 79 % 1014,7 hPa 0,0 l/m 1,0 km/h (0 Bft) N 0 0 min 0,0 UV-I 0 W/m 15,0 C 4,0 km/h (1 Bft)
30.06.2022 02:17 18,7 C 17,6 C 79 % 1014,6 hPa 0,0 l/m 0,0 km/h (0 Bft) N 0 0 min 0,0 UV-I 0 W/m 15,0 C 4,0 km/h (1 Bft)
30.06.2022 02:16 18,7 C 17,9 C 79 % 1014,7 hPa 0,0 l/m 1,6 km/h (1 Bft) N 10 0 min 0,0 UV-I 0 W/m 15,0 C 5,0 km/h (1 Bft)
30.06.2022 02:15 18,7 C 17,9 C 79 % 1014,8 hPa 0,0 l/m 3,5 km/h (1 Bft) N 6 0 min 0,0 UV-I 0 W/m 15,0 C 5,0 km/h (1 Bft)
30.06.2022 02:14 18,7 C 17,7 C 79 % 1014,7 hPa 0,0 l/m 2,7 km/h (1 Bft) N 4 0 min 0,0 UV-I 0 W/m 15,0 C 5,0 km/h (1 Bft)
30.06.2022 02:13 18,7 C 17,7 C 79 % 1014,8 hPa 0,0 l/m 3,5 km/h (1 Bft) N 11 0 min 0,0 UV-I 0 W/m 15,0 C 5,0 km/h (1 Bft)
30.06.2022 02:12 18,8 C 17,6 C 79 % 1014,8 hPa 0,0 l/m 1,7 km/h (1 Bft) N 2 0 min 0,0 UV-I 0 W/m 15,1 C 4,0 km/h (1 Bft)
30.06.2022 02:11 18,8 C 17,9 C 78 % 1014,7 hPa 0,0 l/m 0,0 km/h (0 Bft) N 0 0 min 0,0 UV-I 0 W/m 14,9 C 2,0 km/h (1 Bft)
30.06.2022 02:10 18,8 C 17,8 C 78 % 1014,5 hPa 0,0 l/m 1,6 km/h (1 Bft) N 0 0 min 0,0 UV-I 0 W/m 14,9 C 5,0 km/h (1 Bft)
30.06.2022 02:09 18,8 C 18,3 C 78 % 1014,7 hPa 0,0 l/m 1,2 km/h (1 Bft) N 0 0 min 0,0 UV-I 0 W/m 14,9 C 5,0 km/h (1 Bft)
30.06.2022 02:08 18,8 C 18,1 C 78 % 1014,7 hPa 0,0 l/m 1,4 km/h (1 Bft) NW 314 0 min 0,0 UV-I 0 W/m 14,9 C 5,0 km/h (1 Bft)
30.06.2022 02:07 18,8 C 17,9 C 78 % 1014,6 hPa 0,0 l/m 1,2 km/h (1 Bft) N-NW 329 0 min 0,0 UV-I 0 W/m 14,9 C 4,0 km/h (1 Bft)
30.06.2022 02:06 18,8 C 17,8 C 78 % 1014,9 hPa 0,0 l/m 1,1 km/h (1 Bft) N 0 0 min 0,0 UV-I 0 W/m 14,9 C 3,0 km/h (1 Bft)
30.06.2022 02:05 18,8 C 17,6 C 78 % 1014,8 hPa 0,0 l/m 0,7 km/h (0 Bft) N 0 0 min 0,0 UV-I 0 W/m 14,9 C 3,0 km/h (1 Bft)
30.06.2022 02:04 18,8 C 17,5 C 78 % 1014,9 hPa 0,0 l/m 0,6 km/h (0 Bft) N 0 0 min 0,0 UV-I 0 W/m 14,9 C 3,0 km/h (1 Bft)
30.06.2022 02:03 18,8 C 17,5 C 78 % 1014,8 hPa 0,0 l/m 0,0 km/h (0 Bft) N 0 0 min 0,0 UV-I 0 W/m 14,9 C 3,0 km/h (1 Bft)
30.06.2022 02:02 18,8 C 17,5 C 78 % 1014,8 hPa 0,0 l/m 0,0 km/h (0 Bft) N 0 0 min 0,0 UV-I 0 W/m 14,9 C 3,0 km/h (1 Bft)
30.06.2022 02:01 18,8 C 17,8 C 78 % 1015,0 hPa 0,0 l/m 0,0 km/h (0 Bft) N 0 0 min 0,0 UV-I 0 W/m 14,9 C 0,0 km/h (0 Bft)
30.06.2022 02:00 18,8 C 18,1 C 78 % 1014,8 hPa 0,0 l/m 1,0 km/h (0 Bft) N 0 0 min 0,0 UV-I 0 W/m 14,9 C 4,0 km/h (1 Bft)
30.06.2022 01:59 18,8 C 18,2 C 78 % 1014,8 hPa 0,0 l/m 1,0 km/h (0 Bft) N 0 0 min 0,0 UV-I 0 W/m 14,9 C 4,0 km/h (1 Bft)
30.06.2022 01:58 18,8 C 18,4 C 78 % 1014,9 hPa 0,0 l/m 0,0 km/h (0 Bft) N 0 0 min 0,0 UV-I 0 W/m 14,9 C 4,0 km/h (1 Bft)
30.06.2022 01:57 18,8 C 18,4 C 78 % 1014,9 hPa 0,0 l/m 2,5 km/h (1 Bft) N 360 0 min 0,0 UV-I 0 W/m 14,9 C 5,0 km/h (1 Bft)
30.06.2022 01:56 18,8 C 18,3 C 78 % 1014,9 hPa 0,0 l/m 2,2 km/h (1 Bft) N 352 0 min 0,0 UV-I 0 W/m 14,9 C 5,0 km/h (1 Bft)
30.06.2022 01:55 18,8 C 18,3 C 78 % 1015,0 hPa 0,0 l/m 1,8 km/h (1 Bft) NO 40 0 min 0,0 UV-I 0 W/m 14,9 C 4,0 km/h (1 Bft)
30.06.2022 01:54 18,8 C 18,0 C 78 % 1014,9 hPa 0,0 l/m 1,0 km/h (0 Bft) NO 40 0 min 0,0 UV-I 0 W/m 14,9 C 3,0 km/h (1 Bft)
30.06.2022 01:53 18,8 C 18,0 C 78 % 1014,8 hPa 0,0 l/m 0,6 km/h (0 Bft) N 0 0 min 0,0 UV-I 0 W/m 14,9 C 3,0 km/h (1 Bft)
30.06.2022 01:52 18,8 C 17,9 C 78 % 1014,9 hPa 0,0 l/m 0,6 km/h (0 Bft) N 0 0 min 0,0 UV-I 0 W/m 14,9 C 3,0 km/h (1 Bft)
30.06.2022 01:51 18,8 C 18,1 C 78 % 1015,0 hPa 0,0 l/m 0,6 km/h (0 Bft) N 0 0 min 0,0 UV-I 0 W/m 14,9 C 3,0 km/h (1 Bft)
30.06.2022 01:50 18,8 C 18,2 C 78 % 1014,9 hPa 0,0 l/m 0,0 km/h (0 Bft) N 0 0 min 0,0 UV-I 0 W/m 14,9 C 3,0 km/h (1 Bft)
30.06.2022 01:49 18,9 C 17,9 C 78 % 1014,9 hPa 0,0 l/m 0,5 km/h (0 Bft) N 0 0 min 0,0 UV-I 0 W/m 15,0 C 3,0 km/h (1 Bft)
30.06.2022 01:48 18,9 C 18,0 C 78 % 1014,9 hPa 0,0 l/m 0,5 km/h (0 Bft) N 0 0 min 0,0 UV-I 0 W/m 15,0 C 2,0 km/h (1 Bft)
30.06.2022 01:47 18,9 C 17,8 C 78 % 1014,8 hPa 0,0 l/m 0,7 km/h (0 Bft) N 0 0 min 0,0 UV-I 0 W/m 15,0 C 2,0 km/h (1 Bft)
30.06.2022 01:46 18,9 C 18,0 C 78 % 1014,8 hPa 0,0 l/m 0,0 km/h (0 Bft) N 0 0 min 0,0 UV-I 0 W/m 15,0 C 0,0 km/h (0 Bft)
30.06.2022 01:45 18,9 C 18,1 C 78 % 1014,8 hPa 0,0 l/m 0,0 km/h (0 Bft) N 0 0 min 0,0 UV-I 0 W/m 15,0 C 0,0 km/h (0 Bft)
30.06.2022 01:44 18,9 C 18,3 C 78 % 1014,8 hPa 0,0 l/m 0,0 km/h (0 Bft) N 0 0 min 0,0 UV-I 0 W/m 15,0 C 0,0 km/h (0 Bft)
30.06.2022 01:43 18,9 C 18,3 C 78 % 1014,9 hPa 0,0 l/m 0,6 km/h (0 Bft) N 0 0 min 0,0 UV-I 0 W/m 15,0 C 3,0 km/h (1 Bft)
30.06.2022 01:42 18,9 C 18,3 C 78 % 1014,8 hPa 0,0 l/m 0,0 km/h (0 Bft) N 0 0 min 0,0 UV-I 0 W/m 15,0 C 3,0 km/h (1 Bft)
30.06.2022 01:41 18,9 C 18,1 C 78 % 1014,9 hPa 0,0 l/m 0,0 km/h (0 Bft) N 0 0 min 0,0 UV-I 0 W/m 15,0 C 3,0 km/h (1 Bft)
30.06.2022 01:40 18,9 C 18,2 C 78 % 1015,0 hPa 0,0 l/m 1,1 km/h (1 Bft) N 0 0 min 0,0 UV-I 0 W/m 15,0 C 3,0 km/h (1 Bft)
30.06.2022 01:39 18,9 C 18,0 C 78 % 1014,8 hPa 0,0 l/m 0,0 km/h (0 Bft) N 0 0 min 0,0 UV-I 0 W/m 15,0 C 3,0 km/h (1 Bft)
30.06.2022 01:38 18,9 C 17,9 C 78 % 1014,6 hPa 0,0 l/m 0,5 km/h (0 Bft) N 0 0 min 0,0 UV-I 0 W/m 15,0 C 3,0 km/h (1 Bft)
30.06.2022 01:37 18,9 C 17,9 C 78 % 1014,7 hPa 0,0 l/m 0,0 km/h (0 Bft) N 0 0 min 0,0 UV-I 0 W/m 15,0 C 2,0 km/h (1 Bft)
30.06.2022 01:36 18,9 C 17,9 C 78 % 1014,9 hPa 0,0 l/m 0,0 km/h (0 Bft) N 0 0 min 0,0 UV-I 0 W/m 15,0 C 0,0 km/h (0 Bft)
30.06.2022 01:35 18,9 C 17,7 C 78 % 1014,8 hPa 0,0 l/m 0,7 km/h (0 Bft) N 0 0 min 0,0 UV-I 0 W/m 15,0 C 2,0 km/h (1 Bft)
30.06.2022 01:34 18,9 C 17,7 C 78 % 1014,8 hPa 0,0 l/m 0,5 km/h (0 Bft) N 0 0 min 0,0 UV-I 0 W/m 15,0 C 2,0 km/h (1 Bft)
30.06.2022 01:33 18,9 C 17,9 C 78 % 1014,8 hPa 0,0 l/m 0,0 km/h (0 Bft) N 0 0 min 0,0 UV-I 0 W/m 15,0 C 0,0 km/h (0 Bft)
30.06.2022 01:32 18,9 C 17,9 C 78 % 1014,9 hPa 0,0 l/m 0,5 km/h (0 Bft) N 0 0 min 0,0 UV-I 0 W/m 15,0 C 2,0 km/h (1 Bft)
30.06.2022 01:31 18,9 C 17,9 C 78 % 1014,8 hPa 0,0 l/m 0,7 km/h (0 Bft) N 0 0 min 0,0 UV-I 0 W/m 15,0 C 2,0 km/h (1 Bft)
30.06.2022 01:30 18,9 C 18,0 C 78 % 1014,9 hPa 0,0 l/m 0,9 km/h (0 Bft) N 0 0 min 0,0 UV-I 0 W/m 15,0 C 3,0 km/h (1 Bft)
30.06.2022 01:29 18,9 C 18,1 C 78 % 1014,7 hPa 0,0 l/m 0,6 km/h (0 Bft) N 0 0 min 0,0 UV-I 0 W/m 15,0 C 3,0 km/h (1 Bft)
30.06.2022 01:28 18,9 C 18,0 C 78 % 1014,6 hPa 0,0 l/m 0,0 km/h (0 Bft) N 0 0 min 0,0 UV-I 0 W/m 15,0 C 3,0 km/h (1 Bft)
30.06.2022 01:27 18,8 C 17,9 C 78 % 1014,6 hPa 0,0 l/m 0,5 km/h (0 Bft) N 0 0 min 0,0 UV-I 0 W/m 14,9 C 3,0 km/h (1 Bft)
30.06.2022 01:26 18,9 C 17,7 C 78 % 1014,6 hPa 0,0 l/m 0,7 km/h (0 Bft) N 0 0 min 0,0 UV-I 0 W/m 15,0 C 2,0 km/h (1 Bft)
30.06.2022 01:25 18,9 C 17,6 C 78 % 1014,7 hPa 0,0 l/m 0,5 km/h (0 Bft) N 0 0 min 0,0 UV-I 0 W/m 15,0 C 2,0 km/h (1 Bft)
30.06.2022 01:24 18,9 C 17,6 C 78 % 1014,6 hPa 0,0 l/m 0,0 km/h (0 Bft) N 0 0 min 0,0 UV-I 0 W/m 15,0 C 2,0 km/h (1 Bft)
30.06.2022 01:23 18,9 C 17,6 C 78 % 1014,5 hPa 0,0 l/m 0,6 km/h (0 Bft) N 0 0 min 0,0 UV-I 0 W/m 15,0 C 3,0 km/h (1 Bft)
30.06.2022 01:22 18,9 C 17,6 C 78 % 1014,5 hPa 0,0 l/m 1,0 km/h (0 Bft) N 0 0 min 0,0 UV-I 0 W/m 15,0 C 3,0 km/h (1 Bft)
30.06.2022 01:21 18,9 C 17,5 C 77 % 1014,8 hPa 0,0 l/m 0,7 km/h (0 Bft) N 0 0 min 0,0 UV-I 0 W/m 14,8 C 3,0 km/h (1 Bft)
30.06.2022 01:20 18,9 C 17,6 C 77 % 1014,5 hPa 0,0 l/m 0,0 km/h (0 Bft) N 0 0 min 0,0 UV-I 0 W/m 14,8 C 3,0 km/h (1 Bft)
30.06.2022 01:19 18,9 C 17,7 C 77 % 1014,7 hPa 0,0 l/m 0,0 km/h (0 Bft) N 0 0 min 0,0 UV-I 0 W/m 14,8 C 2,0 km/h (1 Bft)
30.06.2022 01:18 18,9 C 17,5 C 77 % 1014,7 hPa 0,0 l/m 0,7 km/h (0 Bft) N 0 0 min 0,0 UV-I 0 W/m 14,8 C 2,0 km/h (1 Bft)
30.06.2022 01:17 19,0 C 17,4 C 77 % 1014,7 hPa 0,0 l/m 0,9 km/h (0 Bft) N 0 0 min 0,0 UV-I 0 W/m 14,9 C 3,0 km/h (1 Bft)
30.06.2022 01:16 19,0 C 17,4 C 77 % 1014,6 hPa 0,0 l/m 0,6 km/h (0 Bft) N 0 0 min 0,0 UV-I 0 W/m 14,9 C 3,0 km/h (1 Bft)
30.06.2022 01:15 19,0 C 17,3 C 77 % 1014,5 hPa 0,0 l/m 0,0 km/h (0 Bft) N 0 0 min 0,0 UV-I 0 W/m 14,9 C 3,0 km/h (1 Bft)
30.06.2022 01:14 19,0 C 17,4 C 77 % 1014,4 hPa 0,0 l/m 1,0 km/h (0 Bft) N 0 0 min 0,0 UV-I 0 W/m 14,9 C 3,0 km/h (1 Bft)
30.06.2022 01:13 19,0 C 17,4 C 77 % 1014,4 hPa 0,0 l/m 1,0 km/h (0 Bft) N 0 0 min 0,0 UV-I 0 W/m 14,9 C 3,0 km/h (1 Bft)
30.06.2022 01:12 19,0 C 17,5 C 77 % 1014,6 hPa 0,0 l/m 1,4 km/h (1 Bft) N-NO 22 0 min 0,0 UV-I 0 W/m 14,9 C 3,0 km/h (1 Bft)
30.06.2022 01:11 19,0 C 17,7 C 77 % 1014,9 hPa 0,0 l/m 0,0 km/h (0 Bft) N 0 0 min 0,0 UV-I 0 W/m 14,9 C 3,0 km/h (1 Bft)
30.06.2022 01:10 19,0 C 17,7 C 77 % 1014,5 hPa 0,0 l/m 0,6 km/h (0 Bft) N 0 0 min 0,0 UV-I 0 W/m 14,9 C 3,0 km/h (1 Bft)
30.06.2022 01:09 19,0 C 17,5 C 77 % 1014,7 hPa 0,0 l/m 0,0 km/h (0 Bft) N 0 0 min 0,0 UV-I 0 W/m 14,9 C 3,0 km/h (1 Bft)
30.06.2022 01:08 19,1 C 17,2 C 77 % 1014,8 hPa 0,0 l/m 0,6 km/h (0 Bft) N 0 0 min 0,0 UV-I 0 W/m 15,0 C 3,0 km/h (1 Bft)
30.06.2022 01:07 19,1 C 17,1 C 77 % 1014,9 hPa 0,0 l/m 0,0 km/h (0 Bft) N 0 0 min 0,0 UV-I 0 W/m 15,0 C 0,0 km/h (0 Bft)
30.06.2022 01:06 19,0 C 17,1 C 77 % 1014,7 hPa 0,0 l/m 0,8 km/h (0 Bft) N 0 0 min 0,0 UV-I 0 W/m 14,9 C 3,0 km/h (1 Bft)
30.06.2022 01:05 19,1 C 17,2 C 77 % 1014,6 hPa 0,0 l/m 1,1 km/h (1 Bft) N 0 0 min 0,0 UV-I 0 W/m 15,0 C 3,0 km/h (1 Bft)
30.06.2022 01:04 19,1 C 17,0 C 77 % 1014,7 hPa 0,0 l/m 2,0 km/h (1 Bft) W 262 0 min 0,0 UV-I 0 W/m 15,0 C 3,0 km/h (1 Bft)
30.06.2022 01:03 19,1 C 17,0 C 77 % 1014,6 hPa 0,0 l/m 1,7 km/h (1 Bft) SW 229 0 min 0,0 UV-I 0 W/m 15,0 C 3,0 km/h (1 Bft)
30.06.2022 01:02 19,1 C 17,0 C 77 % 1014,8 hPa 0,0 l/m 0,6 km/h (0 Bft) N 0 0 min 0,0 UV-I 0 W/m 15,0 C 3,0 km/h (1 Bft)
30.06.2022 01:01 19,1 C 16,9 C 77 % 1014,8 hPa 0,0 l/m 0,9 km/h (0 Bft) N 0 0 min 0,0 UV-I 0 W/m 15,0 C 3,0 km/h (1 Bft)
30.06.2022 01:00 19,2 C 16,9 C 77 % 1014,8 hPa 0,0 l/m 0,7 km/h (0 Bft) N 0 0 min 0,0 UV-I 0 W/m 15,1 C 3,0 km/h (1 Bft)
30.06.2022 00:59 19,1 C 17,1 C 77 % 1014,9 hPa 0,0 l/m 0,0 km/h (0 Bft) N 0 0 min 0,0 UV-I 0 W/m 15,0 C 3,0 km/h (1 Bft)
30.06.2022 00:58 19,2 C 17,1 C 77 % 1015,0 hPa 0,0 l/m 0,7 km/h (0 Bft) NO 45 0 min 0,0 UV-I 0 W/m 15,1 C 3,0 km/h (1 Bft)
30.06.2022 00:57 19,2 C 17,2 C 76 % 1014,6 hPa 0,0 l/m 1,7 km/h (1 Bft) O 87 0 min 0,0 UV-I 0 W/m 14,9 C 3,0 km/h (1 Bft)
30.06.2022 00:56 19,2 C 17,3 C 76 % 1014,8 hPa 0,0 l/m 1,0 km/h (0 Bft) N 0 0 min 0,0 UV-I 0 W/m 14,9 C 3,0 km/h (1 Bft)
30.06.2022 00:55 19,2 C 17,4 C 76 % 1014,7 hPa 0,0 l/m 0,6 km/h (0 Bft) N 0 0 min 0,0 UV-I 0 W/m 14,9 C 3,0 km/h (1 Bft)
30.06.2022 00:54 19,2 C 17,5 C 76 % 1014,9 hPa 0,0 l/m 0,7 km/h (0 Bft) N 0 0 min 0,0 UV-I 0 W/m 14,9 C 3,0 km/h (1 Bft)
30.06.2022 00:53 19,2 C 17,5 C 76 % 1014,7 hPa 0,0 l/m 1,0 km/h (0 Bft) N 0 0 min 0,0 UV-I 0 W/m 14,9 C 4,0 km/h (1 Bft)
30.06.2022 00:52 19,2 C 17,7 C 76 % 1014,7 hPa 0,0 l/m 1,3 km/h (1 Bft) N 0 0 min 0,0 UV-I 0 W/m 14,9 C 4,0 km/h (1 Bft)
30.06.2022 00:51 19,2 C 18,1 C 76 % 1014,9 hPa 0,0 l/m 3,3 km/h (1 Bft) N 349 0 min 0,0 UV-I 0 W/m 14,9 C 9,0 km/h (2 Bft)
30.06.2022 00:50 19,2 C 18,1 C 76 % 1014,7 hPa 0,0 l/m 1,7 km/h (1 Bft) N-NW 348 0 min 0,0 UV-I 0 W/m 14,9 C 9,0 km/h (2 Bft)
30.06.2022 00:49 19,2 C 18,2 C 76 % 1014,8 hPa 0,0 l/m 4,4 km/h (1 Bft) N-NO 18 0 min 0,0 UV-I 0 W/m 14,9 C 9,0 km/h (2 Bft)
30.06.2022 00:48 19,2 C 17,5 C 76 % 1014,7 hPa 0,0 l/m 1,4 km/h (1 Bft) N-NO 24 0 min 0,0 UV-I 0 W/m 14,9 C 4,0 km/h (1 Bft)
30.06.2022 00:47 19,2 C 17,2 C 76 % 1014,7 hPa 0,0 l/m 0,0 km/h (0 Bft) N 0 0 min 0,0 UV-I 0 W/m 14,9 C 3,0 km/h (1 Bft)
30.06.2022 00:46 19,2 C 17,3 C 76 % 1014,8 hPa 0,0 l/m 0,9 km/h (0 Bft) N 0 0 min 0,0 UV-I 0 W/m 14,9 C 3,0 km/h (1 Bft)
30.06.2022 00:45 19,2 C 17,4 C 76 % 1014,8 hPa 0,0 l/m 0,0 km/h (0 Bft) N 0 0 min 0,0 UV-I 0 W/m 14,9 C 2,0 km/h (1 Bft)
30.06.2022 00:44 19,3 C 17,1 C 76 % 1014,8 hPa 0,0 l/m 0,5 km/h (0 Bft) N 0 0 min 0,0 UV-I 0 W/m 15,0 C 2,0 km/h (1 Bft)
30.06.2022 00:43 19,3 C 17,3 C 76 % 1014,5 hPa 0,0 l/m 0,5 km/h (0 Bft) N 0 0 min 0,0 UV-I 0 W/m 15,0 C 2,0 km/h (1 Bft)
30.06.2022 00:42 19,3 C 17,4 C 76 % 1014,7 hPa 0,0 l/m 0,0 km/h (0 Bft) N 0 0 min 0,0 UV-I 0 W/m 15,0 C 2,0 km/h (1 Bft)
30.06.2022 00:41 19,3 C 17,3 C 76 % 1014,5 hPa 0,0 l/m 0,0 km/h (0 Bft) N 0 0 min 0,0 UV-I 0 W/m 15,0 C 4,0 km/h (1 Bft)
30.06.2022 00:40 19,4 C 17,3 C 76 % 1014,9 hPa 0,0 l/m 0,7 km/h (0 Bft) NO 48 0 min 0,0 UV-I 0 W/m 15,1 C 4,0 km/h (1 Bft)
30.06.2022 00:39 19,4 C 17,4 C 76 % 1014,9 hPa 0,0 l/m 1,1 km/h (1 Bft) N 0 0 min 0,0 UV-I 0 W/m 15,1 C 3,0 km/h (1 Bft)
30.06.2022 00:38 19,4 C 17,5 C 76 % 1014,8 hPa 0,0 l/m 1,9 km/h (1 Bft) N-NO 12 0 min 0,0 UV-I 0 W/m 15,1 C 3,0 km/h (1 Bft)
30.06.2022 00:37 19,4 C 17,6 C 76 % 1014,6 hPa 0,0 l/m 3,0 km/h (1 Bft) N 356 0 min 0,0 UV-I 0 W/m 15,1 C 4,0 km/h (1 Bft)
30.06.2022 00:36 19,4 C 17,4 C 76 % 1015,1 hPa 0,0 l/m 1,9 km/h (1 Bft) NO 45 0 min 0,0 UV-I 0 W/m 15,1 C 4,0 km/h (1 Bft)
30.06.2022 00:35 19,4 C 17,4 C 76 % 1014,7 hPa 0,0 l/m 2,1 km/h (1 Bft) NO 45 0 min 0,0 UV-I 0 W/m 15,1 C 4,0 km/h (1 Bft)
30.06.2022 00:34 19,5 C 17,3 C 75 % 1015,0 hPa 0,0 l/m 0,7 km/h (0 Bft) N 0 0 min 0,0 UV-I 0 W/m 14,9 C 3,0 km/h (1 Bft)
30.06.2022 00:33 19,5 C 17,3 C 75 % 1014,7 hPa 0,0 l/m 0,0 km/h (0 Bft) N 0 0 min 0,0 UV-I 0 W/m 14,9 C 3,0 km/h (1 Bft)
30.06.2022 00:32 19,5 C 17,3 C 75 % 1014,7 hPa 0,0 l/m 0,7 km/h (0 Bft) N-NO 30 0 min 0,0 UV-I 0 W/m 14,9 C 3,0 km/h (1 Bft)
30.06.2022 00:31 19,5 C 17,5 C 75 % 1014,7 hPa 0,0 l/m 1,8 km/h (1 Bft) NO 38 0 min 0,0 UV-I 0 W/m 14,9 C 3,0 km/h (1 Bft)
30.06.2022 00:30 19,5 C 17,4 C 75 % 1014,6 hPa 0,0 l/m 0,6 km/h (0 Bft) N 0 0 min 0,0 UV-I 0 W/m 14,9 C 3,0 km/h (1 Bft)
30.06.2022 00:29 19,6 C 17,2 C 75 % 1014,6 hPa 0,0 l/m 0,7 km/h (0 Bft) N 0 0 min 0,0 UV-I 0 W/m 15,0 C 3,0 km/h (1 Bft)
30.06.2022 00:28 19,6 C 17,1 C 75 % 1014,7 hPa 0,0 l/m 0,6 km/h (0 Bft) N 0 0 min 0,0 UV-I 0 W/m 15,0 C 3,0 km/h (1 Bft)
30.06.2022 00:27 19,6 C 17,3 C 75 % 1014,9 hPa 0,0 l/m 0,0 km/h (0 Bft) N 0 0 min 0,0 UV-I 0 W/m 15,0 C 3,0 km/h (1 Bft)
30.06.2022 00:26 19,6 C 17,6 C 75 % 1014,6 hPa 0,0 l/m 0,0 km/h (0 Bft) N 0 0 min 0,0 UV-I 0 W/m 15,0 C 3,0 km/h (1 Bft)
30.06.2022 00:25 19,6 C 17,7 C 75 % 1014,7 hPa 0,0 l/m 1,3 km/h (1 Bft) N 360 0 min 0,0 UV-I 0 W/m 15,0 C 3,0 km/h (1 Bft)
30.06.2022 00:24 19,6 C 17,6 C 75 % 1014,5 hPa 0,0 l/m 1,8 km/h (1 Bft) N 1 0 min 0,0 UV-I 0 W/m 15,0 C 3,0 km/h (1 Bft)
30.06.2022 00:23 19,6 C 17,5 C 75 % 1014,7 hPa 0,0 l/m 0,8 km/h (0 Bft) N 0 0 min 0,0 UV-I 0 W/m 15,0 C 3,0 km/h (1 Bft)
30.06.2022 00:22 19,6 C 17,6 C 75 % 1014,6 hPa 0,0 l/m 0,9 km/h (0 Bft) N 0 0 min 0,0 UV-I 0 W/m 15,0 C 3,0 km/h (1 Bft)
30.06.2022 00:21 19,6 C 17,9 C 75 % 1014,7 hPa 0,0 l/m 0,7 km/h (0 Bft) N 0 0 min 0,0 UV-I 0 W/m 15,0 C 3,0 km/h (1 Bft)
30.06.2022 00:20 19,7 C 18,1 C 75 % 1014,6 hPa 0,0 l/m 1,3 km/h (1 Bft) N 360 0 min 0,0 UV-I 0 W/m 15,1 C 3,0 km/h (1 Bft)
30.06.2022 00:19 19,7 C 18,3 C 75 % 1014,6 hPa 0,0 l/m 0,0 km/h (0 Bft) N 0 0 min 0,0 UV-I 0 W/m 15,1 C 4,0 km/h (1 Bft)
30.06.2022 00:18 19,6 C 18,2 C 75 % 1014,5 hPa 0,0 l/m 2,4 km/h (1 Bft) NO 51 0 min 0,0 UV-I 0 W/m 15,0 C 4,0 km/h (1 Bft)
30.06.2022 00:17 19,7 C 18,2 C 75 % 1014,6 hPa 0,0 l/m 0,0 km/h (0 Bft) N 0 0 min 0,0 UV-I 0 W/m 15,1 C 3,0 km/h (1 Bft)
30.06.2022 00:16 19,7 C 18,4 C 75 % 1014,6 hPa 0,0 l/m 1,0 km/h (0 Bft) N 0 0 min 0,0 UV-I 0 W/m 15,1 C 3,0 km/h (1 Bft)
30.06.2022 00:15 19,7 C 18,7 C 75 % 1014,6 hPa 0,0 l/m 0,0 km/h (0 Bft) N 0 0 min 0,0 UV-I 0 W/m 15,1 C 3,0 km/h (1 Bft)
30.06.2022 00:14 19,7 C 18,8 C 75 % 1014,6 hPa 0,0 l/m 0,6 km/h (0 Bft) N 0 0 min 0,0 UV-I 0 W/m 15,1 C 3,0 km/h (1 Bft)
30.06.2022 00:13 19,7 C 18,7 C 75 % 1014,6 hPa 0,0 l/m 0,7 km/h (0 Bft) N 0 0 min 0,0 UV-I 0 W/m 15,1 C 3,0 km/h (1 Bft)
30.06.2022 00:12 19,7 C 18,8 C 75 % 1014,6 hPa 0,0 l/m 0,0 km/h (0 Bft) N 0 0 min 0,0 UV-I 0 W/m 15,1 C 3,0 km/h (1 Bft)
30.06.2022 00:11 19,7 C 18,8 C 75 % 1014,7 hPa 0,0 l/m 1,0 km/h (0 Bft) N 351 0 min 0,0 UV-I 0 W/m 15,1 C 4,0 km/h (1 Bft)
30.06.2022 00:10 19,7 C 18,9 C 75 % 1014,5 hPa 0,0 l/m 1,6 km/h (1 Bft) N-NO 32 0 min 0,0 UV-I 0 W/m 15,1 C 4,0 km/h (1 Bft)
30.06.2022 00:09 19,7 C 18,9 C 75 % 1014,5 hPa 0,0 l/m 1,3 km/h (1 Bft) N 0 0 min 0,0 UV-I 0 W/m 15,1 C 4,0 km/h (1 Bft)
30.06.2022 00:08 19,7 C 19,0 C 75 % 1014,7 hPa 0,0 l/m 1,1 km/h (1 Bft) N 0 0 min 0,0 UV-I 0 W/m 15,1 C 4,0 km/h (1 Bft)
30.06.2022 00:07 19,6 C 19,2 C 75 % 1014,7 hPa 0,0 l/m 1,3 km/h (1 Bft) S 175 0 min 0,0 UV-I 0 W/m 15,0 C 4,0 km/h (1 Bft)
30.06.2022 00:06 19,6 C 19,1 C 75 % 1014,7 hPa 0,0 l/m 2,0 km/h (1 Bft) NO 48 0 min 0,0 UV-I 0 W/m 15,0 C 4,0 km/h (1 Bft)
30.06.2022 00:05 19,6 C 19,0 C 75 % 1014,5 hPa 0,0 l/m 1,8 km/h (1 Bft) NO 48 0 min 0,0 UV-I 0 W/m 15,0 C 3,0 km/h (1 Bft)
30.06.2022 00:04 19,6 C 19,0 C 75 % 1014,5 hPa 0,0 l/m 0,6 km/h (0 Bft) N 0 0 min 0,0 UV-I 0 W/m 15,0 C 3,0 km/h (1 Bft)
30.06.2022 00:03 19,6 C 18,9 C 75 % 1014,7 hPa 0,0 l/m 0,9 km/h (0 Bft) N 0 0 min 0,0 UV-I 0 W/m 15,0 C 3,0 km/h (1 Bft)
30.06.2022 00:02 19,6 C 18,9 C 75 % 1014,8 hPa 0,0 l/m 1,4 km/h (1 Bft) N 0 0 min 0,0 UV-I 0 W/m 15,0 C 5,0 km/h (1 Bft)
30.06.2022 00:01 19,6 C 19,1 C 75 % 1014,6 hPa 0,0 l/m 0,0 km/h (0 Bft) N 0 0 min 0,0 UV-I 0 W/m 15,0 C 5,0 km/h (1 Bft)
30.06.2022 00:00 19,6 C 19,3 C 75 % 1014,6 hPa 0,0 l/m 1,9 km/h (1 Bft) N 7 0 min 0,0 UV-I 0 W/m 15,0 C 5,0 km/h (1 Bft)
29.06.2022 23:59 19,6 C 19,1 C 75 % 1014,4 hPa 0,0 l/m 1,4 km/h (1 Bft) N 7 0 min 0,0 UV-I 0 W/m 15,0 C 5,0 km/h (1 Bft)
29.06.2022 23:58 19,6 C 19,0 C 75 % 1014,7 hPa 0,0 l/m 0,9 km/h (0 Bft) N-NO 13 0 min 0,0 UV-I 0 W/m 15,0 C 5,0 km/h (1 Bft)
29.06.2022 23:57 19,6 C 18,8 C 75 % 1014,7 hPa 0,0 l/m 1,1 km/h (1 Bft) N 0 0 min 0,0 UV-I 0 W/m 15,0 C 3,0 km/h (1 Bft)
29.06.2022 23:56 19,6 C 18,9 C 75 % 1014,5 hPa 0,0 l/m 2,1 km/h (1 Bft) N-NO 32 0 min 0,0 UV-I 0 W/m 15,0 C 4,0 km/h (1 Bft)
29.06.2022 23:55 19,6 C 18,8 C 75 % 1014,6 hPa 0,0 l/m 2,1 km/h (1 Bft) N-NO 17 0 min 0,0 UV-I 0 W/m 15,0 C 4,0 km/h (1 Bft)
29.06.2022 23:54 19,6 C 18,6 C 75 % 1014,4 hPa 0,0 l/m 1,9 km/h (1 Bft) N-NW 345 0 min 0,0 UV-I 0 W/m 15,0 C 4,0 km/h (1 Bft)
29.06.2022 23:53 19,6 C 18,7 C 75 % 1014,6 hPa 0,0 l/m 0,9 km/h (0 Bft) N 0 0 min 0,0 UV-I 0 W/m 15,0 C 3,0 km/h (1 Bft)
29.06.2022 23:52 19,6 C 18,7 C 75 % 1014,6 hPa 0,0 l/m 0,0 km/h (0 Bft) N 0 0 min 0,0 UV-I 0 W/m 15,0 C 2,0 km/h (1 Bft)
29.06.2022 23:51 19,6 C 18,8 C 75 % 1014,6 hPa 0,0 l/m 0,6 km/h (0 Bft) N 0 0 min 0,0 UV-I 0 W/m 15,0 C 3,0 km/h (1 Bft)
29.06.2022 23:50 19,6 C 18,8 C 75 % 1014,7 hPa 0,0 l/m 0,9 km/h (0 Bft) N 0 0 min 0,0 UV-I 0 W/m 15,0 C 3,0 km/h (1 Bft)
29.06.2022 23:49 19,6 C 18,7 C 75 % 1014,4 hPa 0,0 l/m 0,7 km/h (0 Bft) N 0 0 min 0,0 UV-I 0 W/m 15,0 C 3,0 km/h (1 Bft)
29.06.2022 23:48 19,6 C 18,4 C 75 % 1014,5 hPa 0,0 l/m 0,0 km/h (0 Bft) N 0 0 min 0,0 UV-I 0 W/m 15,0 C 3,0 km/h (1 Bft)
29.06.2022 23:47 19,5 C 18,4 C 75 % 1014,3 hPa 0,0 l/m 1,0 km/h (0 Bft) N 0 0 min 0,0 UV-I 0 W/m 14,9 C 4,0 km/h (1 Bft)
29.06.2022 23:46 19,6 C 18,3 C 75 % 1014,6 hPa 0,0 l/m 1,3 km/h (1 Bft) N 0 0 min 0,0 UV-I 0 W/m 15,0 C 4,0 km/h (1 Bft)
29.06.2022 23:45 19,6 C 18,3 C 75 % 1014,4 hPa 0,0 l/m 1,4 km/h (1 Bft) O-NO 65 0 min 0,0 UV-I 0 W/m 15,0 C 3,0 km/h (1 Bft)
29.06.2022 23:44 19,6 C 18,3 C 75 % 1014,5 hPa 0,0 l/m 0,0 km/h (0 Bft) N 0 0 min 0,0 UV-I 0 W/m 15,0 C 3,0 km/h (1 Bft)
29.06.2022 23:43 19,6 C 18,3 C 75 % 1014,4 hPa 0,0 l/m 0,0 km/h (0 Bft) N 0 0 min 0,0 UV-I 0 W/m 15,0 C 3,0 km/h (1 Bft)
29.06.2022 23:42 19,6 C 18,1 C 75 % 1014,4 hPa 0,0 l/m 1,1 km/h (1 Bft) N 0 0 min 0,0 UV-I 0 W/m 15,0 C 4,0 km/h (1 Bft)
29.06.2022 23:41 19,6 C 18,0 C 75 % 1014,6 hPa 0,0 l/m 1,4 km/h (1 Bft) N 0 0 min 0,0 UV-I 0 W/m 15,0 C 4,0 km/h (1 Bft)
29.06.2022 23:40 19,6 C 18,0 C 74 % 1014,6 hPa 0,0 l/m 0,0 km/h (0 Bft) N 0 0 min 0,0 UV-I 0 W/m 14,8 C 3,0 km/h (1 Bft)
29.06.2022 23:39 19,6 C 18,0 C 74 % 1014,3 hPa 0,0 l/m 1,3 km/h (1 Bft) N-NO 12 0 min 0,0 UV-I 0 W/m 14,8 C 3,0 km/h (1 Bft)
29.06.2022 23:38 19,6 C 18,0 C 74 % 1014,6 hPa 0,0 l/m 0,7 km/h (0 Bft) N 0 0 min 0,0 UV-I 0 W/m 14,8 C 3,0 km/h (1 Bft)
29.06.2022 23:37 19,6 C 17,9 C 74 % 1014,6 hPa 0,0 l/m 0,7 km/h (0 Bft) N 0 0 min 0,0 UV-I 0 W/m 14,8 C 3,0 km/h (1 Bft)
29.06.2022 23:36 19,6 C 17,8 C 74 % 1014,6 hPa 0,0 l/m 0,0 km/h (0 Bft) N 0 0 min 0,0 UV-I 0 W/m 14,8 C 3,0 km/h (1 Bft)
29.06.2022 23:35 19,7 C 17,9 C 74 % 1014,6 hPa 0,0 l/m 1,0 km/h (0 Bft) N-NO 26 0 min 0,0 UV-I 0 W/m 14,9 C 3,0 km/h (1 Bft)
29.06.2022 23:34 19,7 C 17,8 C 74 % 1014,8 hPa 0,0 l/m 0,6 km/h (0 Bft) N 0 0 min 0,0 UV-I 0 W/m 14,9 C 3,0 km/h (1 Bft)
29.06.2022 23:33 19,7 C 17,7 C 74 % 1014,7 hPa 0,0 l/m 1,1 km/h (1 Bft) N 0 0 min 0,0 UV-I 0 W/m 14,9 C 3,0 km/h (1 Bft)
29.06.2022 23:32 19,7 C 17,8 C 74 % 1014,8 hPa 0,0 l/m 1,1 km/h (1 Bft) N 0 0 min 0,0 UV-I 0 W/m 14,9 C 4,0 km/h (1 Bft)
29.06.2022 23:31 19,7 C 17,8 C 74 % 1014,5 hPa 0,0 l/m 0,0 km/h (0 Bft) N 0 0 min 0,0 UV-I 0 W/m 14,9 C 4,0 km/h (1 Bft)
29.06.2022 23:30 19,7 C 17,8 C 74 % 1014,6 hPa 0,0 l/m 1,5 km/h (1 Bft) N 2 0 min 0,0 UV-I 0 W/m 14,9 C 4,0 km/h (1 Bft)
29.06.2022 23:29 19,7 C 17,8 C 74 % 1014,8 hPa 0,0 l/m 0,0 km/h (0 Bft) N 0 0 min 0,0 UV-I 0 W/m 14,9 C 3,0 km/h (1 Bft)
29.06.2022 23:28 19,8 C 17,7 C 74 % 1014,7 hPa 0,0 l/m 1,0 km/h (0 Bft) N-NO 22 0 min 0,0 UV-I 0 W/m 15,0 C 4,0 km/h (1 Bft)
29.06.2022 23:27 19,8 C 17,7 C 74 % 1014,7 hPa 0,0 l/m 2,4 km/h (1 Bft) N 353 0 min 0,0 UV-I 0 W/m 15,0 C 4,0 km/h (1 Bft)
29.06.2022 23:26 19,8 C 17,8 C 74 % 1014,6 hPa 0,0 l/m 1,7 km/h (1 Bft) N 360 0 min 0,0 UV-I 0 W/m 15,0 C 3,0 km/h (1 Bft)
29.06.2022 23:25 19,8 C 17,8 C 73 % 1014,6 hPa 0,0 l/m 1,1 km/h (1 Bft) N 0 0 min 0,0 UV-I 0 W/m 14,8 C 4,0 km/h (1 Bft)
29.06.2022 23:24 19,8 C 17,9 C 73 % 1014,5 hPa 0,0 l/m 1,4 km/h (1 Bft) N 0 0 min 0,0 UV-I 0 W/m 14,8 C 4,0 km/h (1 Bft)
29.06.2022 23:23 19,8 C 17,8 C 73 % 1014,6 hPa 0,0 l/m 1,2 km/h (1 Bft) NO 46 0 min 0,0 UV-I 0 W/m 14,8 C 4,0 km/h (1 Bft)
29.06.2022 23:22 19,9 C 18,0 C 73 % 1014,6 hPa 0,0 l/m 1,0 km/h (0 Bft) N 0 0 min 0,0 UV-I 0 W/m 14,9 C 3,0 km/h (1 Bft)
29.06.2022 23:21 19,9 C 17,9 C 73 % 1014,8 hPa 0,0 l/m 0,8 km/h (0 Bft) N 0 0 min 0,0 UV-I 0 W/m 14,9 C 3,0 km/h (1 Bft)
29.06.2022 23:20 19,9 C 17,9 C 73 % 1014,5 hPa 0,0 l/m 0,0 km/h (0 Bft) N 0 0 min 0,0 UV-I 0 W/m 14,9 C 3,0 km/h (1 Bft)
29.06.2022 23:19 19,9 C 18,0 C 73 % 1014,6 hPa 0,0 l/m 0,0 km/h (0 Bft) N 0 0 min 0,0 UV-I 0 W/m 14,9 C 3,0 km/h (1 Bft)
29.06.2022 23:18 20,0 C 17,7 C 73 % 1014,8 hPa 0,0 l/m 0,0 km/h (0 Bft) N 0 0 min 0,0 UV-I 0 W/m 15,0 C 0,0 km/h (0 Bft)
29.06.2022 23:17 20,0 C 17,6 C 73 % 1014,7 hPa 0,0 l/m 0,0 km/h (0 Bft) N 0 0 min 0,0 UV-I 0 W/m 15,0 C 0,0 km/h (0 Bft)
29.06.2022 23:16 20,0 C 17,6 C 73 % 1014,6 hPa 0,0 l/m 1,0 km/h (0 Bft) N 0 0 min 0,0 UV-I 0 W/m 15,0 C 3,0 km/h (1 Bft)
29.06.2022 23:15 20,0 C 17,9 C 73 % 1014,7 hPa 0,0 l/m 1,4 km/h (1 Bft) N 356 0 min 0,0 UV-I 0 W/m 15,0 C 3,0 km/h (1 Bft)
29.06.2022 23:14 20,0 C 17,8 C 73 % 1014,5 hPa 0,0 l/m 1,3 km/h (1 Bft) N 356 0 min 0,0 UV-I 0 W/m 15,0 C 3,0 km/h (1 Bft)
29.06.2022 23:13 20,1 C 17,8 C 73 % 1014,4 hPa 0,0 l/m 0,0 km/h (0 Bft) N 0 0 min 0,0 UV-I 0 W/m 15,1 C 4,0 km/h (1 Bft)
29.06.2022 23:12 20,1 C 17,7 C 73 % 1014,5 hPa 0,0 l/m 2,0 km/h (1 Bft) O 94 0 min 0,0 UV-I 0 W/m 15,1 C 4,0 km/h (1 Bft)
29.06.2022 23:11 20,1 C 18,0 C 72 % 1014,6 hPa 0,0 l/m 0,0 km/h (0 Bft) N 0 0 min 0,0 UV-I 0 W/m 14,9 C 3,0 km/h (1 Bft)
29.06.2022 23:10 20,1 C 18,1 C 72 % 1014,6 hPa 0,0 l/m 0,6 km/h (0 Bft) N 0 0 min 0,0 UV-I 0 W/m 14,9 C 3,0 km/h (1 Bft)
29.06.2022 23:09 20,1 C 18,1 C 72 % 1014,7 hPa 0,0 l/m 0,0 km/h (0 Bft) N 0 0 min 0,0 UV-I 0 W/m 14,9 C 3,0 km/h (1 Bft)
29.06.2022 23:08 20,2 C 18,1 C 72 % 1014,5 hPa 0,0 l/m 1,2 km/h (1 Bft) N 0 0 min 0,0 UV-I 0 W/m 15,0 C 5,0 km/h (1 Bft)
29.06.2022 23:07 20,2 C 18,1 C 72 % 1014,5 hPa 0,0 l/m 2,9 km/h (1 Bft) NO 47 0 min 0,0 UV-I 0 W/m 15,0 C 5,0 km/h (1 Bft)
29.06.2022 23:06 20,2 C 17,7 C 72 % 1014,4 hPa 0,0 l/m 1,2 km/h (1 Bft) N-NO 33 0 min 0,0 UV-I 0 W/m 15,0 C 3,0 km/h (1 Bft)
29.06.2022 23:05 20,2 C 17,8 C 72 % 1014,7 hPa 0,0 l/m 0,0 km/h (0 Bft) N 0 0 min 0,0 UV-I 0 W/m 15,0 C 2,0 km/h (1 Bft)
29.06.2022 23:04 20,3 C 17,9 C 72 % 1014,6 hPa 0,0 l/m 0,7 km/h (0 Bft) N 0 0 min 0,0 UV-I 0 W/m 15,1 C 3,0 km/h (1 Bft)
29.06.2022 23:03 20,3 C 18,0 C 72 % 1014,6 hPa 0,0 l/m 1,0 km/h (0 Bft) N 0 0 min 0,0 UV-I 0 W/m 15,1 C 3,0 km/h (1 Bft)
29.06.2022 23:02 20,3 C 18,1 C 72 % 1014,5 hPa 0,0 l/m 1,0 km/h (0 Bft) N 0 0 min 0,0 UV-I 0 W/m 15,1 C 4,0 km/h (1 Bft)
29.06.2022 23:01 20,3 C 18,4 C 72 % 1014,6 hPa 0,0 l/m 0,0 km/h (0 Bft) N 0 0 min 0,0 UV-I 0 W/m 15,1 C 4,0 km/h (1 Bft)
29.06.2022 23:00 20,3 C 18,4 C 72 % 1014,5 hPa 0,0 l/m 1,0 km/h (0 Bft) N-NO 31 0 min 0,0 UV-I 0 W/m 15,1 C 4,0 km/h (1 Bft)
29.06.2022 22:59 20,4 C 18,3 C 72 % 1014,5 hPa 0,0 l/m 1,8 km/h (1 Bft) N 0 0 min 0,0 UV-I 0 W/m 15,2 C 5,0 km/h (1 Bft)
29.06.2022 22:58 20,4 C 18,3 C 71 % 1014,8 hPa 0,0 l/m 2,6 km/h (1 Bft) N-NO 15 0 min 0,0 UV-I 0 W/m 15,0 C 8,0 km/h (2 Bft)
29.06.2022 22:57 20,4 C 18,4 C 71 % 1014,6 hPa 0,0 l/m 1,6 km/h (1 Bft) N 5 0 min 0,0 UV-I 0 W/m 15,0 C 8,0 km/h (2 Bft)
29.06.2022 22:56 20,4 C 18,2 C 71 % 1014,3 hPa 0,0 l/m 3,5 km/h (1 Bft) N 353 0 min 0,0 UV-I 0 W/m 15,0 C 8,0 km/h (2 Bft)
29.06.2022 22:55 20,5 C 18,3 C 71 % 1014,4 hPa 0,0 l/m 1,0 km/h (0 Bft) N 0 0 min 0,0 UV-I 0 W/m 15,1 C 4,0 km/h (1 Bft)
29.06.2022 22:54 20,5 C 18,4 C 71 % 1014,5 hPa 0,0 l/m 1,9 km/h (1 Bft) N-NW 345 0 min 0,0 UV-I 0 W/m 15,1 C 4,0 km/h (1 Bft)
29.06.2022 22:53 20,5 C 18,2 C 71 % 1014,5 hPa 0,0 l/m 0,0 km/h (0 Bft) N 0 0 min 0,0 UV-I 0 W/m 15,1 C 3,0 km/h (1 Bft)
29.06.2022 22:52 20,5 C 18,3 C 71 % 1014,4 hPa 0,0 l/m 0,0 km/h (0 Bft) N 0 0 min 0,0 UV-I 0 W/m 15,1 C 3,0 km/h (1 Bft)
29.06.2022 22:51 20,6 C 18,4 C 71 % 1014,6 hPa 0,0 l/m 1,4 km/h (1 Bft) N 0 0 min 0,0 UV-I 0 W/m 15,2 C 5,0 km/h (1 Bft)
29.06.2022 22:50 20,6 C 18,4 C 71 % 1014,5 hPa 0,0 l/m 1,8 km/h (1 Bft) N 0 0 min 0,0 UV-I 0 W/m 15,2 C 5,0 km/h (1 Bft)
29.06.2022 22:49 20,6 C 18,7 C 71 % 1014,3 hPa 0,0 l/m 1,2 km/h (1 Bft) NO 36 0 min 0,0 UV-I 0 W/m 15,2 C 3,0 km/h (1 Bft)
29.06.2022 22:48 20,7 C 18,7 C 71 % 1014,5 hPa 0,0 l/m 0,0 km/h (0 Bft) N 0 0 min 0,0 UV-I 0 W/m 15,2 C 3,0 km/h (1 Bft)
29.06.2022 22:47 20,7 C 19,0 C 71 % 1014,5 hPa 0,0 l/m 0,0 km/h (0 Bft) N 0 0 min 0,0 UV-I 0 W/m 15,2 C 6,0 km/h (2 Bft)
29.06.2022 22:46 20,7 C 19,3 C 71 % 1014,3 hPa 0,0 l/m 3,5 km/h (1 Bft) N 357 0 min 0,0 UV-I 0 W/m 15,2 C 6,0 km/h (2 Bft)
29.06.2022 22:45 20,7 C 19,0 C 70 % 1014,5 hPa 0,0 l/m 3,3 km/h (1 Bft) NO 51 0 min 0,0 UV-I 0 W/m 15,0 C 7,0 km/h (2 Bft)
29.06.2022 22:44 20,7 C 19,0 C 70 % 1014,5 hPa 0,0 l/m 0,0 km/h (0 Bft) N 0 0 min 0,0 UV-I 0 W/m 15,0 C 7,0 km/h (2 Bft)
29.06.2022 22:43 20,7 C 19,0 C 70 % 1014,5 hPa 0,0 l/m 2,3 km/h (1 Bft) N-NO 32 0 min 0,0 UV-I 0 W/m 15,0 C 7,0 km/h (2 Bft)
29.06.2022 22:42 20,7 C 18,7 C 70 % 1014,5 hPa 0,0 l/m 2,4 km/h (1 Bft) O-NO 71 0 min 0,0 UV-I 0 W/m 15,0 C 7,0 km/h (2 Bft)
29.06.2022 22:41 20,8 C 18,8 C 70 % 1014,6 hPa 0,0 l/m 3,2 km/h (1 Bft) O-NO 71 0 min 0,0 UV-I 0 W/m 15,1 C 7,0 km/h (2 Bft)
29.06.2022 22:40 20,8 C 18,7 C 70 % 1014,4 hPa 0,0 l/m 4,5 km/h (1 Bft) N-NO 13 0 min 0,0 UV-I 0 W/m 15,1 C 9,0 km/h (2 Bft)
29.06.2022 22:39 20,8 C 18,4 C 70 % 1014,4 hPa 0,0 l/m 2,3 km/h (1 Bft) N 360 0 min 0,0 UV-I 0 W/m 15,1 C 9,0 km/h (2 Bft)
29.06.2022 22:38 20,8 C 18,3 C 70 % 1014,5 hPa 0,0 l/m 2,2 km/h (1 Bft) N-NO 22 0 min 0,0 UV-I 0 W/m 15,1 C 9,0 km/h (2 Bft)
29.06.2022 22:37 20,9 C 18,2 C 70 % 1014,4 hPa 0,0 l/m 1,8 km/h (1 Bft) N-NO 18 0 min 0,0 UV-I 0 W/m 15,2 C 3,0 km/h (1 Bft)
29.06.2022 22:36 20,9 C 18,4 C 70 % 1014,6 hPa 0,0 l/m 0,7 km/h (0 Bft) N 0 0 min 0,0 UV-I 0 W/m 15,2 C 3,0 km/h (1 Bft)
29.06.2022 22:35 21,0 C 18,6 C 70 % 1014,5 hPa 0,0 l/m 1,0 km/h (0 Bft) N 0 0 min 0,0 UV-I 0 W/m 15,3 C 3,0 km/h (1 Bft)
29.06.2022 22:34 21,0 C 18,7 C 69 % 1014,6 hPa 0,0 l/m 1,5 km/h (1 Bft) NO 45 0 min 0,0 UV-I 0 W/m 15,1 C 3,0 km/h (1 Bft)
29.06.2022 22:33 21,0 C 18,7 C 69 % 1014,4 hPa 0,0 l/m 0,0 km/h (0 Bft) N 0 0 min 0,0 UV-I 0 W/m 15,1 C 3,0 km/h (1 Bft)
29.06.2022 22:32 21,0 C 18,5 C 69 % 1014,5 hPa 0,0 l/m 0,0 km/h (0 Bft) N 0 0 min 0,0 UV-I 0 W/m 15,1 C 3,0 km/h (1 Bft)
29.06.2022 22:31 21,1 C 18,8 C 69 % 1014,7 hPa 0,0 l/m 1,1 km/h (1 Bft) N 0 0 min 0,0 UV-I 0 W/m 15,2 C 3,0 km/h (1 Bft)
29.06.2022 22:30 21,1 C 19,1 C 69 % 1014,6 hPa 0,0 l/m 1,3 km/h (1 Bft) N-NW 343 0 min 0,0 UV-I 0 W/m 15,2 C 3,0 km/h (1 Bft)
29.06.2022 22:29 21,1 C 19,4 C 69 % 1014,3 hPa 0,0 l/m 1,0 km/h (0 Bft) N-NW 343 0 min 0,0 UV-I 0 W/m 15,2 C 3,0 km/h (1 Bft)
29.06.2022 22:28 21,1 C 19,4 C 69 % 1014,4 hPa 0,0 l/m 1,0 km/h (0 Bft) N 0 0 min 0,0 UV-I 0 W/m 15,2 C 3,0 km/h (1 Bft)
29.06.2022 22:27 21,2 C 19,1 C 69 % 1014,6 hPa 0,0 l/m 0,8 km/h (0 Bft) N 0 0 min 0,0 UV-I 0 W/m 15,3 C 3,0 km/h (1 Bft)
29.06.2022 22:26 21,2 C 19,4 C 69 % 1014,5 hPa 0,0 l/m 0,7 km/h (0 Bft) N-NO 24 0 min 0,0 UV-I 0 W/m 15,3 C 3,0 km/h (1 Bft)
29.06.2022 22:25 21,2 C 19,5 C 69 % 1014,6 hPa 0,0 l/m 1,4 km/h (1 Bft) N 0 0 min 0,0 UV-I 0 W/m 15,3 C 4,0 km/h (1 Bft)
29.06.2022 22:24 21,2 C 19,4 C 69 % 1014,2 hPa 0,0 l/m 1,4 km/h (1 Bft) N 0 0 min 0,0 UV-I 0 W/m 15,3 C 4,0 km/h (1 Bft)
29.06.2022 22:23 21,3 C 19,3 C 69 % 1014,4 hPa 0,0 l/m 1,9 km/h (1 Bft) N-NO 16 0 min 0,0 UV-I 0 W/m 15,4 C 4,0 km/h (1 Bft)
29.06.2022 22:22 21,3 C 19,2 C 69 % 1014,3 hPa 0,0 l/m 2,4 km/h (1 Bft) N-NO 17 0 min 0,0 UV-I 0 W/m 15,4 C 4,0 km/h (1 Bft)
29.06.2022 22:21 21,3 C 19,6 C 69 % 1014,5 hPa 0,0 l/m 1,6 km/h (1 Bft) O-NO 62 0 min 0,0 UV-I 0 W/m 15,4 C 4,0 km/h (1 Bft)
29.06.2022 22:20 21,3 C 19,6 C 68 % 1014,6 hPa 0,0 l/m 1,0 km/h (0 Bft) N-NO 28 0 min 0,0 UV-I 0 W/m 15,1 C 4,0 km/h (1 Bft)
29.06.2022 22:19 21,3 C 19,8 C 68 % 1014,4 hPa 0,0 l/m 2,9 km/h (1 Bft) N-NO 27 0 min 0,0 UV-I 0 W/m 15,1 C 7,0 km/h (2 Bft)
29.06.2022 22:18 21,4 C 19,7 C 68 % 1014,5 hPa 0,0 l/m 3,2 km/h (1 Bft) N 10 0 min 0,0 UV-I 0 W/m 15,2 C 7,0 km/h (2 Bft)
29.06.2022 22:17 21,4 C 19,7 C 68 % 1014,4 hPa 0,0 l/m 3,2 km/h (1 Bft) NO 47 0 min 0,0 UV-I 0 W/m 15,2 C 10,0 km/h (2 Bft)
29.06.2022 22:16 21,4 C 19,7 C 68 % 1014,5 hPa 0,0 l/m 1,3 km/h (1 Bft) NO 47 0 min 0,0 UV-I 0 W/m 15,2 C 10,0 km/h (2 Bft)
29.06.2022 22:15 21,5 C 19,6 C 68 % 1014,5 hPa 0,0 l/m 1,7 km/h (1 Bft) N-NO 23 0 min 0,0 UV-I 0 W/m 15,3 C 10,0 km/h (2 Bft)
29.06.2022 22:14 21,4 C 19,6 C 68 % 1014,3 hPa 0,0 l/m 2,1 km/h (1 Bft) N-NW 348 0 min 0,0 UV-I 0 W/m 15,2 C 4,0 km/h (1 Bft)
29.06.2022 22:13 21,4 C 19,8 C 68 % 1014,4 hPa 0,0 l/m 2,3 km/h (1 Bft) O 82 0 min 0,0 UV-I 0 W/m 15,2 C 4,0 km/h (1 Bft)
29.06.2022 22:12 21,5 C 19,6 C 68 % 1014,4 hPa 0,0 l/m 2,0 km/h (1 Bft) O-SO 112 0 min 0,0 UV-I 0 W/m 15,3 C 3,0 km/h (1 Bft)
29.06.2022 22:11 21,5 C 19,7 C 68 % 1014,3 hPa 0,0 l/m 1,9 km/h (1 Bft) NO 41 0 min 0,0 UV-I 0 W/m 15,3 C 3,0 km/h (1 Bft)
29.06.2022 22:10 21,6 C 19,7 C 68 % 1014,4 hPa 0,0 l/m 2,1 km/h (1 Bft) N-NO 28 0 min 0,0 UV-I 0 W/m 15,4 C 4,0 km/h (1 Bft)
29.06.2022 22:09 21,6 C 19,7 C 68 % 1014,4 hPa 0,0 l/m 1,0 km/h (0 Bft) N-NO 30 0 min 0,0 UV-I 0 W/m 15,4 C 4,0 km/h (1 Bft)
29.06.2022 22:08 21,6 C 19,7 C 68 % 1014,3 hPa 0,0 l/m 2,3 km/h (1 Bft) NO 43 0 min 0,0 UV-I 0 W/m 15,4 C 4,0 km/h (1 Bft)
29.06.2022 22:07 21,6 C 19,7 C 68 % 1014,4 hPa 0,0 l/m 3,1 km/h (1 Bft) N-NO 22 0 min 0,0 UV-I 0 W/m 15,4 C 4,0 km/h (1 Bft)
29.06.2022 22:06 21,7 C 19,5 C 68 % 1014,3 hPa 0,0 l/m 1,7 km/h (1 Bft) N 359 0 min 0,0 UV-I 0 W/m 15,5 C 4,0 km/h (1 Bft)
29.06.2022 22:05 21,7 C 19,3 C 67 % 1014,3 hPa 0,0 l/m 1,3 km/h (1 Bft) N-NO 21 0 min 0,0 UV-I 0 W/m 15,3 C 4,0 km/h (1 Bft)
29.06.2022 22:04 21,7 C 19,5 C 67 % 1014,4 hPa 0,0 l/m 0,8 km/h (0 Bft) N 0 0 min 0,0 UV-I 0 W/m 15,3 C 3,0 km/h (1 Bft)
29.06.2022 22:03 21,7 C 19,5 C 67 % 1014,4 hPa 0,0 l/m 1,1 km/h (1 Bft) N 0 0 min 0,0 UV-I 0 W/m 15,3 C 3,0 km/h (1 Bft)
29.06.2022 22:02 21,8 C 19,6 C 67 % 1014,2 hPa 0,0 l/m 0,0 km/h (0 Bft) N 0 0 min 0,0 UV-I 0 W/m 15,4 C 3,0 km/h (1 Bft)
29.06.2022 22:01 21,8 C 19,8 C 67 % 1014,4 hPa 0,0 l/m 1,7 km/h (1 Bft) N 0 0 min 0,0 UV-I 0 W/m 15,4 C 5,0 km/h (1 Bft)
29.06.2022 22:00 21,8 C 20,0 C 67 % 1014,4 hPa 0,0 l/m 1,6 km/h (1 Bft) N 0 0 min 0,0 UV-I 0 W/m 15,4 C 6,0 km/h (2 Bft)
29.06.2022 21:59 21,8 C 20,1 C 67 % 1014,4 hPa 0,0 l/m 1,4 km/h (1 Bft) N-NO 29 0 min 0,0 UV-I 0 W/m 15,4 C 6,0 km/h (2 Bft)
29.06.2022 21:58 21,8 C 20,0 C 67 % 1014,2 hPa 0,0 l/m 2,3 km/h (1 Bft) NO 54 0 min 0,0 UV-I 0 W/m 15,4 C 6,0 km/h (2 Bft)
29.06.2022 21:57 21,8 C 20,1 C 67 % 1014,2 hPa 0,0 l/m 1,0 km/h (0 Bft) NO 52 0 min 0,0 UV-I 0 W/m 15,4 C 3,0 km/h (1 Bft)
29.06.2022 21:56 21,8 C 20,5 C 67 % 1014,2 hPa 0,0 l/m 0,7 km/h (0 Bft) N-NO 28 0 min 0,0 UV-I 0 W/m 15,4 C 7,0 km/h (2 Bft)
29.06.2022 21:55 21,8 C 20,3 C 67 % 1014,0 hPa 0,0 l/m 3,3 km/h (1 Bft) W-NW 295 0 min 0,0 UV-I 0 W/m 15,4 C 7,0 km/h (2 Bft)
29.06.2022 21:54 21,8 C 20,4 C 67 % 1014,1 hPa 0,0 l/m 1,8 km/h (1 Bft) N 3 0 min 0,0 UV-I 0 W/m 15,4 C 4,0 km/h (1 Bft)
29.06.2022 21:53 21,9 C 20,5 C 67 % 1014,3 hPa 0,0 l/m 1,8 km/h (1 Bft) N 0 0 min 0,0 UV-I 0 W/m 15,5 C 5,0 km/h (1 Bft)
29.06.2022 21:52 21,9 C 20,3 C 67 % 1014,2 hPa 0,0 l/m 2,5 km/h (1 Bft) NO 38 0 min 0,0 UV-I 0 W/m 15,5 C 5,0 km/h (1 Bft)
29.06.2022 21:51 21,9 C 19,8 C 67 % 1014,3 hPa 0,0 l/m 4,1 km/h (1 Bft) NO 38 0 min 0,0 UV-I 0 W/m 15,5 C 5,0 km/h (1 Bft)
29.06.2022 21:50 21,9 C 19,9 C 67 % 1014,3 hPa 0,0 l/m 3,3 km/h (1 Bft) N-NO 26 0 min 0,0 UV-I 0 W/m 15,5 C 5,0 km/h (1 Bft)
29.06.2022 21:49 21,9 C 19,9 C 67 % 1014,4 hPa 0,0 l/m 1,7 km/h (1 Bft) N-NO 12 0 min 0,0 UV-I 0 W/m 15,5 C 5,0 km/h (1 Bft)
29.06.2022 21:48 22,0 C 19,9 C 67 % 1013,9 hPa 0,0 l/m 2,3 km/h (1 Bft) N-NO 32 0 min 0,0 UV-I 0 W/m 15,6 C 5,0 km/h (1 Bft)
29.06.2022 21:47 22,0 C 19,8 C 67 % 1014,1 hPa 0,0 l/m 1,3 km/h (1 Bft) N-NO 20 0 min 0,0 UV-I 0 W/m 15,6 C 3,0 km/h (1 Bft)
29.06.2022 21:46 22,1 C 19,8 C 67 % 1014,3 hPa 0,0 l/m 2,0 km/h (1 Bft) N-NO 24 0 min 0,0 UV-I 0 W/m 15,7 C 3,0 km/h (1 Bft)
29.06.2022 21:45 22,1 C 19,7 C 66 % 1014,4 hPa 0,0 l/m 0,7 km/h (0 Bft) N 0 0 min 0,0 UV-I 0 W/m 15,4 C 3,0 km/h (1 Bft)
29.06.2022 21:44 22,1 C 20,0 C 66 % 1014,1 hPa 0,0 l/m 1,3 km/h (1 Bft) N 0 0 min 0,0 UV-I 0 W/m 15,4 C 4,0 km/h (1 Bft)
29.06.2022 21:43 22,2 C 20,2 C 66 % 1014,3 hPa 0,0 l/m 1,0 km/h (0 Bft) N 0 0 min 0,0 UV-I 0 W/m 15,5 C 4,0 km/h (1 Bft)
29.06.2022 21:42 22,2 C 20,1 C 66 % 1014,4 hPa 0,0 l/m 1,7 km/h (1 Bft) N 358 0 min 0,0 UV-I 1 W/m 15,5 C 4,0 km/h (1 Bft)
29.06.2022 21:41 22,2 C 20,0 C 66 % 1014,1 hPa 0,0 l/m 0,7 km/h (0 Bft) N 0 0 min 0,0 UV-I 1 W/m 15,5 C 3,0 km/h (1 Bft)
29.06.2022 21:40 22,2 C 20,3 C 66 % 1014,0 hPa 0,0 l/m 0,7 km/h (0 Bft) N 0 0 min 0,0 UV-I 1 W/m 15,5 C 3,0 km/h (1 Bft)
29.06.2022 21:39 22,3 C 20,5 C 66 % 1014,0 hPa 0,0 l/m 1,0 km/h (0 Bft) N-NO 22 0 min 0,0 UV-I 1 W/m 15,6 C 3,0 km/h (1 Bft)
29.06.2022 21:38 22,3 C 20,7 C 66 % 1014,3 hPa 0,0 l/m 2,1 km/h (1 Bft) N-NO 12 0 min 0,0 UV-I 1 W/m 15,6 C 3,0 km/h (1 Bft)
29.06.2022 21:37 22,3 C 20,6 C 66 % 1014,2 hPa 0,0 l/m 2,9 km/h (1 Bft) N 8 0 min 0,0 UV-I 2 W/m 15,6 C 4,0 km/h (1 Bft)
29.06.2022 21:36 22,3 C 20,6 C 66 % 1014,2 hPa 0,0 l/m 2,3 km/h (1 Bft) N-NO 17 0 min 0,0 UV-I 3 W/m 15,6 C 4,0 km/h (1 Bft)
29.06.2022 21:35 22,4 C 20,4 C 66 % 1014,1 hPa 0,0 l/m 3,0 km/h (1 Bft) N-NO 13 0 min 0,0 UV-I 2 W/m 15,7 C 4,0 km/h (1 Bft)
29.06.2022 21:34 22,4 C 20,3 C 66 % 1014,2 hPa 0,0 l/m 0,7 km/h (0 Bft) N 0 0 min 0,0 UV-I 3 W/m 15,7 C 3,0 km/h (1 Bft)
29.06.2022 21:33 22,4 C 20,4 C 65 % 1014,1 hPa 0,0 l/m 0,9 km/h (0 Bft) N 0 0 min 0,0 UV-I 3 W/m 15,5 C 3,0 km/h (1 Bft)
29.06.2022 21:32 22,4 C 20,4 C 65 % 1014,2 hPa 0,0 l/m 1,2 km/h (1 Bft) N-NO 24 0 min 0,0 UV-I 3 W/m 15,5 C 3,0 km/h (1 Bft)
29.06.2022 21:31 22,4 C 20,5 C 65 % 1014,0 hPa 0,0 l/m 1,7 km/h (1 Bft) N 0 0 min 0,0 UV-I 4 W/m 15,5 C 5,0 km/h (1 Bft)
29.06.2022 21:30 22,4 C 20,8 C 65 % 1014,0 hPa 0,0 l/m 2,0 km/h (1 Bft) N 11 0 min 0,0 UV-I 4 W/m 15,5 C 5,0 km/h (1 Bft)
29.06.2022 21:29 22,5 C 20,8 C 65 % 1014,0 hPa 0,0 l/m 1,4 km/h (1 Bft) N 11 0 min 0,0 UV-I 4 W/m 15,6 C 5,0 km/h (1 Bft)
29.06.2022 21:28 22,5 C 20,7 C 65 % 1014,1 hPa 0,0 l/m 1,4 km/h (1 Bft) N-NO 30 0 min 0,0 UV-I 6 W/m 15,6 C 4,0 km/h (1 Bft)
29.06.2022 21:27 22,5 C 20,6 C 65 % 1013,9 hPa 0,0 l/m 0,7 km/h (0 Bft) N-NO 23 0 min 0,0 UV-I 6 W/m 15,6 C 4,0 km/h (1 Bft)
29.06.2022 21:26 22,5 C 20,6 C 65 % 1013,8 hPa 0,0 l/m 1,3 km/h (1 Bft) N 0 0 min 0,0 UV-I 7 W/m 15,6 C 4,0 km/h (1 Bft)
29.06.2022 21:25 22,5 C 20,4 C 65 % 1014,1 hPa 0,0 l/m 1,9 km/h (1 Bft) S-SW 195 0 min 0,0 UV-I 7 W/m 15,6 C 5,0 km/h (1 Bft)
29.06.2022 21:24 22,5 C 20,5 C 65 % 1013,8 hPa 0,0 l/m 1,3 km/h (1 Bft) NO 34 0 min 0,0 UV-I 7 W/m 15,6 C 5,0 km/h (1 Bft)
29.06.2022 21:23 22,6 C 20,6 C 65 % 1013,9 hPa 0,0 l/m 2,7 km/h (1 Bft) NO 37 0 min 0,0 UV-I 8 W/m 15,7 C 5,0 km/h (1 Bft)
29.06.2022 21:22 22,6 C 20,4 C 65 % 1014,0 hPa 0,0 l/m 2,5 km/h (1 Bft) N-NO 27 0 min 0,0 UV-I 8 W/m 15,7 C 3,0 km/h (1 Bft)
29.06.2022 21:21 22,7 C 20,4 C 65 % 1014,1 hPa 0,0 l/m 0,8 km/h (0 Bft) N 0 0 min 0,0 UV-I 9 W/m 15,8 C 3,0 km/h (1 Bft)
29.06.2022 21:20 22,7 C 20,6 C 65 % 1014,0 hPa 0,0 l/m 0,0 km/h (0 Bft) N 0 0 min 0,0 UV-I 9 W/m 15,8 C 3,0 km/h (1 Bft)
29.06.2022 21:19 22,7 C 20,6 C 65 % 1014,1 hPa 0,0 l/m 0,6 km/h (0 Bft) N 0 0 min 0,0 UV-I 10 W/m 15,8 C 3,0 km/h (1 Bft)
29.06.2022 21:18 22,8 C 20,9 C 64 % 1014,1 hPa 0,0 l/m 0,0 km/h (0 Bft) N 0 0 min 0,0 UV-I 10 W/m 15,6 C 3,0 km/h (1 Bft)
29.06.2022 21:17 22,8 C 21,1 C 64 % 1014,0 hPa 0,0 l/m 0,7 km/h (0 Bft) O-NO 58 0 min 0,0 UV-I 10 W/m 15,6 C 6,0 km/h (2 Bft)
29.06.2022 21:16 22,8 C 21,3 C 64 % 1013,9 hPa 0,0 l/m 4,3 km/h (1 Bft) NO 39 0 min 0,0 UV-I 12 W/m 15,6 C 6,0 km/h (2 Bft)
29.06.2022 21:15 22,8 C 21,0 C 64 % 1014,1 hPa 0,0 l/m 2,0 km/h (1 Bft) N-NO 22 0 min 0,0 UV-I 12 W/m 15,6 C 5,0 km/h (1 Bft)
29.06.2022 21:14 22,9 C 21,1 C 64 % 1014,0 hPa 0,0 l/m 2,6 km/h (1 Bft) NO 45 0 min 0,0 UV-I 13 W/m 15,7 C 5,0 km/h (1 Bft)
29.06.2022 21:13 22,9 C 21,2 C 64 % 1014,0 hPa 0,0 l/m 1,4 km/h (1 Bft) N-NO 16 0 min 0,0 UV-I 13 W/m 15,7 C 5,0 km/h (1 Bft)
29.06.2022 21:12 22,9 C 21,4 C 64 % 1013,9 hPa 0,0 l/m 3,2 km/h (1 Bft) N-NO 33 0 min 0,0 UV-I 14 W/m 15,7 C 8,0 km/h (2 Bft)
29.06.2022 21:11 22,9 C 21,6 C 64 % 1014,1 hPa 0,0 l/m 4,3 km/h (1 Bft) N-NO 29 0 min 0,0 UV-I 14 W/m 15,7 C 8,0 km/h (2 Bft)
29.06.2022 21:10 23,0 C 21,3 C 64 % 1014,1 hPa 0,0 l/m 3,1 km/h (1 Bft) O-NO 61 0 min 0,0 UV-I 14 W/m 15,8 C 5,0 km/h (1 Bft)
29.06.2022 21:09 23,0 C 21,4 C 64 % 1014,0 hPa 0,0 l/m 2,5 km/h (1 Bft) NO 44 0 min 0,0 UV-I 15 W/m 15,8 C 5,0 km/h (1 Bft)
29.06.2022 21:08 23,0 C 21,5 C 64 % 1014,2 hPa 0,0 l/m 3,1 km/h (1 Bft) NO 41 0 min 0,0 UV-I 17 W/m 15,8 C 5,0 km/h (1 Bft)
29.06.2022 21:07 23,0 C 21,5 C 64 % 1014,1 hPa 0,0 l/m 3,7 km/h (1 Bft) NO 48 0 min 0,0 UV-I 17 W/m 15,8 C 6,0 km/h (2 Bft)
29.06.2022 21:06 23,0 C 21,4 C 64 % 1014,1 hPa 0,0 l/m 2,8 km/h (1 Bft) O-NO 61 0 min 0,0 UV-I 17 W/m 15,8 C 6,0 km/h (2 Bft)
29.06.2022 21:05 23,1 C 21,4 C 64 % 1014,2 hPa 0,0 l/m 2,3 km/h (1 Bft) NO 36 0 min 0,0 UV-I 18 W/m 15,9 C 6,0 km/h (2 Bft)
29.06.2022 21:04 23,1 C 21,1 C 64 % 1014,2 hPa 0,0 l/m 0,9 km/h (0 Bft) NO 44 0 min 0,0 UV-I 18 W/m 15,9 C 8,0 km/h (2 Bft)
29.06.2022 21:03 23,1 C 21,2 C 64 % 1014,0 hPa 0,0 l/m 4,5 km/h (1 Bft) N-NO 24 0 min 0,0 UV-I 19 W/m 15,9 C 8,0 km/h (2 Bft)
29.06.2022 21:02 23,1 C 21,4 C 64 % 1014,2 hPa 0,0 l/m 1,5 km/h (1 Bft) O 98 0 min 0,0 UV-I 20 W/m 15,9 C 4,0 km/h (1 Bft)
29.06.2022 21:01 23,2 C 21,3 C 64 % 1014,2 hPa 0,0 l/m 1,0 km/h (0 Bft) O 98 0 min 0,0 UV-I 20 W/m 16,0 C 4,0 km/h (1 Bft)
29.06.2022 21:00 23,2 C 21,3 C 63 % 1014,0 hPa 0,0 l/m 0,0 km/h (0 Bft) N 0 0 min 0,0 UV-I 20 W/m 15,8 C 3,0 km/h (1 Bft)
29.06.2022 20:59 23,2 C 21,5 C 63 % 1014,1 hPa 0,0 l/m 2,4 km/h (1 Bft) N 350 0 min 0,0 UV-I 22 W/m 15,8 C 8,0 km/h (2 Bft)
29.06.2022 20:58 23,3 C 21,5 C 63 % 1014,1 hPa 0,0 l/m 2,4 km/h (1 Bft) O-NO 71 0 min 0,0 UV-I 23 W/m 15,9 C 8,0 km/h (2 Bft)
29.06.2022 20:57 23,3 C 21,7 C 63 % 1014,0 hPa 0,0 l/m 1,0 km/h (0 Bft) O-NO 71 0 min 0,0 UV-I 23 W/m 15,9 C 8,0 km/h (2 Bft)
29.06.2022 20:56 23,3 C 21,9 C 63 % 1014,0 hPa 0,0 l/m 1,3 km/h (1 Bft) O 87 0 min 0,0 UV-I 24 W/m 15,9 C 7,0 km/h (2 Bft)
29.06.2022 20:55 23,3 C 21,5 C 63 % 1014,1 hPa 0,0 l/m 1,8 km/h (1 Bft) N 8 0 min 0,0 UV-I 24 W/m 15,9 C 7,0 km/h (2 Bft)
29.06.2022 20:54 23,3 C 21,6 C 63 % 1014,0 hPa 0,0 l/m 1,4 km/h (1 Bft) N 0 0 min 0,0 UV-I 24 W/m 15,9 C 4,0 km/h (1 Bft)
29.06.2022 20:53 23,3 C 21,8 C 63 % 1014,3 hPa 0,0 l/m 2,3 km/h (1 Bft) NO 53 0 min 0,0 UV-I 26 W/m 15,9 C 4,0 km/h (1 Bft)
29.06.2022 20:52 23,4 C 21,7 C 63 % 1014,2 hPa 0,0 l/m 2,3 km/h (1 Bft) NO 51 0 min 0,0 UV-I 28 W/m 15,9 C 4,0 km/h (1 Bft)
29.06.2022 20:51 23,4 C 21,9 C 63 % 1014,1 hPa 0,0 l/m 3,4 km/h (1 Bft) N-NO 16 0 min 0,0 UV-I 28 W/m 15,9 C 6,0 km/h (2 Bft)
29.06.2022 20:50 23,5 C 21,8 C 63 % 1014,0 hPa 0,0 l/m 1,4 km/h (1 Bft) N-NO 18 0 min 0,0 UV-I 29 W/m 16,0 C 6,0 km/h (2 Bft)
29.06.2022 20:49 23,5 C 21,6 C 63 % 1014,2 hPa 0,0 l/m 1,8 km/h (1 Bft) O 89 0 min 0,0 UV-I 28 W/m 16,0 C 6,0 km/h (2 Bft)
29.06.2022 20:48 23,5 C 21,7 C 63 % 1014,1 hPa 0,0 l/m 1,8 km/h (1 Bft) N 1 0 min 0,0 UV-I 29 W/m 16,0 C 5,0 km/h (1 Bft)
29.06.2022 20:47 23,5 C 22,1 C 62 % 1014,2 hPa 0,0 l/m 1,1 km/h (1 Bft) N 0 0 min 0,0 UV-I 29 W/m 15,8 C 4,0 km/h (1 Bft)
29.06.2022 20:46 23,6 C 22,2 C 62 % 1014,1 hPa 0,0 l/m 0,0 km/h (0 Bft) N 0 0 min 0,0 UV-I 29 W/m 15,9 C 4,0 km/h (1 Bft)
29.06.2022 20:45 23,6 C 22,2 C 62 % 1014,1 hPa 0,0 l/m 0,9 km/h (0 Bft) O-NO 71 0 min 0,0 UV-I 29 W/m 15,9 C 4,0 km/h (1 Bft)
29.06.2022 20:44 23,6 C 22,3 C 62 % 1014,1 hPa 0,0 l/m 2,6 km/h (1 Bft) O-NO 60 0 min 0,0 UV-I 29 W/m 15,9 C 9,0 km/h (2 Bft)
29.06.2022 20:43 23,6 C 22,3 C 62 % 1014,0 hPa 0,0 l/m 5,3 km/h (1 Bft) NO 48 0 min 0,0 UV-I 29 W/m 15,9 C 9,0 km/h (2 Bft)
29.06.2022 20:42 23,7 C 21,9 C 62 % 1014,3 hPa 0,0 l/m 1,7 km/h (1 Bft) N 0 0 min 0,0 UV-I 28 W/m 16,0 C 5,0 km/h (1 Bft)
29.06.2022 20:41 23,7 C 21,9 C 62 % 1014,1 hPa 0,0 l/m 0,0 km/h (0 Bft) N 0 0 min 0,0 UV-I 28 W/m 16,0 C 5,0 km/h (1 Bft)
29.06.2022 20:40 23,7 C 22,1 C 62 % 1014,1 hPa 0,0 l/m 0,0 km/h (0 Bft) N 0 0 min 0,0 UV-I 28 W/m 16,0 C 3,0 km/h (1 Bft)
29.06.2022 20:39 23,7 C 22,4 C 62 % 1014,1 hPa 0,0 l/m 1,3 km/h (1 Bft) N 0 0 min 0,0 UV-I 28 W/m 16,0 C 4,0 km/h (1 Bft)
29.06.2022 20:38 23,7 C 22,4 C 62 % 1014,1 hPa 0,0 l/m 1,5 km/h (1 Bft) N-NO 29 0 min 0,0 UV-I 30 W/m 16,0 C 4,0 km/h (1 Bft)
29.06.2022 20:37 23,7 C 22,4 C 62 % 1014,1 hPa 0,0 l/m 2,9 km/h (1 Bft) N-NO 21 0 min 0,0 UV-I 30 W/m 16,0 C 6,0 km/h (2 Bft)
29.06.2022 20:36 23,7 C 22,3 C 62 % 1014,3 hPa 0,0 l/m 3,3 km/h (1 Bft) N-NO 18 0 min 0,0 UV-I 30 W/m 16,0 C 6,0 km/h (2 Bft)
29.06.2022 20:35 23,7 C 22,3 C 62 % 1014,1 hPa 0,0 l/m 2,0 km/h (1 Bft) N-NO 18 0 min 0,0 UV-I 31 W/m 16,0 C 6,0 km/h (2 Bft)
29.06.2022 20:34 23,8 C 22,1 C 62 % 1013,9 hPa 0,0 l/m 2,6 km/h (1 Bft) N-NO 20 0 min 0,0 UV-I 31 W/m 16,1 C 6,0 km/h (2 Bft)
29.06.2022 20:33 23,8 C 22,0 C 62 % 1014,0 hPa 0,0 l/m 2,3 km/h (1 Bft) NO 46 0 min 0,0 UV-I 31 W/m 16,1 C 3,0 km/h (1 Bft)
29.06.2022 20:32 23,8 C 22,2 C 62 % 1014,1 hPa 0,0 l/m 1,8 km/h (1 Bft) NO 44 0 min 0,0 UV-I 31 W/m 16,1 C 5,0 km/h (1 Bft)
29.06.2022 20:31 23,9 C 22,3 C 62 % 1014,1 hPa 0,0 l/m 0,0 km/h (0 Bft) N 0 0 min 0,0 UV-I 31 W/m 16,2 C 5,0 km/h (1 Bft)
29.06.2022 20:30 23,9 C 22,7 C 62 % 1014,0 hPa 0,0 l/m 3,1 km/h (1 Bft) O-NO 70 0 min 0,0 UV-I 31 W/m 16,2 C 5,0 km/h (1 Bft)
29.06.2022 20:29 23,9 C 22,8 C 62 % 1014,1 hPa 0,0 l/m 0,0 km/h (0 Bft) N 0 0 min 0,0 UV-I 31 W/m 16,2 C 7,0 km/h (2 Bft)
29.06.2022 20:28 23,9 C 22,5 C 62 % 1014,1 hPa 0,0 l/m 3,5 km/h (1 Bft) NO 45 0 min 0,0 UV-I 34 W/m 16,2 C 7,0 km/h (2 Bft)
29.06.2022 20:27 23,9 C 22,5 C 62 % 1014,3 hPa 0,0 l/m 2,5 km/h (1 Bft) N-NO 28 0 min 0,0 UV-I 34 W/m 16,2 C 5,0 km/h (1 Bft)
29.06.2022 20:26 24,0 C 22,6 C 61 % 1014,2 hPa 0,0 l/m 1,3 km/h (1 Bft) NO 44 0 min 0,0 UV-I 35 W/m 16,0 C 4,0 km/h (1 Bft)
29.06.2022 20:25 24,0 C 22,7 C 61 % 1014,3 hPa 0,0 l/m 1,0 km/h (0 Bft) N 0 0 min 0,0 UV-I 35 W/m 16,0 C 4,0 km/h (1 Bft)
29.06.2022 20:24 24,0 C 22,7 C 61 % 1014,1 hPa 0,0 l/m 2,1 km/h (1 Bft) N-NO 31 0 min 0,0 UV-I 34 W/m 16,0 C 4,0 km/h (1 Bft)
29.06.2022 20:23 24,0 C 22,7 C 61 % 1014,3 hPa 0,0 l/m 1,3 km/h (1 Bft) NO 55 0 min 0,0 UV-I 32 W/m 16,0 C 4,0 km/h (1 Bft)
29.06.2022 20:22 24,1 C 22,8 C 61 % 1014,2 hPa 0,0 l/m 1,0 km/h (0 Bft) N-NO 19 0 min 0,0 UV-I 31 W/m 16,1 C 12,0 km/h (2 Bft)
29.06.2022 20:21 24,1 C 22,7 C 61 % 1014,3 hPa 0,0 l/m 3,4 km/h (1 Bft) O-NO 69 0 min 0,0 UV-I 31 W/m 16,1 C 12,0 km/h (2 Bft)
29.06.2022 20:20 24,1 C 22,7 C 61 % 1014,1 hPa 0,0 l/m 0,0 km/h (0 Bft) N 0 0 min 0,0 UV-I 31 W/m 16,1 C 3,0 km/h (1 Bft)
29.06.2022 20:19 24,2 C 22,7 C 61 % 1014,2 hPa 0,0 l/m 1,6 km/h (1 Bft) N 0 0 min 0,0 UV-I 31 W/m 16,2 C 5,0 km/h (1 Bft)
29.06.2022 20:18 24,2 C 22,9 C 60 % 1014,3 hPa 0,0 l/m 1,9 km/h (1 Bft) N-NO 27 0 min 0,0 UV-I 31 W/m 15,9 C 5,0 km/h (1 Bft)
29.06.2022 20:17 24,3 C 22,8 C 60 % 1014,3 hPa 0,0 l/m 2,4 km/h (1 Bft) SW 232 0 min 0,0 UV-I 34 W/m 16,0 C 5,0 km/h (1 Bft)
29.06.2022 20:16 24,3 C 22,9 C 60 % 1014,2 hPa 0,0 l/m 1,0 km/h (0 Bft) N 9 0 min 0,0 UV-I 35 W/m 16,0 C 5,0 km/h (1 Bft)
29.06.2022 20:15 24,3 C 22,6 C 60 % 1014,1 hPa 0,0 l/m 1,9 km/h (1 Bft) N 360 0 min 0,0 UV-I 37 W/m 16,0 C 5,0 km/h (1 Bft)
29.06.2022 20:14 24,3 C 22,5 C 60 % 1014,1 hPa 0,0 l/m 1,4 km/h (1 Bft) N 0 0 min 0,0 UV-I 41 W/m 16,0 C 4,0 km/h (1 Bft)
29.06.2022 20:13 24,4 C 22,5 C 60 % 1014,3 hPa 0,0 l/m 0,7 km/h (0 Bft) N 0 0 min 0,0 UV-I 44 W/m 16,1 C 3,0 km/h (1 Bft)
29.06.2022 20:12 24,4 C 22,5 C 60 % 1014,1 hPa 0,0 l/m 1,2 km/h (1 Bft) N 0 0 min 0,0 UV-I 44 W/m 16,1 C 5,0 km/h (1 Bft)
29.06.2022 20:11 24,4 C 22,7 C 60 % 1014,2 hPa 0,0 l/m 0,0 km/h (0 Bft) N 0 0 min 0,0 UV-I 44 W/m 16,1 C 5,0 km/h (1 Bft)
29.06.2022 20:10 24,4 C 23,0 C 60 % 1014,0 hPa 0,0 l/m 2,0 km/h (1 Bft) N 0 0 min 0,0 UV-I 42 W/m 16,1 C 6,0 km/h (2 Bft)
29.06.2022 20:09 24,5 C 23,2 C 60 % 1014,2 hPa 0,0 l/m 1,5 km/h (1 Bft) N 0 0 min 0,0 UV-I 42 W/m 16,2 C 6,0 km/h (2 Bft)
29.06.2022 20:08 24,5 C 23,3 C 60 % 1014,3 hPa 0,0 l/m 2,4 km/h (1 Bft) NO 50 0 min 0,0 UV-I 44 W/m 16,2 C 8,0 km/h (2 Bft)
29.06.2022 20:07 24,5 C 23,5 C 60 % 1014,0 hPa 0,0 l/m 2,5 km/h (1 Bft) O-NO 67 0 min 0,0 UV-I 47 W/m 16,2 C 8,0 km/h (2 Bft)
29.06.2022 20:06 24,5 C 23,6 C 60 % 1014,0 hPa 0,0 l/m 4,8 km/h (1 Bft) NO 44 0 min 0,0 UV-I 51 W/m 16,2 C 8,0 km/h (2 Bft)
29.06.2022 20:05 24,5 C 23,6 C 59 % 1014,0 hPa 0,0 l/m 2,3 km/h (1 Bft) NO 35 0 min 0,0 UV-I 56 W/m 15,9 C 4,0 km/h (1 Bft)
29.06.2022 20:04 24,6 C 23,8 C 60 % 1014,0 hPa 0,0 l/m 2,0 km/h (1 Bft) N-NO 25 0 min 0,0 UV-I 62 W/m 16,3 C 4,0 km/h (1 Bft)
29.06.2022 20:03 24,6 C 23,8 C 59 % 1013,9 hPa 0,0 l/m 1,6 km/h (1 Bft) NO 46 0 min 0,0 UV-I 68 W/m 16,0 C 3,0 km/h (1 Bft)
29.06.2022 20:02 24,6 C 23,7 C 59 % 1013,9 hPa 0,0 l/m 1,3 km/h (1 Bft) NO 47 0 min 0,0 UV-I 74 W/m 16,0 C 3,0 km/h (1 Bft)
29.06.2022 20:01 24,6 C 23,6 C 59 % 1014,1 hPa 0,0 l/m 1,8 km/h (1 Bft) N 0 0 min 0,0 UV-I 75 W/m 16,0 C 5,0 km/h (1 Bft)
29.06.2022 20:00 24,6 C 23,7 C 59 % 1014,1 hPa 0,0 l/m 2,0 km/h (1 Bft) S-SO 153 0 min 0,0 UV-I 77 W/m 16,0 C 5,0 km/h (1 Bft)
29.06.2022 19:59 24,6 C 23,8 C 59 % 1014,0 hPa 0,0 l/m 1,3 km/h (1 Bft) S-SO 153 0 min 0,0 UV-I 75 W/m 16,0 C 5,0 km/h (1 Bft)
29.06.2022 19:58 24,6 C 23,8 C 59 % 1014,0 hPa 0,0 l/m 2,2 km/h (1 Bft) N-NO 29 0 min 0,0 UV-I 72 W/m 16,0 C 6,0 km/h (2 Bft)
29.06.2022 19:57 24,7 C 23,8 C 59 % 1014,2 hPa 0,0 l/m 3,1 km/h (1 Bft) N 360 0 min 0,0 UV-I 69 W/m 16,1 C 6,0 km/h (2 Bft)
29.06.2022 19:56 24,7 C 23,8 C 59 % 1014,1 hPa 0,0 l/m 0,7 km/h (0 Bft) NO 39 0 min 0,0 UV-I 67 W/m 16,1 C 5,0 km/h (1 Bft)
29.06.2022 19:55 24,7 C 24,0 C 59 % 1014,0 hPa 0,0 l/m 2,6 km/h (1 Bft) O-NO 61 0 min 0,0 UV-I 68 W/m 16,1 C 5,0 km/h (1 Bft)
29.06.2022 19:54 24,7 C 24,1 C 59 % 1013,9 hPa 0,0 l/m 2,3 km/h (1 Bft) NO 49 0 min 0,0 UV-I 70 W/m 16,1 C 5,0 km/h (1 Bft)
29.06.2022 19:53 24,7 C 24,2 C 59 % 1013,8 hPa 0,0 l/m 2,3 km/h (1 Bft) N-NO 27 0 min 0,0 UV-I 73 W/m 16,1 C 4,0 km/h (1 Bft)
29.06.2022 19:52 24,7 C 24,2 C 59 % 1014,0 hPa 0,0 l/m 2,1 km/h (1 Bft) NO 41 0 min 0,0 UV-I 75 W/m 16,1 C 6,0 km/h (2 Bft)
29.06.2022 19:51 24,7 C 24,3 C 59 % 1014,2 hPa 0,0 l/m 4,3 km/h (1 Bft) NO 47 0 min 0,0 UV-I 80 W/m 16,1 C 6,0 km/h (2 Bft)
29.06.2022 19:50 24,7 C 24,4 C 59 % 1013,9 hPa 0,0 l/m 0,0 km/h (0 Bft) N 0 0 min 0,0 UV-I 86 W/m 16,1 C 4,0 km/h (1 Bft)
29.06.2022 19:49 24,7 C 24,4 C 59 % 1014,0 hPa 0,0 l/m 1,4 km/h (1 Bft) N 0 0 min 0,0 UV-I 90 W/m 16,1 C 4,0 km/h (1 Bft)
29.06.2022 19:48 24,7 C 24,3 C 59 % 1014,0 hPa 0,0 l/m 2,9 km/h (1 Bft) N 359 0 min 0,0 UV-I 94 W/m 16,1 C 5,0 km/h (1 Bft)
29.06.2022 19:47 24,7 C 24,2 C 59 % 1013,9 hPa 0,0 l/m 1,0 km/h (0 Bft) W-NW 298 0 min 0,0 UV-I 95 W/m 16,1 C 5,0 km/h (1 Bft)
29.06.2022 19:46 24,7 C 24,1 C 59 % 1014,0 hPa 0,0 l/m 1,9 km/h (1 Bft) O-SO 110 0 min 0,0 UV-I 95 W/m 16,1 C 6,0 km/h (2 Bft)
29.06.2022 19:45 24,8 C 24,0 C 59 % 1013,7 hPa 0,0 l/m 3,4 km/h (1 Bft) N-NW 347 0 min 0,0 UV-I 91 W/m 16,2 C 6,0 km/h (2 Bft)
29.06.2022 19:44 24,8 C 24,0 C 59 % 1014,1 hPa 0,0 l/m 0,7 km/h (0 Bft) N 0 0 min 0,0 UV-I 90 W/m 16,2 C 3,0 km/h (1 Bft)
29.06.2022 19:43 24,9 C 24,0 C 58 % 1013,8 hPa 0,0 l/m 0,0 km/h (0 Bft) N 0 0 min 0,0 UV-I 90 W/m 16,1 C 3,0 km/h (1 Bft)
29.06.2022 19:42 24,9 C 23,9 C 58 % 1014,1 hPa 0,0 l/m 0,0 km/h (0 Bft) N 0 0 min 0,0 UV-I 92 W/m 16,1 C 5,0 km/h (1 Bft)
29.06.2022 19:41 24,9 C 24,0 C 58 % 1013,9 hPa 0,0 l/m 1,2 km/h (1 Bft) N 0 0 min 0,0 UV-I 92 W/m 16,1 C 5,0 km/h (1 Bft)
29.06.2022 19:40 24,9 C 24,0 C 58 % 1014,0 hPa 0,0 l/m 2,0 km/h (1 Bft) NO 56 0 min 0,0 UV-I 90 W/m 16,1 C 3,0 km/h (1 Bft)
29.06.2022 19:39 25,0 C 24,0 C 58 % 1014,0 hPa 0,0 l/m 1,4 km/h (1 Bft) N-NO 21 0 min 0,0 UV-I 88 W/m 16,1 C 3,0 km/h (1 Bft)
29.06.2022 19:38 25,0 C 24,1 C 58 % 1014,0 hPa 0,0 l/m 1,0 km/h (0 Bft) N 0 0 min 0,0 UV-I 85 W/m 16,1 C 3,0 km/h (1 Bft)
29.06.2022 19:37 25,0 C 24,2 C 58 % 1014,2 hPa 0,0 l/m 0,7 km/h (0 Bft) N 0 0 min 0,0 UV-I 84 W/m 16,1 C 3,0 km/h (1 Bft)
29.06.2022 19:36 25,0 C 24,2 C 58 % 1014,1 hPa 0,0 l/m 0,0 km/h (0 Bft) N 0 0 min 0,0 UV-I 88 W/m 16,1 C 3,0 km/h (1 Bft)
29.06.2022 19:35 25,1 C 24,2 C 58 % 1014,0 hPa 0,0 l/m 0,0 km/h (0 Bft) N 0 0 min 0,0 UV-I 92 W/m 16,2 C 4,0 km/h (1 Bft)
29.06.2022 19:34 25,1 C 24,2 C 58 % 1014,0 hPa 0,0 l/m 0,0 km/h (0 Bft) N 0 0 min 0,0 UV-I 112 W/m 16,2 C 5,0 km/h (1 Bft)
29.06.2022 19:33 25,2 C 24,2 C 58 % 1013,9 hPa 0,0 l/m 2,2 km/h (1 Bft) NO 52 0 min 0,0 UV-I 119 W/m 16,3 C 5,0 km/h (1 Bft)
29.06.2022 19:32 25,2 C 24,2 C 58 % 1013,9 hPa 0,0 l/m 0,0 km/h (0 Bft) N 0 0 min 0,0 UV-I 123 W/m 16,3 C 4,0 km/h (1 Bft)
29.06.2022 19:31 25,2 C 24,2 C 58 % 1013,9 hPa 0,0 l/m 0,0 km/h (0 Bft) N 0 0 min 0,0 UV-I 119 W/m 16,3 C 5,0 km/h (1 Bft)
29.06.2022 19:30 25,3 C 24,3 C 58 % 1013,9 hPa 0,0 l/m 3,0 km/h (1 Bft) S 191 0 min 0,0 UV-I 91 W/m 16,4 C 5,0 km/h (1 Bft)
29.06.2022 19:29 25,3 C 24,3 C 58 % 1014,0 hPa 0,0 l/m 1,3 km/h (1 Bft) SO 139 0 min 0,0 UV-I 77 W/m 16,4 C 4,0 km/h (1 Bft)
29.06.2022 19:28 25,4 C 24,3 C 58 % 1014,0 hPa 0,0 l/m 2,1 km/h (1 Bft) N-NO 22 0 min 0,0 UV-I 88 W/m 16,5 C 6,0 km/h (2 Bft)
29.06.2022 19:27 25,4 C 24,2 C 58 % 1014,0 hPa 0,0 l/m 3,0 km/h (1 Bft) O-NO 62 0 min 0,0 UV-I 78 W/m 16,5 C 7,0 km/h (2 Bft)
29.06.2022 19:26 25,4 C 24,4 C 58 % 1014,1 hPa 0,0 l/m 3,0 km/h (1 Bft) O-SO 104 0 min 0,0 UV-I 83 W/m 16,5 C 7,0 km/h (2 Bft)
29.06.2022 19:25 25,4 C 24,6 C 58 % 1013,9 hPa 0,0 l/m 2,1 km/h (1 Bft) N 0 0 min 0,0 UV-I 64 W/m 16,5 C 6,0 km/h (2 Bft)
29.06.2022 19:24 25,4 C 24,8 C 58 % 1014,0 hPa 0,0 l/m 2,5 km/h (1 Bft) N 349 0 min 0,0 UV-I 74 W/m 16,5 C 6,0 km/h (2 Bft)
29.06.2022 19:23 25,4 C 24,9 C 58 % 1013,8 hPa 0,0 l/m 1,6 km/h (1 Bft) N 0 0 min 0,0 UV-I 95 W/m 16,5 C 5,0 km/h (1 Bft)
29.06.2022 19:22 25,4 C 25,0 C 58 % 1013,7 hPa 0,0 l/m 2,0 km/h (1 Bft) N 6 0 min 0,0 UV-I 92 W/m 16,5 C 5,0 km/h (1 Bft)
29.06.2022 19:21 25,4 C 25,1 C 58 % 1014,0 hPa 0,0 l/m 0,0 km/h (0 Bft) N 0 0 min 0,0 UV-I 123 W/m 16,5 C 5,0 km/h (1 Bft)
29.06.2022 19:20 25,4 C 25,1 C 58 % 1013,9 hPa 0,0 l/m 1,4 km/h (1 Bft) N-NO 27 0 min 0,0 UV-I 134 W/m 16,5 C 5,0 km/h (1 Bft)
29.06.2022 19:19 25,4 C 25,1 C 58 % 1013,8 hPa 0,0 l/m 0,8 km/h (0 Bft) N 0 0 min 0,0 UV-I 110 W/m 16,5 C 3,0 km/h (1 Bft)
29.06.2022 19:18 25,4 C 25,2 C 58 % 1013,8 hPa 0,0 l/m 0,0 km/h (0 Bft) N 0 0 min 0,0 UV-I 124 W/m 16,5 C 3,0 km/h (1 Bft)
29.06.2022 19:17 25,4 C 25,2 C 58 % 1014,0 hPa 0,0 l/m 0,0 km/h (0 Bft) N 0 0 min 0,0 UV-I 154 W/m 16,5 C 3,0 km/h (1 Bft)
29.06.2022 19:16 25,4 C 25,2 C 58 % 1013,6 hPa 0,0 l/m 0,0 km/h (0 Bft) N 0 0 min 0,0 UV-I 156 W/m 16,5 C 3,0 km/h (1 Bft)
29.06.2022 19:15 25,4 C 25,2 C 58 % 1013,8 hPa 0,0 l/m 1,1 km/h (1 Bft) N 0 0 min 0,0 UV-I 163 W/m 16,5 C 4,0 km/h (1 Bft)
29.06.2022 19:14 25,5 C 25,2 C 57 % 1013,7 hPa 0,0 l/m 2,0 km/h (1 Bft) N 0 0 min 0,0 UV-I 149 W/m 16,3 C 6,0 km/h (2 Bft)
29.06.2022 19:13 25,4 C 25,4 C 57 % 1013,8 hPa 0,0 l/m 2,3 km/h (1 Bft) O-NO 58 0 min 0,0 UV-I 129 W/m 16,2 C 6,0 km/h (2 Bft)
29.06.2022 19:12 25,4 C 25,5 C 57 % 1013,6 hPa 0,0 l/m 2,2 km/h (1 Bft) NO 40 0 min 0,0 UV-I 155 W/m 16,2 C 6,0 km/h (2 Bft)
29.06.2022 19:11 25,4 C 25,5 C 57 % 1013,7 hPa 0,0 l/m 3,8 km/h (1 Bft) N 354 1 min 0,0 UV-I 203 W/m 16,2 C 6,0 km/h (2 Bft)
29.06.2022 19:10 25,4 C 25,4 C 57 % 1013,8 hPa 0,0 l/m 3,7 km/h (1 Bft) NO 39 1 min 0,0 UV-I 204 W/m 16,2 C 6,0 km/h (2 Bft)
29.06.2022 19:09 25,5 C 25,4 C 57 % 1013,8 hPa 0,0 l/m 0,9 km/h (0 Bft) SO 137 1 min 1,0 UV-I 215 W/m 16,3 C 5,0 km/h (1 Bft)
29.06.2022 19:08 25,5 C 25,1 C 57 % 1013,8 hPa 0,0 l/m 3,8 km/h (1 Bft) N-NO 18 1 min 0,0 UV-I 211 W/m 16,3 C 9,0 km/h (2 Bft)
29.06.2022 19:07 25,5 C 24,9 C 57 % 1013,7 hPa 0,0 l/m 4,1 km/h (1 Bft) N-NO 17 1 min 0,0 UV-I 194 W/m 16,3 C 9,0 km/h (2 Bft)
29.06.2022 19:06 25,5 C 24,9 C 57 % 1013,6 hPa 0,0 l/m 4,8 km/h (1 Bft) N-NO 20 0 min 0,0 UV-I 127 W/m 16,3 C 9,0 km/h (2 Bft)
29.06.2022 19:05 25,6 C 24,9 C 57 % 1013,7 hPa 0,0 l/m 2,2 km/h (1 Bft) O-NO 61 0 min 0,0 UV-I 116 W/m 16,4 C 7,0 km/h (2 Bft)
29.06.2022 19:04 25,6 C 24,9 C 57 % 1013,7 hPa 0,0 l/m 1,0 km/h (0 Bft) NO 34 0 min 0,0 UV-I 113 W/m 16,4 C 4,0 km/h (1 Bft)
29.06.2022 19:03 25,6 C 24,9 C 57 % 1014,0 hPa 0,0 l/m 0,0 km/h (0 Bft) N 0 0 min 0,0 UV-I 112 W/m 16,4 C 4,0 km/h (1 Bft)
29.06.2022 19:02 25,7 C 25,0 C 57 % 1013,8 hPa 0,0 l/m 2,3 km/h (1 Bft) N 3 0 min 0,0 UV-I 115 W/m 16,5 C 5,0 km/h (1 Bft)
29.06.2022 19:01 25,7 C 25,1 C 57 % 1013,8 hPa 0,0 l/m 1,6 km/h (1 Bft) N 0 0 min 0,0 UV-I 119 W/m 16,5 C 5,0 km/h (1 Bft)
29.06.2022 19:00 25,7 C 25,2 C 57 % 1013,8 hPa 0,0 l/m 3,3 km/h (1 Bft) NO 41 0 min 0,0 UV-I 127 W/m 16,5 C 5,0 km/h (1 Bft)
29.06.2022 18:59 25,7 C 25,2 C 56 % 1013,7 hPa 0,0 l/m 2,5 km/h (1 Bft) O 81 0 min 0,0 UV-I 150 W/m 16,2 C 5,0 km/h (1 Bft)
29.06.2022 18:58 25,8 C 25,3 C 57 % 1013,8 hPa 0,0 l/m 2,3 km/h (1 Bft) N-NW 348 0 min 0,0 UV-I 155 W/m 16,6 C 5,0 km/h (1 Bft)
29.06.2022 18:57 25,8 C 25,2 C 57 % 1014,0 hPa 0,0 l/m 1,1 km/h (1 Bft) N 0 0 min 0,0 UV-I 140 W/m 16,6 C 3,0 km/h (1 Bft)
29.06.2022 18:56 25,8 C 25,1 C 56 % 1013,7 hPa 0,0 l/m 1,0 km/h (0 Bft) N 0 1 min 0,0 UV-I 203 W/m 16,3 C 4,0 km/h (1 Bft)
29.06.2022 18:55 25,8 C 24,9 C 56 % 1013,8 hPa 0,0 l/m 0,0 km/h (0 Bft) N 0 1 min 1,0 UV-I 225 W/m 16,3 C 4,0 km/h (1 Bft)
29.06.2022 18:54 25,9 C 24,9 C 56 % 1014,0 hPa 0,0 l/m 0,0 km/h (0 Bft) N 0 0 min 0,0 UV-I 163 W/m 16,4 C 9,0 km/h (2 Bft)
29.06.2022 18:53 25,9 C 24,9 C 56 % 1013,8 hPa 0,0 l/m 4,0 km/h (1 Bft) N-NO 21 0 min 0,0 UV-I 134 W/m 16,4 C 9,0 km/h (2 Bft)
29.06.2022 18:52 26,0 C 25,0 C 56 % 1013,7 hPa 0,0 l/m 4,9 km/h (1 Bft) N-NO 28 0 min 0,0 UV-I 143 W/m 16,5 C 8,0 km/h (2 Bft)
29.06.2022 18:51 26,0 C 25,2 C 56 % 1013,9 hPa 0,0 l/m 4,7 km/h (1 Bft) N-NO 22 0 min 0,0 UV-I 122 W/m 16,5 C 7,0 km/h (2 Bft)
29.06.2022 18:50 26,1 C 25,2 C 56 % 1013,8 hPa 0,0 l/m 3,3 km/h (1 Bft) O-SO 112 0 min 0,0 UV-I 118 W/m 16,6 C 7,0 km/h (2 Bft)
29.06.2022 18:49 26,1 C 25,3 C 56 % 1013,8 hPa 0,0 l/m 1,6 km/h (1 Bft) O-NO 66 0 min 0,0 UV-I 199 W/m 16,6 C 7,0 km/h (2 Bft)
29.06.2022 18:48 26,1 C 25,4 C 56 % 1013,8 hPa 0,0 l/m 0,9 km/h (0 Bft) NO 45 0 min 0,0 UV-I 173 W/m 16,6 C 7,0 km/h (2 Bft)
29.06.2022 18:47 26,2 C 25,5 C 56 % 1014,1 hPa 0,0 l/m 7,2 km/h (2 Bft) N-NO 32 0 min 0,0 UV-I 139 W/m 16,7 C 15,0 km/h (3 Bft)
29.06.2022 18:46 26,2 C 25,9 C 55 % 1014,0 hPa 0,0 l/m 6,8 km/h (2 Bft) N-NO 23 0 min 0,0 UV-I 139 W/m 16,4 C 15,0 km/h (3 Bft)
29.06.2022 18:45 26,3 C 26,1 C 56 % 1013,9 hPa 0,0 l/m 6,0 km/h (2 Bft) N-NO 15 0 min 0,0 UV-I 167 W/m 16,8 C 11,0 km/h (2 Bft)
29.06.2022 18:44 26,3 C 26,3 C 56 % 1014,0 hPa 0,0 l/m 0,0 km/h (0 Bft) N 0 0 min 0,0 UV-I 195 W/m 16,8 C 10,0 km/h (2 Bft)
29.06.2022 18:43 26,3 C 26,3 C 56 % 1014,0 hPa 0,0 l/m 1,9 km/h (1 Bft) NO 36 0 min 0,0 UV-I 171 W/m 16,8 C 10,0 km/h (2 Bft)
29.06.2022 18:42 26,3 C 26,3 C 56 % 1014,0 hPa 0,0 l/m 1,8 km/h (1 Bft) NO 35 0 min 0,0 UV-I 163 W/m 16,8 C 3,0 km/h (1 Bft)
29.06.2022 18:41 26,3 C 26,4 C 55 % 1013,9 hPa 0,0 l/m 1,1 km/h (1 Bft) N 0 0 min 0,0 UV-I 170 W/m 16,5 C 4,0 km/h (1 Bft)
29.06.2022 18:40 26,3 C 26,4 C 55 % 1014,0 hPa 0,0 l/m 0,0 km/h (0 Bft) N 0 0 min 0,0 UV-I 170 W/m 16,5 C 4,0 km/h (1 Bft)
29.06.2022 18:39 26,3 C 26,6 C 55 % 1014,1 hPa 0,0 l/m 2,9 km/h (1 Bft) O-SO 112 0 min 0,0 UV-I 173 W/m 16,5 C 12,0 km/h (2 Bft)
29.06.2022 18:38 26,3 C 27,0 C 55 % 1013,8 hPa 0,0 l/m 5,4 km/h (1 Bft) O-NO 61 0 min 0,0 UV-I 204 W/m 16,5 C 12,0 km/h (2 Bft)
29.06.2022 18:37 26,3 C 27,0 C 56 % 1013,8 hPa 0,0 l/m 1,0 km/h (0 Bft) O 83 1 min 1,0 UV-I 299 W/m 16,8 C 5,0 km/h (1 Bft)
29.06.2022 18:36 26,3 C 26,7 C 55 % 1013,8 hPa 0,0 l/m 1,0 km/h (0 Bft) N 11 1 min 1,0 UV-I 321 W/m 16,5 C 6,0 km/h (2 Bft)
29.06.2022 18:35 26,3 C 27,0 C 55 % 1014,0 hPa 0,0 l/m 2,4 km/h (1 Bft) O-NO 68 1 min 1,0 UV-I 331 W/m 16,5 C 6,0 km/h (2 Bft)
29.06.2022 18:34 26,3 C 26,9 C 55 % 1014,0 hPa 0,0 l/m 3,4 km/h (1 Bft) N-NO 12 1 min 1,0 UV-I 354 W/m 16,5 C 6,0 km/h (2 Bft)
29.06.2022 18:33 26,4 C 26,7 C 55 % 1013,8 hPa 0,0 l/m 0,0 km/h (0 Bft) N 0 1 min 1,0 UV-I 351 W/m 16,6 C 5,0 km/h (1 Bft)
29.06.2022 18:32 26,4 C 26,7 C 55 % 1014,1 hPa 0,0 l/m 2,7 km/h (1 Bft) NO 38 1 min 1,0 UV-I 254 W/m 16,6 C 6,0 km/h (2 Bft)
29.06.2022 18:31 26,4 C 26,6 C 55 % 1014,0 hPa 0,0 l/m 1,3 km/h (1 Bft) NO 53 0 min 1,0 UV-I 216 W/m 16,6 C 6,0 km/h (2 Bft)
29.06.2022 18:30 26,4 C 26,6 C 55 % 1014,1 hPa 0,0 l/m 3,1 km/h (1 Bft) NO 46 0 min 1,0 UV-I 214 W/m 16,6 C 6,0 km/h (2 Bft)
29.06.2022 18:29 26,5 C 26,6 C 55 % 1014,2 hPa 0,0 l/m 3,9 km/h (1 Bft) N 0 0 min 0,0 UV-I 204 W/m 16,7 C 12,0 km/h (2 Bft)
29.06.2022 18:28 26,5 C 26,4 C 55 % 1013,9 hPa 0,0 l/m 3,5 km/h (1 Bft) O-NO 58 0 min 0,0 UV-I 201 W/m 16,7 C 12,0 km/h (2 Bft)
29.06.2022 18:27 26,5 C 26,4 C 55 % 1013,9 hPa 0,0 l/m 3,3 km/h (1 Bft) O-SO 119 0 min 0,0 UV-I 201 W/m 16,7 C 12,0 km/h (2 Bft)
29.06.2022 18:26 26,5 C 26,8 C 55 % 1014,1 hPa 0,0 l/m 3,9 km/h (1 Bft) N 2 0 min 0,0 UV-I 200 W/m 16,7 C 7,0 km/h (2 Bft)
29.06.2022 18:25 26,5 C 26,8 C 55 % 1014,0 hPa 0,0 l/m 2,7 km/h (1 Bft) N 11 0 min 0,0 UV-I 199 W/m 16,7 C 7,0 km/h (2 Bft)
29.06.2022 18:24 26,5 C 26,8 C 54 % 1014,1 hPa 0,0 l/m 3,2 km/h (1 Bft) N 353 0 min 0,0 UV-I 200 W/m 16,4 C 9,0 km/h (2 Bft)
29.06.2022 18:23 26,5 C 26,8 C 54 % 1014,1 hPa 0,0 l/m 7,6 km/h (2 Bft) O 98 0 min 1,0 UV-I 215 W/m 16,4 C 12,0 km/h (2 Bft)
29.06.2022 18:22 26,5 C 26,6 C 54 % 1014,0 hPa 0,0 l/m 7,6 km/h (2 Bft) N-NW 345 1 min 1,0 UV-I 346 W/m 16,4 C 12,0 km/h (2 Bft)
29.06.2022 18:21 26,5 C 26,3 C 54 % 1014,0 hPa 0,0 l/m 3,6 km/h (1 Bft) N 1 1 min 1,0 UV-I 364 W/m 16,4 C 9,0 km/h (2 Bft)
29.06.2022 18:20 26,4 C 26,6 C 54 % 1014,2 hPa 0,0 l/m 4,6 km/h (1 Bft) N 356 0 min 1,0 UV-I 218 W/m 16,3 C 9,0 km/h (2 Bft)
29.06.2022 18:19 26,4 C 26,6 C 55 % 1014,2 hPa 0,0 l/m 2,9 km/h (1 Bft) N 0 1 min 1,0 UV-I 337 W/m 16,6 C 9,0 km/h (2 Bft)
29.06.2022 18:18 26,4 C 26,5 C 54 % 1014,0 hPa 0,0 l/m 3,1 km/h (1 Bft) N 358 1 min 1,0 UV-I 286 W/m 16,3 C 10,0 km/h (2 Bft)
29.06.2022 18:17 26,4 C 26,4 C 54 % 1013,8 hPa 0,0 l/m 5,8 km/h (2 Bft) N 349 1 min 1,0 UV-I 294 W/m 16,3 C 11,0 km/h (2 Bft)
29.06.2022 18:16 26,4 C 26,4 C 54 % 1014,0 hPa 0,0 l/m 2,5 km/h (1 Bft) N-NW 337 0 min 0,0 UV-I 182 W/m 16,3 C 11,0 km/h (2 Bft)
29.06.2022 18:15 26,3 C 26,5 C 54 % 1014,0 hPa 0,0 l/m 7,4 km/h (2 Bft) N-NO 24 1 min 1,0 UV-I 288 W/m 16,2 C 15,0 km/h (3 Bft)
29.06.2022 18:14 26,3 C 26,9 C 54 % 1014,1 hPa 0,0 l/m 6,0 km/h (2 Bft) NO 46 1 min 1,0 UV-I 327 W/m 16,2 C 15,0 km/h (3 Bft)
29.06.2022 18:13 26,3 C 26,8 C 54 % 1014,2 hPa 0,0 l/m 2,3 km/h (1 Bft) O 97 1 min 1,0 UV-I 349 W/m 16,2 C 7,0 km/h (2 Bft)
29.06.2022 18:12 26,3 C 27,0 C 54 % 1014,2 hPa 0,0 l/m 2,4 km/h (1 Bft) N 0 1 min 1,0 UV-I 358 W/m 16,2 C 7,0 km/h (2 Bft)
29.06.2022 18:11 26,2 C 27,5 C 55 % 1014,3 hPa 0,0 l/m 4,1 km/h (1 Bft) N 360 1 min 1,0 UV-I 370 W/m 16,4 C 7,0 km/h (2 Bft)
29.06.2022 18:10 26,2 C 27,5 C 55 % 1014,1 hPa 0,0 l/m 3,9 km/h (1 Bft) N-NW 336 1 min 1,0 UV-I 381 W/m 16,4 C 7,0 km/h (2 Bft)
29.06.2022 18:09 26,2 C 27,5 C 54 % 1014,1 hPa 0,0 l/m 2,4 km/h (1 Bft) O-NO 71 1 min 1,0 UV-I 397 W/m 16,1 C 4,0 km/h (1 Bft)
29.06.2022 18:08 26,3 C 27,3 C 54 % 1014,3 hPa 0,0 l/m 2,7 km/h (1 Bft) O-SO 123 1 min 1,0 UV-I 412 W/m 16,2 C 4,0 km/h (1 Bft)
29.06.2022 18:07 26,3 C 26,9 C 54 % 1014,2 hPa 0,0 l/m 0,7 km/h (0 Bft) N-NO 12 1 min 1,0 UV-I 370 W/m 16,2 C 4,0 km/h (1 Bft)
29.06.2022 18:06 26,3 C 26,4 C 53 % 1014,1 hPa 0,0 l/m 4,9 km/h (1 Bft) N-NO 28 0 min 1,0 UV-I 214 W/m 15,9 C 10,0 km/h (2 Bft)
29.06.2022 18:05 26,3 C 26,3 C 53 % 1014,2 hPa 0,0 l/m 4,0 km/h (1 Bft) O-NO 62 0 min 0,0 UV-I 200 W/m 15,9 C 10,0 km/h (2 Bft)
29.06.2022 18:04 26,4 C 26,2 C 53 % 1014,0 hPa 0,0 l/m 5,1 km/h (1 Bft) NO 41 0 min 0,0 UV-I 185 W/m 16,0 C 10,0 km/h (2 Bft)
29.06.2022 18:03 26,5 C 26,4 C 53 % 1014,2 hPa 0,0 l/m 3,5 km/h (1 Bft) N 1 0 min 0,0 UV-I 174 W/m 16,1 C 9,0 km/h (2 Bft)
29.06.2022 18:02 26,5 C 26,3 C 53 % 1014,4 hPa 0,0 l/m 3,7 km/h (1 Bft) NW 316 0 min 0,0 UV-I 165 W/m 16,1 C 5,0 km/h (1 Bft)
29.06.2022 18:01 26,5 C 26,4 C 53 % 1014,2 hPa 0,0 l/m 2,5 km/h (1 Bft) O-NO 60 0 min 0,0 UV-I 161 W/m 16,1 C 5,0 km/h (1 Bft)
29.06.2022 18:00 26,6 C 26,6 C 53 % 1014,1 hPa 0,0 l/m 2,1 km/h (1 Bft) NO 46 0 min 0,0 UV-I 160 W/m 16,2 C 6,0 km/h (2 Bft)
29.06.2022 17:59 26,7 C 26,7 C 53 % 1014,2 hPa 0,0 l/m 1,0 km/h (0 Bft) W 265 0 min 0,0 UV-I 160 W/m 16,3 C 6,0 km/h (2 Bft)
29.06.2022 17:58 26,7 C 26,6 C 53 % 1014,1 hPa 0,0 l/m 4,4 km/h (1 Bft) N-NW 346 0 min 0,0 UV-I 165 W/m 16,3 C 11,0 km/h (2 Bft)
29.06.2022 17:57 26,8 C 26,5 C 53 % 1014,3 hPa 0,0 l/m 5,7 km/h (1 Bft) N 2 0 min 0,0 UV-I 170 W/m 16,4 C 11,0 km/h (2 Bft)
29.06.2022 17:56 26,9 C 26,6 C 52 % 1014,2 hPa 0,0 l/m 6,1 km/h (2 Bft) N-NO 16 0 min 0,0 UV-I 173 W/m 16,2 C 11,0 km/h (2 Bft)
29.06.2022 17:55 26,9 C 26,6 C 52 % 1014,1 hPa 0,0 l/m 1,3 km/h (1 Bft) N-NW 344 0 min 0,0 UV-I 173 W/m 16,2 C 8,0 km/h (2 Bft)
29.06.2022 17:54 27,0 C 26,5 C 52 % 1014,1 hPa 0,0 l/m 3,9 km/h (1 Bft) N 11 0 min 0,0 UV-I 172 W/m 16,3 C 8,0 km/h (2 Bft)
29.06.2022 17:53 27,1 C 26,3 C 52 % 1014,1 hPa 0,0 l/m 4,5 km/h (1 Bft) N 10 0 min 0,0 UV-I 168 W/m 16,4 C 8,0 km/h (2 Bft)
29.06.2022 17:52 27,1 C 26,3 C 52 % 1014,1 hPa 0,0 l/m 5,6 km/h (1 Bft) N 4 0 min 0,0 UV-I 166 W/m 16,4 C 8,0 km/h (2 Bft)
29.06.2022 17:51 27,2 C 26,3 C 52 % 1014,2 hPa 0,0 l/m 5,2 km/h (1 Bft) N 8 0 min 0,0 UV-I 157 W/m 16,5 C 9,0 km/h (2 Bft)
29.06.2022 17:50 27,3 C 26,3 C 52 % 1014,2 hPa 0,0 l/m 0,0 km/h (0 Bft) N 0 0 min 0,0 UV-I 147 W/m 16,6 C 9,0 km/h (2 Bft)
29.06.2022 17:49 27,3 C 26,3 C 52 % 1014,3 hPa 0,0 l/m 3,5 km/h (1 Bft) O-NO 64 0 min 0,0 UV-I 138 W/m 16,6 C 9,0 km/h (2 Bft)
29.06.2022 17:48 27,4 C 26,3 C 52 % 1014,0 hPa 0,0 l/m 1,8 km/h (1 Bft) NO 35 0 min 0,0 UV-I 129 W/m 16,7 C 11,0 km/h (2 Bft)
29.06.2022 17:47 27,5 C 26,7 C 52 % 1014,3 hPa 0,0 l/m 4,7 km/h (1 Bft) N 355 0 min 0,0 UV-I 129 W/m 16,7 C 11,0 km/h (2 Bft)
29.06.2022 17:46 27,5 C 27,1 C 51 % 1014,3 hPa 0,0 l/m 5,2 km/h (1 Bft) NO 36 0 min 0,0 UV-I 134 W/m 16,4 C 9,0 km/h (2 Bft)
29.06.2022 17:45 27,5 C 27,9 C 52 % 1014,1 hPa 0,0 l/m 5,1 km/h (1 Bft) O-NO 59 0 min 0,0 UV-I 145 W/m 16,7 C 9,0 km/h (2 Bft)
29.06.2022 17:44 27,5 C 29,2 C 52 % 1014,1 hPa 0,0 l/m 2,1 km/h (1 Bft) O 81 0 min 0,0 UV-I 172 W/m 16,7 C 8,0 km/h (2 Bft)
29.06.2022 17:43 27,6 C 28,8 C 52 % 1014,3 hPa 0,0 l/m 4,6 km/h (1 Bft) O 82 1 min 1,0 UV-I 346 W/m 16,8 C 10,0 km/h (2 Bft)
29.06.2022 17:42 27,6 C 30,0 C 52 % 1014,2 hPa 0,0 l/m 5,5 km/h (1 Bft) O 91 0 min 0,0 UV-I 194 W/m 16,8 C 10,0 km/h (2 Bft)
29.06.2022 17:41 27,6 C 31,5 C 51 % 1014,2 hPa 0,0 l/m 3,1 km/h (1 Bft) N-NO 24 1 min 1,0 UV-I 337 W/m 16,5 C 6,0 km/h (2 Bft)
29.06.2022 17:40 27,6 C 30,6 C 51 % 1014,3 hPa 0,0 l/m 3,4 km/h (1 Bft) N 0 1 min 1,0 UV-I 392 W/m 16,5 C 10,0 km/h (2 Bft)
29.06.2022 17:39 27,6 C 30,7 C 51 % 1014,0 hPa 0,0 l/m 4,3 km/h (1 Bft) S 184 0 min 1,0 UV-I 255 W/m 16,5 C 10,0 km/h (2 Bft)
29.06.2022 17:38 27,6 C 29,8 C 51 % 1014,2 hPa 0,0 l/m 4,8 km/h (1 Bft) S-SO 162 1 min 2,0 UV-I 441 W/m 16,5 C 10,0 km/h (2 Bft)
29.06.2022 17:37 27,6 C 28,9 C 51 % 1014,2 hPa 0,0 l/m 2,9 km/h (1 Bft) O-NO 72 0 min 1,0 UV-I 289 W/m 16,5 C 7,0 km/h (2 Bft)
29.06.2022 17:36 27,6 C 28,9 C 51 % 1013,9 hPa 0,0 l/m 3,2 km/h (1 Bft) N 10 0 min 1,0 UV-I 232 W/m 16,5 C 7,0 km/h (2 Bft)
29.06.2022 17:35 27,6 C 29,5 C 51 % 1014,1 hPa 0,0 l/m 4,1 km/h (1 Bft) N-NO 14 0 min 1,0 UV-I 225 W/m 16,5 C 7,0 km/h (2 Bft)
29.06.2022 17:34 27,5 C 30,4 C 51 % 1014,0 hPa 0,0 l/m 4,1 km/h (1 Bft) N 4 0 min 1,0 UV-I 255 W/m 16,4 C 6,0 km/h (2 Bft)
29.06.2022 17:33 27,5 C 32,3 C 50 % 1014,0 hPa 0,0 l/m 1,4 km/h (1 Bft) NO 34 0 min 1,0 UV-I 289 W/m 16,1 C 3,0 km/h (1 Bft)
29.06.2022 17:32 27,5 C 32,4 C 50 % 1014,2 hPa 0,0 l/m 3,2 km/h (1 Bft) W-NW 292 1 min 1,0 UV-I 401 W/m 16,1 C 11,0 km/h (2 Bft)
29.06.2022 17:31 27,5 C 33,5 C 51 % 1014,2 hPa 0,0 l/m 1,0 km/h (0 Bft) W-NW 292 1 min 2,0 UV-I 485 W/m 16,4 C 11,0 km/h (2 Bft)
29.06.2022 17:30 27,4 C 34,0 C 51 % 1013,9 hPa 0,0 l/m 4,8 km/h (1 Bft) N-NO 21 1 min 2,0 UV-I 511 W/m 16,3 C 11,0 km/h (2 Bft)
29.06.2022 17:29 27,3 C 33,6 C 51 % 1014,0 hPa 0,0 l/m 2,8 km/h (1 Bft) NO 49 1 min 2,0 UV-I 515 W/m 16,3 C 4,0 km/h (1 Bft)
29.06.2022 17:28 27,3 C 32,9 C 51 % 1014,3 hPa 0,0 l/m 0,8 km/h (0 Bft) N 0 1 min 2,0 UV-I 510 W/m 16,3 C 3,0 km/h (1 Bft)
29.06.2022 17:27 27,2 C 32,9 C 51 % 1014,2 hPa 0,0 l/m 1,0 km/h (0 Bft) SO 127 1 min 2,0 UV-I 506 W/m 16,2 C 3,0 km/h (1 Bft)
29.06.2022 17:26 27,2 C 32,8 C 51 % 1014,2 hPa 0,0 l/m 1,6 km/h (1 Bft) N 0 1 min 2,0 UV-I 500 W/m 16,2 C 6,0 km/h (2 Bft)
29.06.2022 17:25 27,2 C 32,3 C 51 % 1014,2 hPa 0,0 l/m 3,1 km/h (1 Bft) NO 53 1 min 2,0 UV-I 513 W/m 16,2 C 6,0 km/h (2 Bft)
29.06.2022 17:24 27,2 C 32,2 C 51 % 1014,3 hPa 0,0 l/m 3,1 km/h (1 Bft) N-NW 343 1 min 2,0 UV-I 523 W/m 16,2 C 9,0 km/h (2 Bft)
29.06.2022 17:23 27,2 C 30,8 C 51 % 1014,2 hPa 0,0 l/m 0,0 km/h (0 Bft) N 0 1 min 2,0 UV-I 516 W/m 16,2 C 9,0 km/h (2 Bft)
29.06.2022 17:22 27,2 C 29,1 C 51 % 1014,3 hPa 0,0 l/m 1,8 km/h (1 Bft) N-NO 28 1 min 2,0 UV-I 445 W/m 16,2 C 9,0 km/h (2 Bft)
29.06.2022 17:21 27,2 C 28,7 C 51 % 1014,3 hPa 0,0 l/m 2,4 km/h (1 Bft) O 82 0 min 1,0 UV-I 286 W/m 16,2 C 5,0 km/h (1 Bft)
29.06.2022 17:20 27,2 C 29,2 C 51 % 1014,3 hPa 0,0 l/m 1,2 km/h (1 Bft) N 0 0 min 1,0 UV-I 238 W/m 16,2 C 5,0 km/h (1 Bft)
29.06.2022 17:19 27,1 C 29,7 C 52 % 1014,2 hPa 0,0 l/m 1,3 km/h (1 Bft) N 0 0 min 1,0 UV-I 269 W/m 16,4 C 4,0 km/h (1 Bft)
29.06.2022 17:18 27,1 C 31,2 C 52 % 1014,3 hPa 0,0 l/m 0,0 km/h (0 Bft) N 0 0 min 1,0 UV-I 217 W/m 16,4 C 3,0 km/h (1 Bft)
29.06.2022 17:17 27,0 C 33,4 C 52 % 1014,3 hPa 0,0 l/m 1,9 km/h (1 Bft) N 0 0 min 0,0 UV-I 205 W/m 16,3 C 8,0 km/h (2 Bft)
29.06.2022 17:16 26,9 C 33,6 C 52 % 1014,4 hPa 0,0 l/m 3,5 km/h (1 Bft) N-NO 21 1 min 2,0 UV-I 470 W/m 16,2 C 8,0 km/h (2 Bft)
29.06.2022 17:15 26,9 C 32,6 C 52 % 1014,3 hPa 0,0 l/m 1,7 km/h (1 Bft) N 0 1 min 2,0 UV-I 507 W/m 16,2 C 5,0 km/h (1 Bft)
29.06.2022 17:14 26,9 C 30,4 C 51 % 1014,3 hPa 0,0 l/m 2,3 km/h (1 Bft) N 0 1 min 2,0 UV-I 508 W/m 15,9 C 9,0 km/h (2 Bft)
29.06.2022 17:13 26,9 C 28,8 C 51 % 1014,4 hPa 0,0 l/m 4,1 km/h (1 Bft) N 353 1 min 2,0 UV-I 504 W/m 15,9 C 9,0 km/h (2 Bft)
29.06.2022 17:12 26,9 C 27,4 C 51 % 1014,3 hPa 0,0 l/m 3,2 km/h (1 Bft) N 353 1 min 2,0 UV-I 466 W/m 15,9 C 9,0 km/h (2 Bft)
29.06.2022 17:11 27,0 C 26,8 C 51 % 1014,1 hPa 0,0 l/m 5,1 km/h (1 Bft) N 358 0 min 1,0 UV-I 285 W/m 16,0 C 9,0 km/h (2 Bft)
29.06.2022 17:10 27,1 C 26,6 C 51 % 1014,4 hPa 0,0 l/m 4,1 km/h (1 Bft) N-NW 344 0 min 1,0 UV-I 221 W/m 16,1 C 7,0 km/h (2 Bft)
29.06.2022 17:09 27,1 C 26,5 C 51 % 1014,5 hPa 0,0 l/m 3,9 km/h (1 Bft) N 3 0 min 0,0 UV-I 201 W/m 16,1 C 6,0 km/h (2 Bft)
29.06.2022 17:08 27,2 C 26,3 C 50 % 1014,5 hPa 0,0 l/m 3,2 km/h (1 Bft) N-NO 20 0 min 0,0 UV-I 187 W/m 15,9 C 6,0 km/h (2 Bft)
29.06.2022 17:07 27,3 C 26,3 C 50 % 1014,3 hPa 0,0 l/m 3,4 km/h (1 Bft) O-NO 66 0 min 0,0 UV-I 181 W/m 15,9 C 8,0 km/h (2 Bft)
29.06.2022 17:06 27,4 C 26,4 C 50 % 1014,5 hPa 0,0 l/m 5,0 km/h (1 Bft) O-NO 69 0 min 0,0 UV-I 178 W/m 16,0 C 11,0 km/h (2 Bft)
29.06.2022 17:05 27,5 C 26,5 C 50 % 1014,4 hPa 0,0 l/m 5,7 km/h (1 Bft) O 86 0 min 0,0 UV-I 171 W/m 16,1 C 11,0 km/h (2 Bft)
29.06.2022 17:04 27,5 C 26,8 C 50 % 1014,5 hPa 0,0 l/m 5,1 km/h (1 Bft) S-SO 157 0 min 0,0 UV-I 167 W/m 16,1 C 9,0 km/h (2 Bft)
29.06.2022 17:03 27,5 C 26,9 C 50 % 1014,6 hPa 0,0 l/m 4,5 km/h (1 Bft) NO 46 0 min 0,0 UV-I 166 W/m 16,1 C 9,0 km/h (2 Bft)
29.06.2022 17:02 27,6 C 27,1 C 49 % 1014,5 hPa 0,0 l/m 4,0 km/h (1 Bft) NO 50 0 min 0,0 UV-I 167 W/m 15,9 C 9,0 km/h (2 Bft)
29.06.2022 17:01 27,7 C 27,4 C 49 % 1014,4 hPa 0,0 l/m 2,5 km/h (1 Bft) NO 38 0 min 0,0 UV-I 177 W/m 16,0 C 5,0 km/h (1 Bft)
29.06.2022 17:00 27,8 C 27,7 C 49 % 1014,2 hPa 0,0 l/m 3,1 km/h (1 Bft) N-NO 16 0 min 0,0 UV-I 178 W/m 16,1 C 7,0 km/h (2 Bft)
29.06.2022 16:59 27,9 C 27,8 C 49 % 1014,7 hPa 0,0 l/m 4,5 km/h (1 Bft) NO 46 0 min 0,0 UV-I 181 W/m 16,2 C 11,0 km/h (2 Bft)
29.06.2022 16:58 28,0 C 28,2 C 49 % 1014,5 hPa 0,0 l/m 4,8 km/h (1 Bft) NO 54 0 min 0,0 UV-I 190 W/m 16,3 C 11,0 km/h (2 Bft)
29.06.2022 16:57 28,0 C 29,3 C 49 % 1014,5 hPa 0,0 l/m 5,0 km/h (1 Bft) NO 47 0 min 0,0 UV-I 205 W/m 16,3 C 11,0 km/h (2 Bft)
29.06.2022 16:56 28,1 C 31,8 C 49 % 1014,5 hPa 0,0 l/m 1,8 km/h (1 Bft) N 354 0 min 1,0 UV-I 233 W/m 16,4 C 11,0 km/h (2 Bft)
29.06.2022 16:55 28,1 C 32,1 C 49 % 1014,5 hPa 0,0 l/m 3,0 km/h (1 Bft) N 0 1 min 2,0 UV-I 485 W/m 16,4 C 9,0 km/h (2 Bft)
29.06.2022 16:54 28,2 C 30,7 C 48 % 1014,6 hPa 0,0 l/m 4,8 km/h (1 Bft) NO 52 1 min 2,0 UV-I 609 W/m 16,1 C 9,0 km/h (2 Bft)
29.06.2022 16:53 28,3 C 28,6 C 48 % 1014,5 hPa 0,0 l/m 5,3 km/h (1 Bft) NO 38 1 min 2,0 UV-I 614 W/m 16,2 C 9,0 km/h (2 Bft)
29.06.2022 16:52 28,4 C 27,5 C 47 % 1014,6 hPa 0,0 l/m 5,5 km/h (1 Bft) N-NO 23 1 min 2,0 UV-I 483 W/m 16,0 C 9,0 km/h (2 Bft)
29.06.2022 16:51 28,5 C 27,7 C 47 % 1014,6 hPa 0,0 l/m 4,7 km/h (1 Bft) O-NO 68 0 min 1,0 UV-I 227 W/m 16,1 C 9,0 km/h (2 Bft)
29.06.2022 16:50 28,7 C 27,5 C 47 % 1014,6 hPa 0,0 l/m 2,7 km/h (1 Bft) NO 38 0 min 0,0 UV-I 205 W/m 16,3 C 5,0 km/h (1 Bft)
29.06.2022 16:49 28,8 C 27,4 C 46 % 1014,7 hPa 0,0 l/m 2,8 km/h (1 Bft) N 11 0 min 0,0 UV-I 198 W/m 16,0 C 9,0 km/h (2 Bft)
29.06.2022 16:48 28,8 C 27,9 C 46 % 1014,5 hPa 0,0 l/m 4,0 km/h (1 Bft) O-NO 71 0 min 0,0 UV-I 183 W/m 16,0 C 9,0 km/h (2 Bft)
29.06.2022 16:47 28,9 C 28,1 C 46 % 1014,6 hPa 0,0 l/m 3,2 km/h (1 Bft) N 360 0 min 0,0 UV-I 173 W/m 16,1 C 7,0 km/h (2 Bft)
29.06.2022 16:46 29,0 C 28,1 C 46 % 1014,3 hPa 0,0 l/m 4,5 km/h (1 Bft) N 358 0 min 0,0 UV-I 170 W/m 16,2 C 7,0 km/h (2 Bft)
29.06.2022 16:45 29,1 C 28,8 C 46 % 1014,6 hPa 0,0 l/m 5,1 km/h (1 Bft) N-NO 21 0 min 0,0 UV-I 173 W/m 16,3 C 13,0 km/h (3 Bft)
29.06.2022 16:44 29,2 C 30,3 C 46 % 1014,5 hPa 0,0 l/m 3,4 km/h (1 Bft) N-NO 18 0 min 0,0 UV-I 183 W/m 16,4 C 13,0 km/h (3 Bft)
29.06.2022 16:43 29,3 C 31,3 C 45 % 1014,4 hPa 0,0 l/m 4,5 km/h (1 Bft) NO 37 0 min 1,0 UV-I 270 W/m 16,1 C 13,0 km/h (3 Bft)
29.06.2022 16:42 29,3 C 30,9 C 45 % 1014,5 hPa 0,0 l/m 6,6 km/h (2 Bft) N-NO 18 1 min 2,0 UV-I 641 W/m 16,1 C 13,0 km/h (3 Bft)
29.06.2022 16:41 29,4 C 29,4 C 45 % 1014,5 hPa 0,0 l/m 5,6 km/h (1 Bft) N 355 0 min 1,0 UV-I 326 W/m 16,2 C 13,0 km/h (3 Bft)
29.06.2022 16:40 29,5 C 30,3 C 45 % 1014,5 hPa 0,0 l/m 5,1 km/h (1 Bft) N-NW 327 0 min 1,0 UV-I 260 W/m 16,3 C 13,0 km/h (3 Bft)
29.06.2022 16:39 29,5 C 32,1 C 45 % 1014,7 hPa 0,0 l/m 6,3 km/h (2 Bft) N-NW 340 0 min 1,0 UV-I 308 W/m 16,3 C 10,0 km/h (2 Bft)
29.06.2022 16:38 29,5 C 34,0 C 44 % 1014,7 hPa 0,0 l/m 6,0 km/h (2 Bft) N-NO 25 0 min 1,0 UV-I 309 W/m 15,9 C 15,0 km/h (3 Bft)
29.06.2022 16:37 29,5 C 32,8 C 44 % 1014,5 hPa 0,0 l/m 7,8 km/h (2 Bft) N-NW 347 1 min 3,0 UV-I 707 W/m 15,9 C 15,0 km/h (3 Bft)
29.06.2022 16:36 29,6 C 31,8 C 44 % 1014,5 hPa 0,0 l/m 8,0 km/h (2 Bft) N 10 1 min 3,0 UV-I 705 W/m 16,0 C 15,0 km/h (3 Bft)
29.06.2022 16:35 29,6 C 32,0 C 44 % 1014,4 hPa 0,0 l/m 8,1 km/h (2 Bft) N-NW 345 1 min 3,0 UV-I 671 W/m 16,0 C 12,0 km/h (2 Bft)
29.06.2022 16:34 29,6 C 32,8 C 44 % 1014,4 hPa 0,0 l/m 6,9 km/h (2 Bft) N-NO 18 1 min 2,0 UV-I 622 W/m 16,0 C 12,0 km/h (2 Bft)
29.06.2022 16:33 29,6 C 34,1 C 44 % 1014,4 hPa 0,0 l/m 5,7 km/h (1 Bft) NO 36 1 min 2,0 UV-I 446 W/m 16,0 C 10,0 km/h (2 Bft)
29.06.2022 16:32 29,6 C 35,3 C 44 % 1014,6 hPa 0,0 l/m 5,0 km/h (1 Bft) N-NO 25 1 min 2,0 UV-I 499 W/m 16,0 C 9,0 km/h (2 Bft)
29.06.2022 16:31 29,6 C 36,0 C 44 % 1014,4 hPa 0,0 l/m 2,7 km/h (1 Bft) SO 128 1 min 3,0 UV-I 665 W/m 16,0 C 6,0 km/h (2 Bft)
29.06.2022 16:30 29,6 C 34,6 C 44 % 1014,3 hPa 0,0 l/m 2,6 km/h (1 Bft) O-SO 123 1 min 3,0 UV-I 703 W/m 16,0 C 9,0 km/h (2 Bft)
29.06.2022 16:29 29,6 C 35,4 C 43 % 1014,7 hPa 0,0 l/m 0,0 km/h (0 Bft) N 0 1 min 3,0 UV-I 719 W/m 15,7 C 9,0 km/h (2 Bft)
29.06.2022 16:28 29,6 C 34,6 C 43 % 1014,4 hPa 0,0 l/m 5,2 km/h (1 Bft) SO 127 1 min 3,0 UV-I 714 W/m 15,7 C 9,0 km/h (2 Bft)
29.06.2022 16:27 29,6 C 35,7 C 43 % 1014,4 hPa 0,0 l/m 7,0 km/h (2 Bft) S-SO 150 1 min 3,0 UV-I 667 W/m 15,7 C 9,0 km/h (2 Bft)
29.06.2022 16:26 29,6 C 35,2 C 44 % 1014,5 hPa 0,0 l/m 1,2 km/h (1 Bft) N 0 1 min 2,0 UV-I 622 W/m 16,0 C 5,0 km/h (1 Bft)
29.06.2022 16:25 29,6 C 35,2 C 44 % 1014,4 hPa 0,0 l/m 1,4 km/h (1 Bft) O 94 1 min 2,0 UV-I 583 W/m 16,0 C 5,0 km/h (1 Bft)
29.06.2022 16:24 29,6 C 35,8 C 43 % 1014,5 hPa 0,0 l/m 2,0 km/h (1 Bft) NO 37 1 min 2,0 UV-I 585 W/m 15,7 C 5,0 km/h (1 Bft)
29.06.2022 16:23 29,6 C 34,9 C 43 % 1014,5 hPa 0,0 l/m 2,1 km/h (1 Bft) N 0 1 min 2,0 UV-I 614 W/m 15,7 C 6,0 km/h (2 Bft)
29.06.2022 16:22 29,6 C 35,1 C 44 % 1014,7 hPa 0,0 l/m 3,0 km/h (1 Bft) NO 44 1 min 2,0 UV-I 594 W/m 16,0 C 7,0 km/h (2 Bft)
29.06.2022 16:21 29,6 C 35,9 C 44 % 1014,4 hPa 0,0 l/m 3,8 km/h (1 Bft) NO 34 1 min 2,0 UV-I 554 W/m 16,0 C 7,0 km/h (2 Bft)
29.06.2022 16:20 29,5 C 35,9 C 44 % 1014,6 hPa 0,0 l/m 2,4 km/h (1 Bft) N-NO 27 1 min 3,0 UV-I 681 W/m 15,9 C 13,0 km/h (3 Bft)
29.06.2022 16:19 29,5 C 34,8 C 44 % 1014,5 hPa 0,0 l/m 6,6 km/h (2 Bft) NO 38 1 min 3,0 UV-I 716 W/m 15,9 C 13,0 km/h (3 Bft)
29.06.2022 16:18 29,5 C 35,6 C 43 % 1014,6 hPa 0,0 l/m 3,0 km/h (1 Bft) NO 46 1 min 3,0 UV-I 721 W/m 15,6 C 8,0 km/h (2 Bft)
29.06.2022 16:17 29,5 C 34,6 C 43 % 1014,7 hPa 0,0 l/m 3,9 km/h (1 Bft) N-NO 22 1 min 3,0 UV-I 716 W/m 15,6 C 9,0 km/h (2 Bft)
29.06.2022 16:16 29,5 C 35,6 C 43 % 1014,7 hPa 0,0 l/m 1,3 km/h (1 Bft) N-NO 28 1 min 3,0 UV-I 715 W/m 15,6 C 9,0 km/h (2 Bft)
29.06.2022 16:15 29,4 C 36,6 C 44 % 1014,6 hPa 0,0 l/m 4,4 km/h (1 Bft) N-NO 32 1 min 3,0 UV-I 719 W/m 15,8 C 9,0 km/h (2 Bft)
29.06.2022 16:14 29,3 C 36,1 C 44 % 1014,7 hPa 0,0 l/m 2,5 km/h (1 Bft) N-NO 25 1 min 3,0 UV-I 735 W/m 15,8 C 7,0 km/h (2 Bft)
29.06.2022 16:13 29,3 C 36,4 C 44 % 1014,6 hPa 0,0 l/m 3,6 km/h (1 Bft) NO 39 1 min 3,0 UV-I 738 W/m 15,8 C 10,0 km/h (2 Bft)
29.06.2022 16:12 29,3 C 35,3 C 43 % 1014,7 hPa 0,0 l/m 3,4 km/h (1 Bft) N 10 1 min 3,0 UV-I 731 W/m 15,4 C 10,0 km/h (2 Bft)
29.06.2022 16:11 29,3 C 36,3 C 43 % 1014,6 hPa 0,0 l/m 2,3 km/h (1 Bft) N 1 1 min 3,0 UV-I 746 W/m 15,4 C 10,0 km/h (2 Bft)
29.06.2022 16:10 29,3 C 35,4 C 43 % 1014,7 hPa 0,0 l/m 1,3 km/h (1 Bft) N 2 1 min 3,0 UV-I 751 W/m 15,4 C 5,0 km/h (1 Bft)
29.06.2022 16:09 29,3 C 34,5 C 42 % 1014,8 hPa 0,0 l/m 3,4 km/h (1 Bft) N 353 1 min 3,0 UV-I 729 W/m 15,0 C 5,0 km/h (1 Bft)
29.06.2022 16:08 29,3 C 34,8 C 42 % 1014,8 hPa 0,0 l/m 1,8 km/h (1 Bft) N 0 1 min 3,0 UV-I 712 W/m 15,0 C 5,0 km/h (1 Bft)
29.06.2022 16:07 29,3 C 34,4 C 43 % 1014,6 hPa 0,0 l/m 2,9 km/h (1 Bft) N-NO 16 1 min 3,0 UV-I 667 W/m 15,4 C 6,0 km/h (2 Bft)
29.06.2022 16:06 29,2 C 34,1 C 42 % 1014,7 hPa 0,0 l/m 1,3 km/h (1 Bft) O-NO 71 1 min 3,0 UV-I 720 W/m 14,9 C 6,0 km/h (2 Bft)
29.06.2022 16:05 29,3 C 34,3 C 42 % 1014,5 hPa 0,0 l/m 4,1 km/h (1 Bft) O-SO 120 1 min 3,0 UV-I 681 W/m 15,0 C 9,0 km/h (2 Bft)
29.06.2022 16:04 29,3 C 34,3 C 42 % 1014,7 hPa 0,0 l/m 5,1 km/h (1 Bft) SO 126 1 min 3,0 UV-I 742 W/m 15,0 C 13,0 km/h (3 Bft)
29.06.2022 16:03 29,2 C 33,7 C 43 % 1014,7 hPa 0,0 l/m 4,0 km/h (1 Bft) NO 44 1 min 3,0 UV-I 737 W/m 15,3 C 13,0 km/h (3 Bft)
29.06.2022 16:02 29,2 C 35,7 C 43 % 1014,7 hPa 0,0 l/m 7,3 km/h (2 Bft) NO 34 1 min 3,0 UV-I 732 W/m 15,3 C 13,0 km/h (3 Bft)
29.06.2022 16:01 29,2 C 35,2 C 43 % 1014,8 hPa 0,0 l/m 3,1 km/h (1 Bft) N 0 1 min 3,0 UV-I 729 W/m 15,3 C 12,0 km/h (2 Bft)
29.06.2022 16:00 29,2 C 36,0 C 43 % 1014,8 hPa 0,0 l/m 6,1 km/h (2 Bft) S-SO 165 1 min 3,0 UV-I 718 W/m 15,3 C 12,0 km/h (2 Bft)
29.06.2022 15:59 29,1 C 35,9 C 44 % 1014,8 hPa 0,0 l/m 2,5 km/h (1 Bft) S 180 1 min 3,0 UV-I 704 W/m 15,6 C 5,0 km/h (1 Bft)
29.06.2022 15:58 29,1 C 35,6 C 43 % 1014,6 hPa 0,0 l/m 2,5 km/h (1 Bft) S 182 1 min 3,0 UV-I 704 W/m 15,2 C 5,0 km/h (1 Bft)
29.06.2022 15:57 29,1 C 34,9 C 43 % 1014,7 hPa 0,0 l/m 2,5 km/h (1 Bft) N-NW 337 1 min 3,0 UV-I 693 W/m 15,2 C 4,0 km/h (1 Bft)
29.06.2022 15:56 29,1 C 35,1 C 43 % 1014,8 hPa 0,0 l/m 0,0 km/h (0 Bft) N 0 1 min 2,0 UV-I 634 W/m 15,2 C 4,0 km/h (1 Bft)
29.06.2022 15:55 29,1 C 34,8 C 42 % 1014,6 hPa 0,0 l/m 1,0 km/h (0 Bft) NO 37 1 min 3,0 UV-I 705 W/m 14,9 C 4,0 km/h (1 Bft)
29.06.2022 15:54 29,0 C 36,1 C 43 % 1014,8 hPa 0,0 l/m 3,9 km/h (1 Bft) NO 37 1 min 3,0 UV-I 707 W/m 15,1 C 9,0 km/h (2 Bft)
29.06.2022 15:53 29,0 C 35,3 C 43 % 1014,7 hPa 0,0 l/m 2,9 km/h (1 Bft) N 0 1 min 3,0 UV-I 707 W/m 15,1 C 9,0 km/h (2 Bft)
29.06.2022 15:52 29,0 C 35,2 C 43 % 1014,9 hPa 0,0 l/m 3,3 km/h (1 Bft) S-SO 150 1 min 3,0 UV-I 703 W/m 15,1 C 9,0 km/h (2 Bft)
29.06.2022 15:51 29,1 C 33,3 C 43 % 1014,9 hPa 0,0 l/m 0,0 km/h (0 Bft) N 0 1 min 3,0 UV-I 700 W/m 15,2 C 9,0 km/h (2 Bft)
29.06.2022 15:50 29,1 C 32,4 C 43 % 1014,9 hPa 0,0 l/m 4,8 km/h (1 Bft) N 1 1 min 3,0 UV-I 704 W/m 15,2 C 9,0 km/h (2 Bft)
29.06.2022 15:49 29,0 C 33,4 C 43 % 1015,1 hPa 0,0 l/m 3,8 km/h (1 Bft) N 11 1 min 2,0 UV-I 453 W/m 15,1 C 10,0 km/h (2 Bft)
29.06.2022 15:48 29,0 C 34,3 C 42 % 1014,8 hPa 0,0 l/m 1,0 km/h (0 Bft) O-SO 115 0 min 1,0 UV-I 337 W/m 14,8 C 10,0 km/h (2 Bft)
29.06.2022 15:47 29,0 C 35,1 C 43 % 1014,8 hPa 0,0 l/m 6,9 km/h (2 Bft) NO 38 1 min 3,0 UV-I 716 W/m 15,1 C 10,0 km/h (2 Bft)
29.06.2022 15:46 29,0 C 35,4 C 43 % 1014,7 hPa 0,0 l/m 5,4 km/h (1 Bft) O 81 1 min 3,0 UV-I 725 W/m 15,1 C 9,0 km/h (2 Bft)
29.06.2022 15:45 29,0 C 35,7 C 43 % 1014,7 hPa 0,0 l/m 3,9 km/h (1 Bft) O 91 1 min 3,0 UV-I 710 W/m 15,1 C 9,0 km/h (2 Bft)
29.06.2022 15:44 29,0 C 35,7 C 43 % 1014,9 hPa 0,0 l/m 3,4 km/h (1 Bft) O 95 1 min 3,0 UV-I 703 W/m 15,1 C 5,0 km/h (1 Bft)
29.06.2022 15:43 28,9 C 35,5 C 43 % 1014,9 hPa 0,0 l/m 2,1 km/h (1 Bft) W 270 1 min 3,0 UV-I 686 W/m 15,0 C 4,0 km/h (1 Bft)
29.06.2022 15:42 28,9 C 35,8 C 43 % 1014,9 hPa 0,0 l/m 0,7 km/h (0 Bft) N-NO 16 1 min 3,0 UV-I 685 W/m 15,0 C 9,0 km/h (2 Bft)
29.06.2022 15:41 28,9 C 34,7 C 43 % 1014,7 hPa 0,0 l/m 4,1 km/h (1 Bft) SO 126 1 min 3,0 UV-I 689 W/m 15,0 C 9,0 km/h (2 Bft)
29.06.2022 15:40 28,9 C 34,7 C 43 % 1014,8 hPa 0,0 l/m 2,8 km/h (1 Bft) N-NO 26 1 min 3,0 UV-I 698 W/m 15,0 C 8,0 km/h (2 Bft)
29.06.2022 15:39 28,9 C 34,4 C 43 % 1014,8 hPa 0,0 l/m 4,7 km/h (1 Bft) NO 47 1 min 3,0 UV-I 686 W/m 15,0 C 12,0 km/h (2 Bft)
29.06.2022 15:38 28,9 C 34,5 C 43 % 1014,7 hPa 0,0 l/m 6,4 km/h (2 Bft) N 2 1 min 3,0 UV-I 687 W/m 15,0 C 12,0 km/h (2 Bft)
29.06.2022 15:37 28,9 C 34,9 C 43 % 1014,8 hPa 0,0 l/m 2,5 km/h (1 Bft) N-NO 27 1 min 3,0 UV-I 689 W/m 15,0 C 12,0 km/h (2 Bft)
29.06.2022 15:36 28,9 C 34,5 C 43 % 1014,9 hPa 0,0 l/m 1,1 km/h (1 Bft) N-NW 336 1 min 3,0 UV-I 685 W/m 15,0 C 9,0 km/h (2 Bft)
29.06.2022 15:35 28,9 C 33,7 C 43 % 1014,8 hPa 0,0 l/m 3,0 km/h (1 Bft) SO 140 1 min 3,0 UV-I 660 W/m 15,0 C 6,0 km/h (2 Bft)
29.06.2022 15:34 28,9 C 33,6 C 43 % 1014,8 hPa 0,0 l/m 3,4 km/h (1 Bft) N 0 1 min 3,0 UV-I 672 W/m 15,0 C 10,0 km/h (2 Bft)
29.06.2022 15:33 28,9 C 32,6 C 42 % 1015,0 hPa 0,0 l/m 5,9 km/h (2 Bft) N-NW 338 1 min 3,0 UV-I 667 W/m 14,7 C 10,0 km/h (2 Bft)
29.06.2022 15:32 29,0 C 32,3 C 43 % 1014,8 hPa 0,0 l/m 7,8 km/h (2 Bft) NW 325 1 min 3,0 UV-I 669 W/m 15,1 C 10,0 km/h (2 Bft)
29.06.2022 15:31 29,0 C 31,7 C 43 % 1014,7 hPa 0,0 l/m 6,6 km/h (2 Bft) N-NW 340 1 min 2,0 UV-I 645 W/m 15,1 C 15,0 km/h (3 Bft)
29.06.2022 15:30 28,9 C 32,5 C 44 % 1014,5 hPa 0,0 l/m 6,3 km/h (2 Bft) N 351 1 min 2,0 UV-I 634 W/m 15,4 C 15,0 km/h (3 Bft)
29.06.2022 15:29 28,9 C 32,7 C 44 % 1014,7 hPa 0,0 l/m 6,0 km/h (2 Bft) N-NW 343 1 min 2,0 UV-I 573 W/m 15,4 C 15,0 km/h (3 Bft)
29.06.2022 15:28 29,0 C 33,5 C 44 % 1014,9 hPa 0,0 l/m 5,1 km/h (1 Bft) N-NO 33 0 min 1,0 UV-I 401 W/m 15,5 C 9,0 km/h (2 Bft)
29.06.2022 15:27 29,0 C 33,9 C 43 % 1014,9 hPa 0,0 l/m 3,1 km/h (1 Bft) O-NO 65 1 min 3,0 UV-I 677 W/m 15,1 C 8,0 km/h (2 Bft)
29.06.2022 15:26 29,0 C 34,6 C 44 % 1014,7 hPa 0,0 l/m 4,8 km/h (1 Bft) O-SO 118 1 min 3,0 UV-I 675 W/m 15,5 C 8,0 km/h (2 Bft)
29.06.2022 15:25 28,9 C 35,2 C 44 % 1015,0 hPa 0,0 l/m 2,3 km/h (1 Bft) NO 47 1 min 3,0 UV-I 666 W/m 15,4 C 6,0 km/h (2 Bft)
29.06.2022 15:24 28,9 C 34,1 C 44 % 1014,9 hPa 0,0 l/m 0,0 km/h (0 Bft) N 0 1 min 3,0 UV-I 666 W/m 15,4 C 11,0 km/h (2 Bft)
29.06.2022 15:23 28,9 C 34,1 C 43 % 1014,8 hPa 0,0 l/m 3,6 km/h (1 Bft) NW 317 1 min 3,0 UV-I 667 W/m 15,0 C 11,0 km/h (2 Bft)
29.06.2022 15:22 28,9 C 33,0 C 42 % 1014,8 hPa 0,0 l/m 10,7 km/h (2 Bft) W-NW 298 1 min 3,0 UV-I 666 W/m 14,7 C 21,0 km/h (4 Bft)
29.06.2022 15:21 28,9 C 32,5 C 41 % 1014,6 hPa 0,0 l/m 10,5 km/h (2 Bft) N-NW 334 1 min 3,0 UV-I 666 W/m 14,3 C 21,0 km/h (4 Bft)
29.06.2022 15:20 28,9 C 32,6 C 43 % 1015,0 hPa 0,0 l/m 7,8 km/h (2 Bft) N-NW 346 1 min 3,0 UV-I 666 W/m 15,0 C 21,0 km/h (4 Bft)
29.06.2022 15:19 28,9 C 33,7 C 44 % 1014,9 hPa 0,0 l/m 6,0 km/h (2 Bft) N 349 1 min 3,0 UV-I 669 W/m 15,4 C 17,0 km/h (3 Bft)
29.06.2022 15:18 28,9 C 33,2 C 44 % 1014,8 hPa 0,0 l/m 7,0 km/h (2 Bft) O 82 1 min 3,0 UV-I 678 W/m 15,4 C 14,0 km/h (3 Bft)
29.06.2022 15:17 28,9 C 34,6 C 45 % 1014,9 hPa 0,0 l/m 9,0 km/h (2 Bft) N 353 1 min 3,0 UV-I 698 W/m 15,8 C 14,0 km/h (3 Bft)
29.06.2022 15:16 28,8 C 36,1 C 45 % 1015,0 hPa 0,0 l/m 3,5 km/h (1 Bft) O-SO 109 1 min 3,0 UV-I 712 W/m 15,7 C 6,0 km/h (2 Bft)
29.06.2022 15:15 28,8 C 35,2 C 44 % 1015,0 hPa 0,0 l/m 2,4 km/h (1 Bft) NO 48 1 min 3,0 UV-I 720 W/m 15,3 C 5,0 km/h (1 Bft)
29.06.2022 15:14 28,7 C 34,7 C 45 % 1015,0 hPa 0,0 l/m 3,6 km/h (1 Bft) N-NO 31 1 min 3,0 UV-I 716 W/m 15,6 C 10,0 km/h (2 Bft)
29.06.2022 15:13 28,7 C 35,1 C 45 % 1014,8 hPa 0,0 l/m 4,2 km/h (1 Bft) S-SO 147 1 min 3,0 UV-I 708 W/m 15,6 C 10,0 km/h (2 Bft)
29.06.2022 15:12 28,7 C 34,4 C 44 % 1014,9 hPa 0,0 l/m 3,5 km/h (1 Bft) N-NO 30 1 min 3,0 UV-I 730 W/m 15,2 C 12,0 km/h (2 Bft)
29.06.2022 15:11 28,7 C 34,5 C 44 % 1015,1 hPa 0,0 l/m 2,7 km/h (1 Bft) O-NO 58 1 min 3,0 UV-I 730 W/m 15,2 C 12,0 km/h (2 Bft)
29.06.2022 15:10 28,7 C 34,7 C 44 % 1015,0 hPa 0,0 l/m 6,8 km/h (2 Bft) O-SO 102 1 min 3,0 UV-I 722 W/m 15,2 C 12,0 km/h (2 Bft)
29.06.2022 15:09 28,6 C 34,8 C 44 % 1014,9 hPa 0,0 l/m 4,2 km/h (1 Bft) SO 146 1 min 3,0 UV-I 729 W/m 15,1 C 9,0 km/h (2 Bft)
29.06.2022 15:08 28,7 C 34,4 C 44 % 1015,0 hPa 0,0 l/m 1,0 km/h (0 Bft) N 360 1 min 3,0 UV-I 734 W/m 15,2 C 6,0 km/h (2 Bft)
29.06.2022 15:07 28,7 C 34,0 C 44 % 1015,0 hPa 0,0 l/m 4,7 km/h (1 Bft) N 9 1 min 3,0 UV-I 730 W/m 15,2 C 8,0 km/h (2 Bft)
29.06.2022 15:06 28,7 C 33,2 C 44 % 1015,1 hPa 0,0 l/m 3,5 km/h (1 Bft) N-NW 342 1 min 3,0 UV-I 724 W/m 15,2 C 8,0 km/h (2 Bft)
29.06.2022 15:05 28,7 C 34,3 C 44 % 1014,9 hPa 0,0 l/m 4,7 km/h (1 Bft) W-NW 288 1 min 3,0 UV-I 720 W/m 15,2 C 8,0 km/h (2 Bft)
29.06.2022 15:04 28,7 C 34,6 C 44 % 1014,8 hPa 0,0 l/m 4,6 km/h (1 Bft) N-NO 12 1 min 3,0 UV-I 720 W/m 15,2 C 7,0 km/h (2 Bft)
29.06.2022 15:03 28,6 C 34,9 C 45 % 1015,1 hPa 0,0 l/m 3,6 km/h (1 Bft) N-NO 25 1 min 3,0 UV-I 727 W/m 15,5 C 7,0 km/h (2 Bft)
29.06.2022 15:02 28,6 C 34,9 C 45 % 1015,1 hPa 0,0 l/m 2,1 km/h (1 Bft) S-SO 152 1 min 3,0 UV-I 730 W/m 15,5 C 5,0 km/h (1 Bft)
29.06.2022 15:01 28,6 C 35,4 C 45 % 1015,0 hPa 0,0 l/m 1,3 km/h (1 Bft) NW 320 1 min 3,0 UV-I 718 W/m 15,5 C 3,0 km/h (1 Bft)
29.06.2022 15:00 28,6 C 35,5 C 46 % 1014,8 hPa 0,0 l/m 0,0 km/h (0 Bft) N 0 1 min 3,0 UV-I 714 W/m 15,8 C 9,0 km/h (2 Bft)
29.06.2022 14:59 28,5 C 35,2 C 46 % 1015,0 hPa 0,0 l/m 3,8 km/h (1 Bft) O-SO 102 1 min 3,0 UV-I 708 W/m 15,7 C 9,0 km/h (2 Bft)
29.06.2022 14:58 28,5 C 35,2 C 45 % 1015,1 hPa 0,0 l/m 1,9 km/h (1 Bft) N 350 1 min 3,0 UV-I 693 W/m 15,4 C 9,0 km/h (2 Bft)
29.06.2022 14:57 28,5 C 33,9 C 45 % 1015,1 hPa 0,0 l/m 5,6 km/h (1 Bft) N 360 1 min 3,0 UV-I 661 W/m 15,4 C 9,0 km/h (2 Bft)
29.06.2022 14:56 28,5 C 34,0 C 45 % 1015,2 hPa 0,0 l/m 2,4 km/h (1 Bft) N-NO 13 1 min 3,0 UV-I 655 W/m 15,4 C 7,0 km/h (2 Bft)
29.06.2022 14:55 28,5 C 34,1 C 45 % 1015,0 hPa 0,0 l/m 4,1 km/h (1 Bft) NO 52 1 min 3,0 UV-I 664 W/m 15,4 C 10,0 km/h (2 Bft)
29.06.2022 14:54 28,5 C 34,3 C 46 % 1015,1 hPa 0,0 l/m 4,8 km/h (1 Bft) N-NO 30 1 min 3,0 UV-I 666 W/m 15,7 C 10,0 km/h (2 Bft)
29.06.2022 14:53 28,4 C 34,6 C 46 % 1014,9 hPa 0,0 l/m 4,8 km/h (1 Bft) N-NO 23 1 min 3,0 UV-I 691 W/m 15,6 C 10,0 km/h (2 Bft)
29.06.2022 14:52 28,4 C 33,7 C 46 % 1014,9 hPa 0,0 l/m 1,3 km/h (1 Bft) S-SO 158 1 min 3,0 UV-I 707 W/m 15,6 C 12,0 km/h (2 Bft)
29.06.2022 14:51 28,4 C 33,0 C 45 % 1015,3 hPa 0,0 l/m 5,7 km/h (1 Bft) N 5 1 min 3,0 UV-I 724 W/m 15,3 C 12,0 km/h (2 Bft)
29.06.2022 14:50 28,4 C 32,6 C 45 % 1015,0 hPa 0,0 l/m 6,5 km/h (2 Bft) N 1 1 min 3,0 UV-I 729 W/m 15,3 C 12,0 km/h (2 Bft)
29.06.2022 14:49 28,4 C 32,6 C 46 % 1015,1 hPa 0,0 l/m 9,5 km/h (2 Bft) N-NW 343 1 min 3,0 UV-I 737 W/m 15,6 C 12,0 km/h (2 Bft)
29.06.2022 14:48 28,3 C 33,6 C 46 % 1015,1 hPa 0,0 l/m 8,5 km/h (2 Bft) N-NW 331 1 min 3,0 UV-I 741 W/m 15,6 C 12,0 km/h (2 Bft)
29.06.2022 14:47 28,3 C 33,0 C 46 % 1015,1 hPa 0,0 l/m 9,1 km/h (2 Bft) N 349 1 min 3,0 UV-I 737 W/m 15,6 C 12,0 km/h (2 Bft)
29.06.2022 14:46 28,3 C 32,7 C 47 % 1015,0 hPa 0,0 l/m 5,4 km/h (1 Bft) N-NW 328 1 min 3,0 UV-I 736 W/m 15,9 C 11,0 km/h (2 Bft)
29.06.2022 14:45 28,3 C 33,2 C 47 % 1015,4 hPa 0,0 l/m 5,6 km/h (1 Bft) N-NW 341 1 min 3,0 UV-I 737 W/m 15,9 C 11,0 km/h (2 Bft)
29.06.2022 14:44 28,2 C 33,1 C 47 % 1015,2 hPa 0,0 l/m 3,1 km/h (1 Bft) N-NW 328 1 min 3,0 UV-I 735 W/m 15,8 C 7,0 km/h (2 Bft)
29.06.2022 14:43 28,2 C 33,2 C 47 % 1015,2 hPa 0,0 l/m 2,2 km/h (1 Bft) N 7 1 min 3,0 UV-I 734 W/m 15,8 C 6,0 km/h (2 Bft)
29.06.2022 14:42 28,2 C 33,2 C 47 % 1015,2 hPa 0,0 l/m 3,0 km/h (1 Bft) N 0 1 min 3,0 UV-I 731 W/m 15,8 C 9,0 km/h (2 Bft)
29.06.2022 14:41 28,1 C 33,7 C 48 % 1015,3 hPa 0,0 l/m 4,7 km/h (1 Bft) NO 54 1 min 3,0 UV-I 730 W/m 16,0 C 9,0 km/h (2 Bft)
29.06.2022 14:40 28,1 C 34,1 C 48 % 1015,3 hPa 0,0 l/m 3,2 km/h (1 Bft) NO 41 1 min 3,0 UV-I 731 W/m 16,0 C 9,0 km/h (2 Bft)
29.06.2022 14:39 28,0 C 33,9 C 49 % 1015,1 hPa 0,0 l/m 2,4 km/h (1 Bft) N 349 1 min 3,0 UV-I 735 W/m 16,3 C 8,0 km/h (2 Bft)
29.06.2022 14:38 28,0 C 33,4 C 48 % 1015,3 hPa 0,0 l/m 4,3 km/h (1 Bft) NO 34 1 min 3,0 UV-I 726 W/m 15,9 C 9,0 km/h (2 Bft)
29.06.2022 14:37 27,9 C 33,4 C 48 % 1015,2 hPa 0,0 l/m 5,0 km/h (1 Bft) N-NW 342 1 min 3,0 UV-I 722 W/m 15,9 C 9,0 km/h (2 Bft)
29.06.2022 14:36 27,9 C 33,8 C 49 % 1015,2 hPa 0,0 l/m 4,2 km/h (1 Bft) N-NW 339 1 min 3,0 UV-I 712 W/m 16,2 C 6,0 km/h (2 Bft)
29.06.2022 14:35 27,8 C 33,2 C 48 % 1015,1 hPa 0,0 l/m 4,0 km/h (1 Bft) S-SO 160 1 min 3,0 UV-I 691 W/m 15,8 C 9,0 km/h (2 Bft)
29.06.2022 14:34 27,8 C 33,0 C 49 % 1015,1 hPa 0,0 l/m 3,4 km/h (1 Bft) N 355 1 min 3,0 UV-I 680 W/m 16,1 C 9,0 km/h (2 Bft)
29.06.2022 14:33 27,7 C 33,0 C 49 % 1015,1 hPa 0,0 l/m 2,7 km/h (1 Bft) N-NO 30 1 min 3,0 UV-I 681 W/m 16,0 C 9,0 km/h (2 Bft)
29.06.2022 14:32 27,6 C 32,6 C 49 % 1015,1 hPa 0,0 l/m 5,4 km/h (1 Bft) N-NO 17 1 min 3,0 UV-I 686 W/m 15,9 C 9,0 km/h (2 Bft)
29.06.2022 14:31 27,6 C 32,6 C 49 % 1015,4 hPa 0,0 l/m 5,1 km/h (1 Bft) NW 312 1 min 3,0 UV-I 702 W/m 15,9 C 9,0 km/h (2 Bft)
29.06.2022 14:30 27,6 C 32,8 C 49 % 1015,3 hPa 0,0 l/m 4,1 km/h (1 Bft) O-NO 60 1 min 3,0 UV-I 714 W/m 15,9 C 12,0 km/h (2 Bft)
29.06.2022 14:29 27,6 C 31,3 C 48 % 1015,5 hPa 0,0 l/m 0,0 km/h (0 Bft) N 0 1 min 3,0 UV-I 704 W/m 15,6 C 12,0 km/h (2 Bft)
29.06.2022 14:28 27,6 C 30,7 C 47 % 1015,1 hPa 0,0 l/m 6,4 km/h (2 Bft) N-NO 29 1 min 3,0 UV-I 702 W/m 15,3 C 12,0 km/h (2 Bft)
29.06.2022 14:27 27,7 C 30,7 C 48 % 1015,4 hPa 0,0 l/m 6,0 km/h (2 Bft) NO 50 1 min 3,0 UV-I 730 W/m 15,7 C 12,0 km/h (2 Bft)
29.06.2022 14:26 27,7 C 30,3 C 48 % 1015,3 hPa 0,0 l/m 6,4 km/h (2 Bft) N 2 1 min 3,0 UV-I 764 W/m 15,7 C 12,0 km/h (2 Bft)
29.06.2022 14:25 27,7 C 28,6 C 48 % 1015,3 hPa 0,0 l/m 5,1 km/h (1 Bft) NO 35 1 min 3,0 UV-I 796 W/m 15,7 C 11,0 km/h (2 Bft)
29.06.2022 14:24 27,8 C 28,8 C 47 % 1015,2 hPa 0,0 l/m 6,9 km/h (2 Bft) N-NW 347 1 min 3,0 UV-I 800 W/m 15,4 C 11,0 km/h (2 Bft)
29.06.2022 14:23 27,8 C 28,5 C 49 % 1015,3 hPa 0,0 l/m 3,6 km/h (1 Bft) N 11 0 min 1,0 UV-I 277 W/m 16,1 C 7,0 km/h (2 Bft)
29.06.2022 14:22 27,8 C 28,8 C 48 % 1015,2 hPa 0,0 l/m 1,4 km/h (1 Bft) N-NW 336 0 min 1,0 UV-I 346 W/m 15,8 C 9,0 km/h (2 Bft)
29.06.2022 14:21 27,8 C 28,8 C 49 % 1015,1 hPa 0,0 l/m 6,4 km/h (2 Bft) NO 35 0 min 1,0 UV-I 297 W/m 16,1 C 9,0 km/h (2 Bft)
29.06.2022 14:20 27,8 C 30,2 C 49 % 1015,3 hPa 0,0 l/m 4,4 km/h (1 Bft) N-NO 18 0 min 1,0 UV-I 292 W/m 16,1 C 9,0 km/h (2 Bft)
29.06.2022 14:19 27,8 C 30,5 C 49 % 1015,3 hPa 0,0 l/m 4,5 km/h (1 Bft) N 9 1 min 3,0 UV-I 760 W/m 16,1 C 9,0 km/h (2 Bft)
29.06.2022 14:18 27,8 C 30,1 C 49 % 1015,4 hPa 0,0 l/m 3,5 km/h (1 Bft) N 3 1 min 3,0 UV-I 776 W/m 16,1 C 12,0 km/h (2 Bft)
29.06.2022 14:17 27,8 C 30,2 C 49 % 1015,7 hPa 0,0 l/m 5,9 km/h (2 Bft) S-SW 203 1 min 3,0 UV-I 789 W/m 16,1 C 12,0 km/h (2 Bft)
29.06.2022 14:16 27,8 C 30,3 C 50 % 1015,2 hPa 0,0 l/m 5,5 km/h (1 Bft) N 358 1 min 3,0 UV-I 790 W/m 16,4 C 9,0 km/h (2 Bft)
29.06.2022 14:15 27,7 C 31,0 C 49 % 1015,4 hPa 0,0 l/m 2,7 km/h (1 Bft) N 355 1 min 3,0 UV-I 786 W/m 16,0 C 9,0 km/h (2 Bft)
29.06.2022 14:14 27,7 C 31,5 C 49 % 1015,5 hPa 0,0 l/m 2,1 km/h (1 Bft) N 7 1 min 3,0 UV-I 768 W/m 16,0 C 9,0 km/h (2 Bft)
29.06.2022 14:13 27,7 C 31,8 C 49 % 1015,4 hPa 0,0 l/m 4,2 km/h (1 Bft) N 359 1 min 3,0 UV-I 770 W/m 16,0 C 9,0 km/h (2 Bft)
29.06.2022 14:12 27,6 C 32,3 C 49 % 1015,6 hPa 0,0 l/m 2,0 km/h (1 Bft) N-NO 12 1 min 3,0 UV-I 791 W/m 15,9 C 8,0 km/h (2 Bft)
29.06.2022 14:11 27,5 C 32,1 C 48 % 1015,4 hPa 0,0 l/m 4,8 km/h (1 Bft) N 0 1 min 3,0 UV-I 804 W/m 15,5 C 14,0 km/h (3 Bft)
29.06.2022 14:10 27,5 C 31,6 C 48 % 1015,4 hPa 0,0 l/m 5,5 km/h (1 Bft) N 355 1 min 3,0 UV-I 795 W/m 15,5 C 14,0 km/h (3 Bft)
29.06.2022 14:09 27,5 C 32,0 C 48 % 1015,4 hPa 0,0 l/m 3,8 km/h (1 Bft) O-NO 65 1 min 3,0 UV-I 795 W/m 15,5 C 14,0 km/h (3 Bft)
29.06.2022 14:08 27,4 C 32,8 C 49 % 1015,6 hPa 0,0 l/m 5,4 km/h (1 Bft) N 349 1 min 3,0 UV-I 803 W/m 15,7 C 10,0 km/h (2 Bft)
29.06.2022 14:07 27,4 C 32,6 C 52 % 1015,6 hPa 0,0 l/m 5,3 km/h (1 Bft) N-NO 15 1 min 3,0 UV-I 802 W/m 16,7 C 10,0 km/h (2 Bft)
29.06.2022 14:06 27,3 C 32,1 C 52 % 1015,3 hPa 0,0 l/m 4,5 km/h (1 Bft) N 6 1 min 3,0 UV-I 781 W/m 16,6 C 10,0 km/h (2 Bft)
29.06.2022 14:05 27,3 C 32,2 C 52 % 1015,8 hPa 0,0 l/m 3,7 km/h (1 Bft) N-NO 22 1 min 3,0 UV-I 767 W/m 16,6 C 9,0 km/h (2 Bft)
29.06.2022 14:04 27,2 C 32,0 C 51 % 1015,5 hPa 0,0 l/m 4,6 km/h (1 Bft) N-NO 12 1 min 3,0 UV-I 757 W/m 16,2 C 11,0 km/h (2 Bft)
29.06.2022 14:03 27,2 C 32,6 C 52 % 1015,6 hPa 0,0 l/m 4,4 km/h (1 Bft) S 172 1 min 3,0 UV-I 769 W/m 16,5 C 11,0 km/h (2 Bft)
29.06.2022 14:02 27,1 C 33,2 C 52 % 1015,6 hPa 0,0 l/m 3,8 km/h (1 Bft) S 175 1 min 3,0 UV-I 776 W/m 16,4 C 11,0 km/h (2 Bft)
29.06.2022 14:01 27,1 C 34,2 C 53 % 1015,6 hPa 0,0 l/m 2,9 km/h (1 Bft) N 9 1 min 3,0 UV-I 789 W/m 16,7 C 6,0 km/h (2 Bft)
29.06.2022 14:00 27,0 C 34,2 C 53 % 1015,7 hPa 0,0 l/m 0,0 km/h (0 Bft) N 0 2 min 3,0 UV-I 789 W/m 16,6 C 5,0 km/h (1 Bft)
_ Min-Zeit 05:08 04:26 15:21 13:01 - 14:00 - - - - - 05:08 23:17
Minimum _ 15,9 C 14,7 C 41 % 1012,3 hPa - 0,0 km/h (0 Bft) - - - - - 13,7 C 0,0 km/h (0 Bft)
_ Max-Zeit 16:21 16:15 05:38 14:05 14:00 15:22 - - 14:00 11:15 12:04 12:26 15:20
Maximum _ 29,6 C 36,6 C 89 % 1015,8 hPa 0,0 l/m 10,7 km/h
W-NW (2 Bft)
- - 2 min 4,0 UV-I 919 W/m 19,7 C 21,0 km/h
N-NW (4 Bft)
Durchschnitt _ 22,7 C 23,7 C 68 % 1014,2 hPa #0,0 l/m 2,1 km/h (1 Bft) N - #4:13 h 2,6 UV-I 397 W/m 16,0 C 5,8 km/h (2 Bft)